Date StartTime U_cm/s V_cm/s W_cm/s Ustd_cm/s Vstd_cm/s Wstd_cm/s Uvar_(cm/s)^2 Vvar_(cm/s)^2 Wvar_(cm/s)^2 KE_(m/s)^2 TurbulentKE_(m/s)^2 HorizWindSpeed_cm/s FrictionSpeec_cm/s DragCoef SpeedOfSound_m/s SonicTemperature_C Pressure_mb 
12/26/2013  00:00:00     -103.662      -30.323      -20.487       16.333       16.875       14.006      266.754      284.765      196.157        0.642        0.037      108.006       11.110        0.011      331.292       -0.786      872.859
12/26/2013  00:01:00      -75.213      -31.038      -15.066       22.909       21.830       16.066      524.817      476.570      258.103        0.405        0.063       81.366       12.109        0.022      331.281       -0.804      872.856
12/26/2013  00:02:00      -52.140      -22.055       -7.860       31.285       22.719       14.101      978.735      516.147      198.827        0.248        0.085       56.612       13.615        0.058      331.338       -0.711      872.856
12/26/2013  00:03:00      -48.281      -24.765      -10.246       24.425       21.909       13.088      596.589      480.016      171.303        0.215        0.062       54.262       12.333        0.052      331.335       -0.716      872.868
12/26/2013  00:04:00      -48.002      -17.727       -7.439       23.679       19.725       17.502      560.701      389.066      306.323        0.196        0.063       51.171        9.632        0.035      331.332       -0.720      872.879
12/26/2013  00:05:00      -77.667      -40.954      -12.661       11.738       13.170        9.961      137.775      173.454       99.226        0.414        0.021       87.803        6.490        0.005      331.251       -0.853      872.881
12/26/2013  00:06:00      -95.521      -36.504      -10.372       11.775       10.793        7.557      138.647      116.488       57.112        0.544        0.016      102.258        5.340        0.003      331.235       -0.880      872.878
12/26/2013  00:07:00     -101.616      -38.308      -11.626       13.381       14.277        8.417      179.062      203.837       70.844        0.619        0.023      108.598        4.807        0.002      331.257       -0.842      872.872
12/26/2013  00:08:00      -92.214      -34.521       -9.731       17.865       15.237        8.816      319.175      232.177       77.716        0.521        0.031       98.464        5.893        0.004      331.287       -0.793      872.867
12/26/2013  00:09:00      -80.526      -47.532       -6.797       15.013       10.056        8.464      225.395      101.128       71.634        0.459        0.020       93.508        6.503        0.005      331.257       -0.845      872.843
12/26/2013  00:10:00      -79.759      -47.704       -6.399       10.878       10.929        7.633      118.324      119.444       58.262        0.449        0.015       92.936        2.887        0.001      331.264       -0.835      872.835
12/26/2013  00:11:00      -81.628      -35.004       -7.505       10.658       11.550        8.036      113.592      133.396       64.575        0.413        0.016       88.817        5.112        0.003      331.285       -0.796      872.824
12/26/2013  00:12:00      -82.781      -38.242       -9.843        8.133        6.383        6.997       66.146       40.746       48.961        0.428        0.008       91.187        3.777        0.002      331.277       -0.810      872.824
12/26/2013  00:13:00      -94.687      -44.263      -12.424       12.867       10.192        9.474      165.555      103.871       89.754        0.572        0.018      104.522        4.944        0.002      331.279       -0.806      872.822
12/26/2013  00:14:00      -97.539      -32.458      -10.744       11.682       13.955        8.037      136.460      194.749       64.588        0.554        0.020      102.798        3.609        0.001      331.293       -0.785      872.821
12/26/2013  00:15:00     -100.579      -38.339       -9.871       11.609       11.628        9.397      134.772      135.209       88.300        0.602        0.018      107.638        3.368        0.001      331.292       -0.787      872.814
12/26/2013  00:16:00      -99.154      -55.576       -9.813       16.016       12.425        8.463      256.503      154.385       71.620        0.675        0.024      113.667        5.277        0.002      331.187       -0.958      872.799
12/26/2013  00:17:00      -94.661      -56.079       -8.197       17.243       16.503       15.945      297.304      272.356      254.240        0.650        0.041      110.025       10.629        0.009      331.236       -0.878      872.784
12/26/2013  00:18:00      -95.065      -38.147      -12.075        9.312       16.104        8.752       86.708      259.353       76.603        0.553        0.021      102.433        6.025        0.003      331.195       -0.946      872.767
12/26/2013  00:19:00     -105.860      -37.722      -10.659       11.253       11.473        8.430      126.637      131.632       71.057        0.654        0.016      112.381        3.983        0.001      331.199       -0.939      872.757
12/26/2013  00:20:00     -103.374      -44.580       -5.052       16.982       16.193       12.942      288.374      262.202      167.495        0.671        0.036      112.577        9.985        0.008      331.197       -0.942      872.759
12/26/2013  00:21:00      -99.676      -45.487       -8.376       12.002       20.282       12.747      144.050      411.356      162.478        0.640        0.036      109.565        6.553        0.004      331.191       -0.953      872.761
12/26/2013  00:22:00      -88.310      -52.677       -4.774       24.219       15.931       14.273      586.571      253.793      203.715        0.582        0.052      102.827       12.838        0.016      331.194       -0.948      872.756
12/26/2013  00:23:00     -108.400      -37.454       -9.691       10.677       15.036        9.840      113.988      226.081       96.829        0.684        0.022      114.688        7.348        0.004      331.250       -0.856      872.755
12/26/2013  00:24:00     -106.879      -44.757       -4.878       16.111       15.427       10.294      259.560      238.003      105.972        0.703        0.030      115.872        8.744        0.006      331.207       -0.928      872.746
12/26/2013  00:25:00     -107.773      -42.547       -8.852       13.552       18.391        9.867      183.644      338.245       97.356        0.706        0.031      115.868        5.038        0.002      331.184       -0.963      872.740
12/26/2013  00:26:00     -113.759      -40.111      -11.669       16.754       20.631       10.680      280.693      425.647      114.070        0.775        0.041      120.623        7.513        0.004      331.161       -1.002      872.738
12/26/2013  00:27:00      -98.542      -33.878       -6.717       20.120       21.076       13.858      404.802      444.179      192.034        0.597        0.052      104.203        7.154        0.005      331.171       -0.986      872.737
12/26/2013  00:28:00     -105.256      -29.640       -4.563       19.954       20.075       14.412      398.168      403.001      207.710        0.649        0.050      109.349       10.378        0.009      331.185       -0.965      872.747
12/26/2013  00:29:00      -88.009      -36.870       -2.656       28.684       13.951       15.372      822.775      194.619      236.284        0.518        0.063       95.420       13.186        0.019      331.258       -0.843      872.750
12/26/2013  00:30:00      -87.263      -30.760        0.789       31.783       15.864       12.482     1010.164      251.657      155.805        0.499        0.071       92.526       15.103        0.027      331.214       -0.917      872.738
12/26/2013  00:31:00      -93.161      -24.769       -9.317       16.000       16.914       14.224      255.993      286.071      202.320        0.506        0.037       96.398        5.794        0.004      331.233       -0.884      872.724
12/26/2013  00:32:00      -98.855      -29.732      -11.512       25.440       16.188       10.669      647.192      262.059      113.821        0.591        0.051      103.230       11.133        0.012      331.221       -0.904      872.712
12/26/2013  00:33:00     -103.665      -21.044      -10.846       17.344       13.462       12.824      300.802      181.237      164.467        0.598        0.032      105.779        7.941        0.006      331.180       -0.969      872.696
12/26/2013  00:34:00     -104.138      -33.255       -6.679       20.474       13.868       13.230      419.165      192.311      175.038        0.639        0.039      109.319       11.988        0.012      331.129       -1.056      872.691
12/26/2013  00:35:00     -116.391      -52.369       -5.424       24.158       17.283       10.594      583.599      298.701      112.224        0.866        0.050      127.630        8.091        0.004      331.108       -1.091      872.677
12/26/2013  00:36:00     -102.359      -27.477      -15.050       14.027       17.859       10.805      196.745      318.946      116.754        0.605        0.032      105.983        4.299        0.002      331.087       -1.126      872.661
12/26/2013  00:37:00     -105.220      -37.128       -7.719       16.584       15.313       10.145      275.034      234.479      102.931        0.656        0.031      111.578        6.514        0.003      331.093       -1.114      872.648
12/26/2013  00:38:00      -85.417      -30.181       -5.785       21.211       16.970       12.381      449.908      287.985      153.301        0.457        0.045       90.592       12.238        0.018      331.044       -1.195      872.639
12/26/2013  00:39:00      -85.112      -16.356       -9.414       16.694       14.980       12.316      278.689      224.411      151.672        0.413        0.033       86.669       10.318        0.014      330.995       -1.275      872.633
12/26/2013  00:40:00      -75.324       -7.110       -5.409       19.713       15.452       13.043      388.609      238.772      170.131        0.328        0.040       75.659        9.906        0.017      331.065       -1.161      872.632
12/26/2013  00:41:00      -74.584       -7.393       -3.694       21.329       15.238       13.521      454.909      232.210      182.819        0.325        0.043       74.950       13.383        0.032      331.007       -1.254      872.638
12/26/2013  00:42:00      -71.316       -7.563       -6.219       17.992       19.424       13.309      323.718      377.306      177.142        0.303        0.044       71.716        8.595        0.014      330.990       -1.284      872.641
12/26/2013  00:43:00      -74.065      -11.000      -12.182        9.296        8.058        8.086       86.421       64.925       65.387        0.299        0.011       74.878        4.441        0.004      331.000       -1.268      872.633
12/26/2013  00:44:00      -69.465       -6.609      -13.328       10.009        6.621        7.088      100.178       43.842       50.241        0.262        0.010       69.779        3.522        0.003      330.954       -1.342      872.627
12/26/2013  00:45:00      -75.046       -9.527      -14.160       10.464        7.813        7.231      109.498       61.044       52.292        0.307        0.011       75.648        3.549        0.002      330.981       -1.297      872.629
12/26/2013  00:46:00      -71.113       -8.710      -11.667        8.136        6.230        7.631       66.198       38.809       58.228        0.272        0.008       71.645        4.291        0.004      330.972       -1.314      872.636
12/26/2013  00:47:00      -69.166        1.489      -12.416        9.712        8.943        8.459       94.327       79.978       71.553        0.259        0.012       69.182        4.522        0.004      331.017       -1.239      872.643
12/26/2013  00:48:00      -63.698       -0.276      -11.232       14.282        8.705        8.188      203.964       75.769       67.038        0.227        0.017       63.699        4.303        0.005      331.115       -1.079      872.642
12/26/2013  00:49:00      -60.848       -3.900       -4.219       11.935        8.664        6.547      142.443       75.060       42.864        0.200        0.013       60.973        5.730        0.009      331.295       -0.782      872.648
12/26/2013  00:50:00      -60.752       -9.662       -4.916       14.841       12.496        6.392      220.241      156.152       40.852        0.211        0.021       61.516        6.525        0.011      331.201       -0.937      872.653
12/26/2013  00:51:00      -72.627      -13.891       -8.429       11.384       10.854        7.892      129.598      117.806       62.277        0.292        0.015       73.943        2.596        0.001      331.095       -1.111      872.655
12/26/2013  00:52:00      -62.034       -7.342      -11.046       14.522       11.354        8.723      210.898      128.924       76.094        0.222        0.021       62.467        5.507        0.008      331.043       -1.197      872.657
12/26/2013  00:53:00      -61.789       -7.426       -8.204        9.128        8.722        5.080       83.322       76.072       25.806        0.206        0.009       62.234        4.661        0.006      331.147       -1.027      872.659
12/26/2013  00:54:00      -68.872       -3.027       -5.954       11.937        9.693        7.090      142.485       93.956       50.265        0.254        0.014       68.939        2.222        0.001      331.344       -0.701      872.662
12/26/2013  00:55:00      -58.903        2.010      -10.471        6.484        9.897        7.419       42.047       97.955       55.040        0.189        0.010       58.937        4.770        0.007      331.317       -0.745      872.668
12/26/2013  00:56:00      -66.565       -4.132      -12.920        9.918        9.041        8.394       98.369       81.740       70.461        0.243        0.013       66.693        5.792        0.008      331.169       -0.989      872.681
12/26/2013  00:57:00      -69.241       -2.127      -14.174       10.069        8.518        6.624      101.386       72.550       43.874        0.261        0.011       69.274        2.132        0.001      331.055       -1.177      872.689
12/26/2013  00:58:00      -64.922       -0.872      -10.608        7.417        8.661        6.410       55.017       75.005       41.085        0.225        0.009       64.928        2.852        0.002      331.112       -1.083      872.704
12/26/2013  00:59:00      -71.852       -3.505      -12.193       16.329        8.462        9.729      266.644       71.605       94.662        0.288        0.022       71.938        6.925        0.009      331.045       -1.195      872.727
12/26/2013  01:00:00      -74.932      -10.246       -6.200       16.172       12.775       13.412      261.519      163.188      179.877        0.318        0.030       75.629        9.582        0.016      330.979       -1.302      872.743
12/26/2013  01:01:00      -91.202       -6.308      -13.921       21.416       12.170       12.508      458.645      148.105      156.449        0.466        0.038       91.419       11.207        0.015      330.970       -1.318      872.748
12/26/2013  01:02:00      -80.808      -22.871      -13.415       14.681       15.909        9.902      215.530      253.096       98.048        0.390        0.028       83.982        9.705        0.013      330.969       -1.317      872.763
12/26/2013  01:03:00      -83.943      -18.375      -12.897       14.665       16.135       11.743      215.060      260.322      137.899        0.408        0.031       85.931        2.844        0.001      330.977       -1.305      872.774
12/26/2013  01:04:00      -68.131      -29.603        1.411       17.313       12.835       15.116      299.728      164.744      228.492        0.311        0.035       74.285       11.290        0.023      330.984       -1.295      872.784
12/26/2013  01:05:00      -92.683      -22.977       -9.571       18.367       11.364       12.021      337.343      129.139      144.509        0.491        0.031       95.489       10.216        0.011      331.043       -1.197      872.797
12/26/2013  01:06:00      -90.529      -26.358      -11.768       14.353        8.471        7.324      206.008       71.764       53.644        0.468        0.017       94.289        5.892        0.004      331.058       -1.173      872.812
12/26/2013  01:07:00      -83.976      -28.131      -11.902        8.249        9.718        7.604       68.047       94.442       57.817        0.410        0.011       88.563        4.472        0.003      331.146       -1.026      872.825
12/26/2013  01:08:00      -79.331      -32.471       -5.751       13.873       11.495       10.156      192.458      132.146      103.148        0.390        0.021       85.719        6.920        0.007      331.162       -0.999      872.839
12/26/2013  01:09:00      -79.918      -19.227      -10.675        9.155       12.531        6.801       83.819      157.038       46.256        0.358        0.014       82.198        3.379        0.002      331.155       -1.012      872.852
12/26/2013  01:10:00      -82.462      -13.728       -9.968        5.977        7.677        6.763       35.722       58.935       45.742        0.361        0.007       83.597        2.447        0.001      331.178       -0.974      872.855
12/26/2013  01:11:00      -77.777       -7.920       -9.115        8.532        7.427        7.186       72.789       55.158       51.645        0.319        0.009       78.179        3.044        0.002      331.174       -0.981      872.854
12/26/2013  01:12:00      -75.882      -15.203      -11.569        8.341        9.359        7.667       69.570       87.590       58.778        0.317        0.011       77.390        3.951        0.003      331.160       -1.004      872.861
12/26/2013  01:13:00      -85.166      -24.201       -8.495        8.800        8.897        8.914       77.448       79.154       79.466        0.407        0.012       88.538        2.770        0.001      331.169       -0.989      872.870
12/26/2013  01:14:00      -81.828      -25.143      -14.652        7.336        6.458        6.231       53.821       41.700       38.830        0.384        0.007       85.604        2.884        0.001      331.133       -1.047      872.873
12/26/2013  01:15:00      -66.484      -26.015       -9.086        8.895        5.293        5.429       79.126       28.014       29.473        0.266        0.007       71.393        3.564        0.002      331.122       -1.066      872.870
12/26/2013  01:16:00      -50.974      -17.625      -10.566        5.504        7.513        5.446       30.295       56.445       29.658        0.157        0.006       53.935        3.549        0.004      331.174       -0.983      872.879
12/26/2013  01:17:00      -41.120      -17.702       -7.597        7.250        5.819        4.910       52.560       33.862       24.108        0.109        0.006       44.769        1.832        0.002      331.173       -0.986      872.893
12/26/2013  01:18:00      -41.973      -21.759      -11.393        5.963        5.663        4.232       35.559       32.070       17.908        0.123        0.004       47.278        3.232        0.005      331.267       -0.828      872.904
12/26/2013  01:19:00      -38.486      -27.885       -8.061        6.388        5.522        5.615       40.803       30.495       31.524        0.121        0.005       47.526        3.598        0.006      331.376       -0.649      872.915
12/26/2013  01:20:00      -36.536      -24.877       -7.648       12.090        6.681        5.098      146.171       44.641       25.987        0.111        0.011       44.202        3.813        0.007      331.441       -0.542      872.925
12/26/2013  01:21:00      -37.620      -22.999       -4.413       14.838        9.769        7.386      220.181       95.438       54.558        0.117        0.019       44.093        7.433        0.028      331.483       -0.472      872.939
12/26/2013  01:22:00      -50.913      -25.178       -4.299        8.333        7.127        7.772       69.446       50.793       60.401        0.171        0.009       56.799        3.356        0.003      331.223       -0.900      872.953
12/26/2013  01:23:00      -45.106      -25.363       -5.049        9.644        7.651        5.663       93.003       58.545       32.065        0.144        0.009       51.748        4.646        0.008      331.246       -0.861      872.960
12/26/2013  01:24:00      -37.397      -21.880       -3.796       12.272        6.578        9.747      150.612       43.268       94.997        0.109        0.014       43.327        7.872        0.033      331.312       -0.755      872.975
12/26/2013  01:25:00      -14.616      -16.955        3.384       20.011       10.472        9.928      400.433      109.658       98.560        0.056        0.030       22.385       10.105        0.204      331.212       -0.918      873.003
12/26/2013  01:26:00      -56.215      -31.873       -1.046       29.997       15.353       15.513      899.841      235.722      240.651        0.278        0.069       64.622        9.054        0.020      330.975       -1.308      873.031
12/26/2013  01:27:00      -51.825      -18.594        6.220       17.077       17.355       12.525      291.637      301.206      156.887        0.191        0.037       55.060        7.440        0.018      331.069       -1.153      873.061
12/26/2013  01:28:00      -75.721       -1.912        4.369       28.430       24.299       18.405      808.252      590.457      338.737        0.375        0.087       75.746       15.851        0.044      331.022       -1.232      873.087
12/26/2013  01:29:00      -53.958      -30.375       10.230       42.992       30.818       25.590     1848.344      949.739      654.833        0.370        0.173       61.920       20.994        0.115      330.916       -1.405      873.105
12/26/2013  01:30:00       -7.177      -17.986        5.171       37.710       28.634       14.446     1422.023      819.890      208.688        0.143        0.123       19.365        8.065        0.173      331.031       -1.216      873.112
12/26/2013  01:31:00      -66.808      -33.455       -1.458       49.619       29.694       25.471     2462.012      881.749      648.775        0.479        0.200       74.717        9.081        0.015      330.984       -1.294      873.119
12/26/2013  01:32:00      -91.135      -61.381        8.895       45.371       45.045       26.878     2058.569     2029.036      722.428        0.848        0.241      109.878       20.173        0.034      330.976       -1.307      873.125
12/26/2013  01:33:00     -100.330      -73.831       -1.070       34.506       41.792       22.608     1190.696     1746.607      511.110        0.948        0.172      124.568       21.324        0.029      330.958       -1.336      873.136
12/26/2013  01:34:00      -54.508      -59.805        7.654       52.723       38.729       24.522     2779.748     1499.932      601.330        0.574        0.244       80.919       27.523        0.116      331.011       -1.250      873.133
12/26/2013  01:35:00      -25.751      -29.563       11.151       36.212       34.670       20.793     1311.331     1202.014      432.330        0.230        0.147       39.206       21.392        0.298      331.011       -1.249      873.130
12/26/2013  01:36:00      -48.048      -50.102        4.146       48.158       34.208       21.238     2319.224     1170.175      451.067        0.439        0.197       69.418       19.853        0.082      331.037       -1.206      873.120
12/26/2013  01:37:00      -43.608      -40.400        5.401       36.147       30.939       20.446     1306.577      957.197      418.040        0.312        0.134       59.446       19.672        0.110      331.049       -1.188      873.115
12/26/2013  01:38:00      -83.811      -77.727        0.420       61.816       33.202       23.211     3821.223     1102.401      538.757        0.926        0.273      114.306       28.574        0.062      331.107       -1.092      873.111
12/26/2013  01:39:00      -69.116      -65.409        5.820       55.709       37.402       30.598     3103.467     1398.930      936.239        0.726        0.272       95.160       32.807        0.119      331.174       -0.981      873.117
12/26/2013  01:40:00      -35.393      -34.209        9.625       34.817       34.433       20.228     1212.197     1185.649      409.190        0.266        0.140       49.223       13.067        0.070      331.123       -1.065      873.123
12/26/2013  01:41:00      -44.538      -31.968        3.778       31.217       23.919       20.960      974.501      572.124      439.309        0.250        0.099       54.823       12.946        0.056      331.019       -1.235      873.126
12/26/2013  01:42:00      -45.601      -30.007        5.799       31.484       24.058       20.035      991.254      578.785      401.419        0.249        0.099       54.588       19.564        0.128      331.018       -1.237      873.132
12/26/2013  01:43:00      -80.795      -43.853        1.807       32.920       22.779       15.803     1083.711      518.883      249.722        0.515        0.093       91.929       15.477        0.028      331.009       -1.252      873.133
12/26/2013  01:44:00      -93.471      -43.222       -0.322       23.110       29.161       15.934      534.075      850.374      253.882        0.612        0.082      102.980        8.673        0.007      331.040       -1.202      873.133
12/26/2013  01:45:00      -81.311      -43.259        4.629       36.331       28.897       18.649     1319.926      835.017      347.784        0.550        0.125       92.102       17.451        0.036      331.020       -1.235      873.147
12/26/2013  01:46:00      -60.229      -37.754        5.988       43.120       27.600       18.210     1859.292      761.756      331.620        0.402        0.148       71.084       19.871        0.078      331.042       -1.200      873.154
12/26/2013  01:47:00      -35.442      -29.436        5.581       38.108       21.794       16.567     1452.193      474.975      274.461        0.218        0.110       46.072       20.422        0.196      331.085       -1.127      873.166
12/26/2013  01:48:00      -48.267      -28.661        2.362       36.115       22.569       13.723     1304.317      509.370      188.330        0.258        0.100       56.135        9.409        0.028      331.041       -1.199      873.186
12/26/2013  01:49:00      -64.008      -28.262        0.615       27.843       18.951       12.017      775.242      359.151      144.413        0.309        0.064       69.970        6.640        0.009      331.032       -1.216      873.196
12/26/2013  01:50:00      -97.554      -40.223       -3.132       21.412       20.961       14.281      458.467      439.374      203.961        0.612        0.055      105.520       10.664        0.010      330.939       -1.366      873.197
12/26/2013  01:51:00      -94.550      -51.486       -2.215       23.142       22.667       14.594      535.536      513.787      212.975        0.643        0.063      107.659        9.291        0.007      330.946       -1.355      873.198
12/26/2013  01:52:00      -79.361      -39.139       -1.892       35.010       21.380       14.549     1225.687      457.107      211.683        0.486        0.095       88.488       12.688        0.021      330.972       -1.314      873.206
12/26/2013  01:53:00      -86.878      -30.749        1.361       23.948       20.129       12.606      573.519      405.191      158.912        0.482        0.057       92.159       11.591        0.016      330.953       -1.345      873.206
12/26/2013  01:54:00      -82.448      -36.205        1.144       25.608       24.455       13.320      655.787      598.029      177.425        0.477        0.072       90.047       10.845        0.015      330.893       -1.442      873.198
12/26/2013  01:55:00      -85.078      -27.429        1.214       30.852       21.826       15.126      951.873      476.373      228.792        0.482        0.083       89.391       17.211        0.037      330.883       -1.459      873.192
12/26/2013  01:56:00      -83.318      -41.018        6.085       32.496       22.580       14.884     1056.002      509.836      221.525        0.522        0.089       92.867       16.242        0.031      330.937       -1.371      873.182
12/26/2013  01:57:00      -53.321      -30.694        6.674       38.213       23.747       18.758     1460.227      563.944      351.852        0.310        0.119       61.525       15.426        0.063      330.972       -1.312      873.179
12/26/2013  01:58:00      -34.160      -24.609        5.780       31.289       24.982       15.623      979.007      624.079      244.082        0.183        0.092       42.101       11.954        0.081      330.893       -1.442      873.176
12/26/2013  01:59:00      -49.958      -36.760        1.151       36.240       27.501       18.522     1313.325      756.286      343.059        0.313        0.121       62.024       16.838        0.074      330.829       -1.547      873.172
12/26/2013  02:00:00      -46.312      -33.743        4.416       40.591       22.444       16.427     1647.651      503.722      269.851        0.286        0.121       57.300       17.067        0.089      330.764       -1.655      873.174
12/26/2013  02:01:00      -10.699      -17.274       10.338       25.799       17.869       12.266      665.597      319.291      150.450        0.083        0.057       20.319       11.849        0.340      330.822       -1.559      873.188
12/26/2013  02:02:00      -12.113      -20.117        8.060       17.732       21.421       11.564      314.409      458.842      133.718        0.076        0.045       23.482       11.291        0.231      330.812       -1.575      873.206
12/26/2013  02:03:00      -26.356      -42.656        7.432       29.459       26.903       20.402      867.841      723.778      416.250        0.229        0.100       50.141       14.875        0.088      330.733       -1.705      873.216
12/26/2013  02:04:00       -8.547      -22.305       19.045       32.157       19.296       18.761     1034.079      372.332      351.992        0.135        0.088       23.886       17.614        0.544      330.678       -1.796      873.224
12/26/2013  02:05:00      -29.937      -42.440        9.102       41.156       28.067       20.193     1693.782      787.757      407.741        0.283        0.144       51.936       21.409        0.170      330.673       -1.802      873.230
12/26/2013  02:06:00      -61.814      -59.835        2.320       35.948       38.783       19.386     1292.274     1504.123      375.817        0.529        0.159       86.030       18.852        0.048      330.715       -1.735      873.228
12/26/2013  02:07:00      -87.118      -80.867       -4.874       42.788       39.554       31.485     1830.838     1564.506      991.309        0.927        0.219      118.866       28.417        0.057      330.674       -1.801      873.214
12/26/2013  02:08:00      -89.198      -81.866       -0.990       35.882       30.056       20.393     1287.489      903.369      415.882        0.863        0.130      121.071       19.525        0.026      330.676       -1.799      873.210
12/26/2013  02:09:00      -67.131      -60.033       -0.153       33.314       35.328       16.897     1109.811     1248.097      285.513        0.538        0.132       90.058       10.941        0.015      330.720       -1.726      873.195
12/26/2013  02:10:00      -61.783      -62.979       -1.433       31.389       31.739       24.504      985.294     1007.364      600.448        0.519        0.130       88.224       19.893        0.051      330.706       -1.750      873.181
12/26/2013  02:11:00      -40.793      -57.729        9.227       28.191       31.098       17.968      794.736      967.091      322.848        0.358        0.104       70.687       10.869        0.024      330.705       -1.751      873.171
12/26/2013  02:12:00      -53.737      -69.563        0.677       28.447       32.340       20.756      809.255     1045.861      430.827        0.501        0.114       87.901       18.769        0.046      330.747       -1.682      873.174
12/26/2013  02:13:00      -94.195      -89.681       -9.521       26.363       30.416       20.937      695.012      925.116      438.367        0.953        0.103      130.059       16.122        0.015      330.659       -1.826      873.183
12/26/2013  02:14:00      -70.135      -61.920        1.816       35.774       30.585       16.946     1279.783      935.456      287.154        0.563        0.125       93.558       16.573        0.031      330.732       -1.707      873.203
12/26/2013  02:15:00      -64.876      -39.364       -3.990       36.005       17.506       11.955     1296.369      306.454      142.917        0.376        0.087       75.884       12.462        0.027      330.734       -1.704      873.212
12/26/2013  02:16:00      -74.953      -32.613       -3.521       20.272       23.542       12.155      410.968      554.224      147.734        0.390        0.056       81.741        8.175        0.010      330.718       -1.730      873.220
12/26/2013  02:17:00     -100.920      -26.238       -7.398       16.096       16.460        7.756      259.088      270.933       60.149        0.576        0.030      104.275        4.194        0.002      330.686       -1.781      873.212
12/26/2013  02:18:00      -75.717       -8.052       -9.562        8.836       14.319        9.663       78.073      205.026       93.376        0.313        0.019       76.144        7.335        0.009      330.743       -1.688      873.202
12/26/2013  02:19:00      -73.586      -22.431      -10.423       11.409        9.992        9.495      130.168       99.832       90.161        0.317        0.016       76.929        3.188        0.002      330.805       -1.588      873.202
12/26/2013  02:20:00      -78.614      -12.915       -8.208       12.508       11.878        9.535      156.448      141.080       90.919        0.340        0.019       79.668        5.849        0.005      330.746       -1.685      873.202
12/26/2013  02:21:00      -96.577       -2.304      -14.076       12.071       11.609        8.394      145.701      134.772       70.465        0.494        0.018       96.605        3.821        0.002      330.678       -1.796      873.192
12/26/2013  02:22:00      -92.101       -4.182      -13.515       10.884        8.651        9.695      118.463       74.840       93.996        0.449        0.014       92.196        6.058        0.004      330.654       -1.836      873.179
12/26/2013  02:23:00      -84.483       -6.646      -10.463       19.757        9.689       11.962      390.345       93.876      143.098        0.396        0.031       84.744       11.489        0.018      330.654       -1.836      873.172
12/26/2013  02:24:00      -87.411      -12.608      -13.729       16.619        9.714       11.041      276.181       94.357      121.910        0.424        0.025       88.316        9.023        0.010      330.657       -1.829      873.170
12/26/2013  02:25:00      -97.751      -10.589      -15.086       13.716       10.562       10.504      188.116      111.549      110.337        0.515        0.021       98.323        5.910        0.004      330.646       -1.848      873.175
12/26/2013  02:26:00      -89.098      -11.319      -12.887       12.032       11.429        9.422      144.779      130.611       88.781        0.430        0.018       89.814        5.015        0.003      330.685       -1.783      873.182
12/26/2013  02:27:00      -74.364      -12.661      -10.643       14.406       12.223        8.480      207.520      149.403       71.912        0.312        0.021       75.434        8.641        0.013      330.634       -1.867      873.191
12/26/2013  02:28:00      -54.524      -24.029      -12.420       10.278        8.017        7.817      105.629       64.271       61.110        0.197        0.012       59.584        6.325        0.011      330.570       -1.971      873.203
12/26/2013  02:29:00      -57.058      -19.196      -10.274        7.856        9.908        9.554       61.719       98.176       91.272        0.199        0.013       60.200        4.170        0.005      330.532       -2.034      873.201
12/26/2013  02:30:00      -61.050      -21.636      -14.108        7.644        7.120        5.067       58.425       50.696       25.671        0.226        0.007       64.771        2.360        0.001      330.558       -1.993      873.195
12/26/2013  02:31:00      -58.486      -27.110      -10.942       13.761        9.546        5.153      189.368       91.134       26.556        0.229        0.015       64.463        1.714        0.001      330.532       -2.035      873.193
12/26/2013  02:32:00      -71.287      -36.235       -6.761       16.406       15.053       11.898      269.156      226.588      141.568        0.354        0.032       79.967        6.403        0.006      330.464       -2.146      873.199
12/26/2013  02:33:00      -75.685      -33.091      -11.636       20.780       19.838       13.045      431.826      393.542      170.174        0.398        0.050       82.603       12.477        0.023      330.438       -2.191      873.220
12/26/2013  02:34:00     -101.857       -8.390      -20.244       14.418       10.785        8.947      207.869      116.314       80.050        0.563        0.020      102.202        3.968        0.002      330.423       -2.214      873.224
12/26/2013  02:35:00      -88.749      -13.080      -16.860       11.351       13.822       12.786      128.849      191.038      163.491        0.441        0.024       89.708        9.723        0.012      330.431       -2.199      873.223
12/26/2013  02:36:00      -81.777      -25.280      -17.708       12.062       10.670       10.867      145.491      113.844      118.085        0.401        0.019       85.595        8.615        0.010      330.431       -2.201      873.232
12/26/2013  02:37:00      -80.063      -25.253      -13.809        9.207       10.623        7.431       84.767      112.838       55.225        0.375        0.013       83.951        6.365        0.006      330.477       -2.126      873.239
12/26/2013  02:38:00      -73.822      -24.162      -10.937       13.029       10.877       11.976      169.757      118.305      143.435        0.329        0.022       77.676        7.179        0.009      330.460       -2.153      873.240
12/26/2013  02:39:00      -88.540      -19.301      -16.825        7.684        9.113        6.152       59.052       83.046       37.850        0.434        0.009       90.620        4.260        0.002      330.396       -2.257      873.247
12/26/2013  02:40:00      -84.780      -25.994      -18.298        8.549        8.438        7.083       73.083       71.199       50.168        0.420        0.010       88.675        2.986        0.001      330.423       -2.215      873.250
12/26/2013  02:41:00      -83.772      -26.513      -19.118        9.633       10.000        7.654       92.792      100.007       58.581        0.417        0.013       87.868        4.541        0.003      330.464       -2.146      873.263
12/26/2013  02:42:00      -83.107      -29.314      -13.362       13.158       13.524        9.318      173.146      182.904       86.816        0.419        0.022       88.126        5.186        0.003      330.526       -2.044      873.273
12/26/2013  02:43:00      -67.358      -34.028      -18.173       13.773       13.117       10.303      189.695      172.048      106.160        0.325        0.023       75.466        6.415        0.007      330.471       -2.138      873.274
12/26/2013  02:44:00      -87.159      -17.179       -6.536       14.696       13.416       11.919      215.975      179.993      142.056        0.424        0.027       88.836        9.792        0.012      330.470       -2.137      873.271
12/26/2013  02:45:00      -84.130      -26.227       -3.782       19.978       16.393       13.128      399.101      268.736      172.350        0.431        0.042       88.123       10.988        0.016      330.402       -2.250      873.277
12/26/2013  02:46:00      -64.379      -30.195       -7.308       15.257       16.658        9.869      232.777      277.477       97.402        0.286        0.030       71.109        4.863        0.005      330.431       -2.201      873.288
12/26/2013  02:47:00      -73.366      -25.754       -5.948       20.318       14.045       10.292      412.813      197.251      105.919        0.340        0.036       77.755        6.200        0.006      330.437       -2.192      873.299
12/26/2013  02:48:00      -82.054      -26.816      -13.533       16.878       14.630        8.930      284.852      214.032       79.749        0.411        0.029       86.325        8.900        0.011      330.458       -2.156      873.312
12/26/2013  02:49:00      -89.906      -29.257      -16.562       19.319       17.627       12.246      373.208      310.707      149.953        0.502        0.042       94.546        8.361        0.008      330.463       -2.147      873.304
12/26/2013  02:50:00      -86.616      -37.005      -14.848       12.740       16.183       14.638      162.296      261.904      214.268        0.487        0.032       94.190        9.001        0.009      330.413       -2.232      873.295
12/26/2013  02:51:00      -90.799      -43.899      -14.297        9.138        9.529        7.094       83.497       90.810       50.326        0.530        0.011      100.854        4.464        0.002      330.437       -2.192      873.286
12/26/2013  02:52:00     -107.571      -21.931      -14.881       13.985       14.473       12.451      195.571      209.471      155.018        0.642        0.028      109.784       10.138        0.009      330.409       -2.237      873.282
12/26/2013  02:53:00     -100.298      -31.154       -9.339       23.416       14.921       13.117      548.311      222.623      172.053        0.603        0.047      105.025       13.755        0.017      330.466       -2.143      873.290
12/26/2013  02:54:00     -100.256      -23.502      -12.569       17.815       12.526       10.647      317.365      156.909      113.364        0.567        0.029      102.974        6.712        0.004      330.432       -2.198      873.300
12/26/2013  02:55:00      -83.339      -47.376       -4.685       15.130       22.188       10.849      228.924      492.287      117.711        0.503        0.042       95.864        7.575        0.006      330.468       -2.139      873.305
12/26/2013  02:56:00      -97.558      -38.347      -13.819       14.969       19.233        9.439      224.077      369.910       89.096        0.593        0.034      104.824        3.558        0.001      330.509       -2.072      873.313
12/26/2013  02:57:00      -96.511      -37.785      -14.277       12.753       12.380       10.506      162.631      153.268      110.383        0.569        0.021      103.644        8.492        0.007      330.492       -2.100      873.318
12/26/2013  02:58:00      -94.742      -13.825       -5.092       15.735       18.273       12.498      247.588      333.895      156.194        0.497        0.037       95.745        8.447        0.008      330.535       -2.031      873.315
12/26/2013  02:59:00      -88.914      -45.074       -8.849        9.137       10.467        8.070       83.491      109.554       65.129        0.514        0.013       99.686        4.911        0.002      330.526       -2.044      873.322
12/26/2013  03:00:00      -63.133      -35.634       -6.866       13.725       12.734        9.116      188.382      162.151       83.097        0.287        0.022       72.496        7.045        0.009      330.522       -2.051      873.336
12/26/2013  03:01:00      -46.429      -25.694       -4.465       12.313        9.779        7.241      151.609       95.622       52.428        0.157        0.015       53.064        3.404        0.004      330.558       -1.991      873.350
12/26/2013  03:02:00      -34.638      -25.574        1.060       21.908       16.174       11.997      479.978      261.583      143.923        0.137        0.044       43.056       13.157        0.093      330.535       -2.030      873.361
12/26/2013  03:03:00      -58.341      -35.239        1.688       24.239       18.277       15.279      587.519      334.032      233.448        0.290        0.058       68.158       14.739        0.047      330.417       -2.222      873.370
12/26/2013  03:04:00      -41.709      -24.418        3.290       31.210       15.744       13.956      974.048      247.885      194.759        0.188        0.071       48.331        9.528        0.039      330.441       -2.183      873.377
12/26/2013  03:05:00      -52.970      -26.187       -4.192       17.582        9.759       11.713      309.115       95.240      137.190        0.203        0.027       59.090       10.097        0.029      330.399       -2.254      873.380
12/26/2013  03:06:00      -67.728      -36.566       -5.185       13.407       12.106        9.785      179.740      146.563       95.756        0.319        0.021       76.968        7.355        0.009      330.431       -2.201      873.380
12/26/2013  03:07:00      -63.805      -38.638       -3.623       24.879       21.217        9.463      618.958      450.159       89.546        0.337        0.058       74.592       11.506        0.024      330.458       -2.156      873.383
12/26/2013  03:08:00      -95.543      -45.865       -1.119       25.345       15.537       14.436      642.386      241.408      208.396        0.616        0.055      105.982       12.504        0.014      330.401       -2.251      873.389
12/26/2013  03:09:00      -71.414      -31.085       -2.843       38.022       20.464       20.202     1445.704      418.795      408.119        0.417        0.114       77.886       19.317        0.062      330.424       -2.212      873.395
12/26/2013  03:10:00      -78.523      -48.191       -2.849       26.334       13.892       13.616      693.475      192.982      185.404        0.478        0.054       92.131        9.272        0.010      330.410       -2.236      873.398
12/26/2013  03:11:00      -73.580      -33.906       -7.517       18.273       19.059        9.592      333.891      363.247       92.014        0.370        0.039       81.016        6.911        0.007      330.396       -2.259      873.410
12/26/2013  03:12:00      -31.873      -15.303        4.887       27.577       19.867       16.580      760.500      394.705      274.903        0.135        0.072       35.357       16.459        0.217      330.362       -2.313      873.417
12/26/2013  03:13:00      -66.953      -27.680       -3.060       33.567       20.834       18.504     1126.735      434.048      342.384        0.358        0.095       72.449       19.448        0.072      330.400       -2.250      873.429
12/26/2013  03:14:00      -52.144      -34.145        2.697       28.781       14.211       13.063      828.318      201.945      170.637        0.255        0.060       62.329       14.999        0.058      330.395       -2.260      873.449
12/26/2013  03:15:00      -63.618      -29.461        2.198       33.858       26.262       16.827     1146.346      689.684      283.163        0.352        0.106       70.109       16.768        0.057      330.430       -2.203      873.465
12/26/2013  03:16:00      -75.441      -16.536       -0.128       21.292       17.772       13.556      453.355      315.851      183.752        0.346        0.048       77.232       14.149        0.034      330.400       -2.251      873.478
12/26/2013  03:17:00      -58.685      -10.991       -4.925       20.962       14.174       13.735      439.392      200.889      188.656        0.221        0.041       59.705       14.428        0.058      330.432       -2.200      873.492
12/26/2013  03:18:00      -74.606       -9.515       -2.024       21.707       13.536       11.615      471.190      183.236      134.901        0.322        0.039       75.210        8.943        0.014      330.417       -2.225      873.503
12/26/2013  03:19:00      -72.961      -13.073       -5.884       17.271       13.754       11.904      298.294      189.184      141.706        0.308        0.031       74.122       10.967        0.022      330.459       -2.154      873.494
12/26/2013  03:20:00      -79.110      -14.575       -0.883       21.075       13.776       11.831      444.151      189.780      139.973        0.362        0.039       80.441       11.473        0.020      330.390       -2.268      873.486
12/26/2013  03:21:00      -86.719      -30.377       -0.783       16.009       16.792       12.158      256.290      281.957      147.823        0.456        0.034       91.886        6.675        0.005      330.426       -2.209      873.469
12/26/2013  03:22:00      -80.657      -30.032        2.029       19.886       16.857       12.567      395.463      284.171      157.940        0.412        0.042       86.067       10.341        0.014      330.403       -2.247      873.451
12/26/2013  03:23:00      -89.541      -22.368       -3.034       21.849       18.368       11.400      477.379      337.368      129.969        0.474        0.047       92.293       10.567        0.013      330.376       -2.291      873.439
12/26/2013  03:24:00     -105.251      -22.630       -1.886       27.161       14.504       13.862      737.723      210.371      192.156        0.637        0.057      107.657       14.773        0.019      330.333       -2.361      873.433
12/26/2013  03:25:00      -92.459      -27.832       -1.791       20.721       19.329       13.345      429.374      373.598      178.099        0.515        0.049       96.557       10.992        0.013      330.399       -2.255      873.429
12/26/2013  03:26:00     -110.900      -24.621       -6.601       13.433       14.609        9.589      180.446      213.423       91.958        0.672        0.024      113.600        7.320        0.004      330.391       -2.268      873.438
12/26/2013  03:27:00     -102.219      -23.054       -6.573       17.350       12.110        9.933      301.032      146.653       98.665        0.578        0.027      104.786        5.968        0.003      330.371       -2.300      873.443
12/26/2013  03:28:00      -72.222      -15.154       -3.549       19.325       16.586       13.914      373.444      275.089      193.610        0.315        0.042       73.795       11.778        0.025      330.318       -2.385      873.446
12/26/2013  03:29:00      -79.304      -24.190       -2.678       16.770       17.423       10.002      281.240      303.556      100.042        0.378        0.034       82.911        9.731        0.014      330.362       -2.313      873.445
12/26/2013  03:30:00      -99.407      -14.347       -5.456       16.124       12.735       10.664      259.999      162.178      113.724        0.533        0.027      100.437        8.171        0.007      330.312       -2.396      873.449
12/26/2013  03:31:00      -77.618      -18.109       -6.627       19.888       15.989       12.733      395.542      255.644      162.123        0.360        0.041       79.702       10.929        0.019      330.326       -2.373      873.437
12/26/2013  03:32:00      -64.400      -18.147       -1.913       21.744       18.602       13.570      472.791      346.026      184.140        0.274        0.050       66.908        9.519        0.020      330.310       -2.397      873.429
12/26/2013  03:33:00      -83.208      -27.098       -8.390       16.437       16.836       11.262      270.169      283.464      126.839        0.420        0.034       87.510        8.271        0.009      330.315       -2.390      873.412
12/26/2013  03:34:00      -99.537      -31.389      -15.297       11.443       13.917        8.484      130.938      193.675       71.979        0.576        0.020      104.369        3.042        0.001      330.257       -2.485      873.406
12/26/2013  03:35:00     -104.627      -19.085      -15.244       14.631       12.034        9.997      214.072      144.824       99.938        0.600        0.023      106.353        5.294        0.002      330.213       -2.558      873.406
12/26/2013  03:36:00      -87.079      -24.236      -10.315       14.606       13.629       10.024      213.343      185.747      100.487        0.439        0.025       90.389        6.537        0.005      330.179       -2.614      873.413
12/26/2013  03:37:00      -76.356      -18.344       -8.797       18.998       15.079       10.979      360.920      227.362      120.543        0.348        0.035       78.529        7.425        0.009      330.226       -2.536      873.425
12/26/2013  03:38:00      -95.130      -17.112      -14.177       14.601       16.305       10.485      213.192      265.861      109.944        0.507        0.029       96.657        7.513        0.006      330.182       -2.608      873.429
12/26/2013  03:39:00      -70.284      -18.248       -4.571       23.052       16.650       12.423      531.373      277.224      154.321        0.313        0.048       72.615       12.396        0.029      330.218       -2.549      873.427
12/26/2013  03:40:00      -83.107      -20.183       -8.183       15.847       11.303       11.735      251.134      127.768      137.711        0.395        0.026       85.523       10.067        0.014      330.229       -2.531      873.408
12/26/2013  03:41:00      -71.999      -30.613       -4.649       16.795       14.113        9.314      282.055      199.182       86.754        0.336        0.028       78.237        9.559        0.015      330.276       -2.453      873.389
12/26/2013  03:42:00      -99.005      -20.665       -8.371       16.536       11.329       11.198      273.438      128.341      125.406        0.541        0.026      101.138       10.229        0.010      330.260       -2.481      873.377
12/26/2013  03:43:00      -86.762      -32.063       -6.947       14.360       13.598        7.986      206.198      184.897       63.771        0.453        0.023       92.497        4.495        0.002      330.306       -2.406      873.374
12/26/2013  03:44:00      -81.563      -29.416       -5.394        9.876       13.771        8.581       97.540      189.645       73.631        0.395        0.018       86.706        5.170        0.004      330.351       -2.330      873.378
12/26/2013  03:45:00      -70.638      -38.151       -3.627       13.946       14.719        7.590      194.479      216.648       57.610        0.346        0.023       80.282        7.428        0.009      330.356       -2.324      873.388
12/26/2013  03:46:00      -66.990      -28.512       -8.436       11.390        9.591        9.125      129.733       91.992       83.260        0.284        0.015       72.805        6.855        0.009      330.331       -2.364      873.396
12/26/2013  03:47:00      -62.224      -34.880        1.452       17.883       12.264       10.002      319.801      150.402      100.039        0.283        0.029       71.333        8.597        0.015      330.316       -2.388      873.400
12/26/2013  03:48:00      -30.014      -22.417        7.063       27.552       18.318       14.786      759.139      335.555      218.620        0.138        0.066       37.461       16.090        0.184      330.331       -2.365      873.399
12/26/2013  03:49:00      -32.675      -15.593        1.860       20.269       12.340       12.506      410.844      152.281      156.407        0.102        0.036       36.205       12.813        0.125      330.368       -2.305      873.409
12/26/2013  03:50:00      -57.118      -11.732       -3.508       10.535       10.454        7.067      110.995      109.289       49.941        0.184        0.014       58.310        3.216        0.003      330.433       -2.199      873.415
12/26/2013  03:51:00      -66.382      -12.718       -3.921       18.947       12.117        9.972      358.975      146.816       99.443        0.259        0.030       67.589        6.947        0.011      330.398       -2.255      873.413
12/26/2013  03:52:00      -83.298      -18.744       -5.093       13.043       11.652        9.227      170.112      135.765       85.146        0.385        0.020       85.381        6.021        0.005      330.385       -2.275      873.403
12/26/2013  03:53:00      -77.868      -12.752       -3.947       13.983       12.278        9.652      195.530      150.756       93.154        0.334        0.022       78.905        7.244        0.008      330.367       -2.307      873.395
12/26/2013  03:54:00      -81.866       -9.679       -9.928       18.613       10.643        7.772      346.454      113.275       60.400        0.371        0.026       82.436        5.211        0.004      330.325       -2.373      873.385
12/26/2013  03:55:00      -70.511      -10.132       -3.351       17.536       11.118        9.609      307.511      123.621       92.327        0.280        0.026       71.235        8.369        0.014      330.302       -2.411      873.371
12/26/2013  03:56:00      -46.917      -14.013       -2.683       16.400       12.165       10.479      268.951      147.982      109.811        0.147        0.026       48.965       10.527        0.046      330.327       -2.372      873.370
12/26/2013  03:57:00      -65.870        0.230       -7.242        9.347        7.879        8.448       87.374       62.076       71.364        0.231        0.011       65.870        5.818        0.008      330.333       -2.362      873.373
12/26/2013  03:58:00      -49.871       -0.673       -5.240       16.556       10.069        8.846      274.116      101.388       78.256        0.148        0.023       49.876        6.987        0.020      330.362       -2.314      873.375
12/26/2013  03:59:00      -36.285       -7.201       -0.802       13.580       11.023        8.469      184.420      121.505       71.725        0.087        0.019       36.993        7.591        0.042      330.384       -2.278      873.373
12/26/2013  04:00:00      -42.228       -9.623       -3.447        9.237       11.284        6.880       85.321      127.326       47.331        0.107        0.013       43.311        3.884        0.008      330.357       -2.322      873.368
12/26/2013  04:01:00      -43.723      -26.253       -5.683        9.838        8.595        7.974       96.794       73.878       63.590        0.143        0.012       50.999        4.918        0.009      330.370       -2.302      873.367
12/26/2013  04:02:00      -29.904      -21.508       -4.068       13.558        7.958       10.378      183.811       63.337      107.707        0.086        0.018       36.835        6.142        0.028      330.374       -2.294      873.363
12/26/2013  04:03:00      -37.598      -18.922       -6.497        8.984       10.682        6.586       80.716      114.104       43.377        0.103        0.012       42.091        3.182        0.006      330.332       -2.361      873.365
12/26/2013  04:04:00      -39.854      -15.204       -8.926        8.020        8.296        8.026       64.327       68.828       64.422        0.105        0.010       42.655        2.354        0.003      330.302       -2.412      873.371
12/26/2013  04:05:00      -18.470       -9.706       -7.273        7.974        6.840        5.669       63.584       46.789       32.136        0.032        0.007       20.865        3.306        0.025      330.302       -2.411      873.372
12/26/2013  04:06:00       -8.880       -2.211       -5.414       10.353        3.826        4.561      107.181       14.636       20.804        0.013        0.007        9.151        3.688        0.162      330.294       -2.425      873.374
12/26/2013  04:07:00       -5.996       -6.580       -3.517        6.728        6.433        4.138       45.263       41.380       17.124        0.010        0.005        8.902        3.271        0.135      330.395       -2.260      873.373
12/26/2013  04:08:00      -14.514      -13.758        0.992       11.895        7.629        6.999      141.480       58.199       48.993        0.032        0.012       19.998        7.284        0.133      330.301       -2.414      873.367
12/26/2013  04:09:00      -48.094      -12.827       -7.385        8.077        8.084        5.562       65.243       65.346       30.936        0.135        0.008       49.775        1.426        0.001      330.080       -2.778      873.352
12/26/2013  04:10:00      -54.051      -13.170       -7.330        9.192        8.550        6.278       84.501       73.095       39.408        0.167        0.010       55.633        4.467        0.006      330.075       -2.785      873.338
12/26/2013  04:11:00      -54.130      -19.768       -7.571        9.117        7.172        6.952       83.129       51.439       48.335        0.178        0.009       57.626        4.741        0.007      330.069       -2.796      873.328
12/26/2013  04:12:00      -73.498      -14.848      -10.300        9.922       10.897        6.486       98.440      118.739       42.073        0.299        0.013       74.983        3.559        0.002      330.049       -2.828      873.320
12/26/2013  04:13:00      -79.433      -25.077      -11.351        7.847        9.829        7.487       61.574       96.602       56.050        0.364        0.011       83.297        2.655        0.001      330.085       -2.768      873.315
12/26/2013  04:14:00      -83.887      -11.351      -10.035       13.042       11.035        9.455      170.087      121.774       89.399        0.382        0.019       84.652        5.933        0.005      329.984       -2.935      873.310
12/26/2013  04:15:00      -80.138      -11.321      -12.226       17.318        9.532        9.374      299.909       90.856       87.874        0.359        0.024       80.934        9.224        0.013      330.008       -2.893      873.317
12/26/2013  04:16:00      -70.431       -3.319       -7.240       24.271       11.753       10.218      589.060      138.124      104.415        0.293        0.042       70.509       10.680        0.023      330.000       -2.907      873.324
12/26/2013  04:17:00      -96.994       -7.353      -13.004        9.067        8.575        7.660       82.204       73.536       58.680        0.492        0.011       97.273        4.627        0.002      330.040       -2.841      873.329
12/26/2013  04:18:00      -77.383       -5.472       -6.071       18.552       14.346       11.987      344.167      205.814      143.689        0.337        0.035       77.576       10.466        0.018      330.038       -2.844      873.329
12/26/2013  04:19:00      -76.157      -12.857       -4.902       20.206       12.956       12.082      408.274      167.864      145.964        0.336        0.036       77.234       11.082        0.021      330.054       -2.820      873.325
12/26/2013  04:20:00      -74.980      -26.179       -3.294       15.577       15.908       10.238      242.655      253.072      104.813        0.346        0.030       79.419        8.610        0.012      330.089       -2.761      873.325
12/26/2013  04:21:00      -64.523      -20.518       -1.751       24.424       16.016       12.533      596.526      256.514      157.076        0.280        0.051       67.707       12.802        0.036      330.073       -2.788      873.314
12/26/2013  04:22:00      -55.369      -21.405       -0.635       20.498       13.555        9.923      420.158      183.749       98.469        0.211        0.035       59.362        9.290        0.024      330.052       -2.821      873.299
12/26/2013  04:23:00      -50.662      -17.392        0.779       18.897       16.693        8.544      357.100      278.662       73.006        0.179        0.035       53.564        7.031        0.017      330.097       -2.748      873.292
12/26/2013  04:24:00      -28.674      -17.772        1.819       15.368       14.272        9.549      236.179      203.680       91.178        0.084        0.027       33.735        8.323        0.061      330.136       -2.684      873.283
12/26/2013  04:25:00      -48.621       -8.041       -1.330       12.901        8.657        6.386      166.427       74.943       40.784        0.136        0.014       49.281        4.254        0.007      330.185       -2.606      873.274
12/26/2013  04:26:00      -48.047       -9.951       -0.651       16.944       10.699        6.632      287.088      114.463       43.982        0.143        0.022       49.067        3.487        0.005      330.171       -2.628      873.268
12/26/2013  04:27:00      -41.874      -17.617        0.256       15.445       12.641       10.680      238.537      159.796      114.069        0.129        0.026       45.429        8.868        0.038      330.148       -2.664      873.262
12/26/2013  04:28:00      -68.033      -14.096       -1.586       13.566        9.719        6.697      184.049       94.463       44.855        0.258        0.016       69.478        3.494        0.003      330.102       -2.740      873.268
12/26/2013  04:29:00      -43.622      -36.170       -0.822       14.314       17.463       11.700      204.881      304.953      136.880        0.193        0.032       56.667        9.818        0.030      330.042       -2.839      873.272
12/26/2013  04:30:00      -55.714      -26.751       -2.513        9.614       10.840        8.031       92.436      117.514       64.503        0.205        0.014       61.804        3.889        0.004      330.039       -2.845      873.283
12/26/2013  04:31:00      -52.968      -26.124       -8.027       10.173        8.598        9.003      103.488       73.917       81.055        0.191        0.013       59.060        5.589        0.009      330.028       -2.859      873.286
12/26/2013  04:32:00      -58.552      -19.610       -3.984       12.056       10.483        7.694      145.345      109.884       59.195        0.207        0.016       61.748        4.053        0.004      330.005       -2.901      873.288
12/26/2013  04:33:00      -56.485      -33.748       -4.427       24.848       11.450       12.142      617.408      131.094      147.424        0.262        0.045       65.799       10.208        0.024      329.968       -2.959      873.292
12/26/2013  04:34:00      -63.969      -35.529       -5.617       15.641       13.423        9.738      244.638      180.170       94.836        0.295        0.026       73.174        4.578        0.004      329.906       -3.060      873.287
12/26/2013  04:35:00      -56.998      -36.446        1.734       20.192       20.673       11.867      407.734      427.367      140.830        0.278        0.049       67.654       10.968        0.026      329.916       -3.045      873.284
12/26/2013  04:36:00      -46.307      -30.172        4.171       32.580       19.960       15.959     1061.435      398.413      254.676        0.239        0.086       55.269       17.417        0.099      329.990       -2.923      873.282
12/26/2013  04:37:00      -46.201      -39.872        0.884       23.925       15.754       12.572      572.419      248.188      158.055        0.235        0.049       61.027       12.405        0.041      330.032       -2.854      873.281
12/26/2013  04:38:00      -73.417      -34.175       -0.391       22.834       14.827       13.571      521.370      219.854      184.164        0.374        0.046       80.982       10.540        0.017      329.948       -2.994      873.288
12/26/2013  04:39:00      -67.517      -23.682       -3.180       14.766       14.469       11.291      218.039      209.365      127.491        0.284        0.028       71.549        6.930        0.009      329.955       -2.982      873.299
12/26/2013  04:40:00      -56.178      -19.300       -3.905       15.190       11.425        9.793      230.733      130.533       95.913        0.200        0.023       59.401        9.273        0.024      329.941       -3.003      873.304
12/26/2013  04:41:00      -58.034      -12.955       -1.242       13.100       13.469        7.888      171.599      181.423       62.228        0.198        0.021       59.463        6.100        0.011      329.991       -2.923      873.296
12/26/2013  04:42:00      -63.826      -33.585       -1.251       19.583       15.858       11.387      383.497      251.480      129.674        0.298        0.038       72.123        9.111        0.016      329.987       -2.929      873.285
12/26/2013  04:43:00      -70.461      -32.871       -1.155       23.486       12.706       13.947      551.607      161.452      194.521        0.348        0.045       77.752       14.806        0.036      329.991       -2.922      873.263
12/26/2013  04:44:00      -60.921      -42.272       -0.414       34.932       16.764       15.067     1220.263      281.031      227.006        0.361        0.086       74.151       16.346        0.049      329.959       -2.974      873.244
12/26/2013  04:45:00      -46.207      -33.361       -1.829       41.079       23.289       15.039     1687.486      542.373      226.168        0.285        0.123       56.991       16.737        0.086      329.935       -3.013      873.225
12/26/2013  04:46:00      -67.109      -41.762       -1.303       36.267       25.128       16.711     1315.292      631.400      279.251        0.424        0.111       79.042       13.137        0.028      329.913       -3.050      873.211
12/26/2013  04:47:00      -73.648      -54.618        3.431       30.206       22.342       18.339      912.430      499.151      336.320        0.508        0.087       91.690       17.682        0.037      329.943       -2.999      873.206
12/26/2013  04:48:00      -62.525      -55.488        3.703       38.133       24.610       21.173     1454.122      605.637      448.286        0.475        0.125       83.596       12.639        0.023      329.969       -2.958      873.201
12/26/2013  04:49:00      -61.675      -37.369        7.764       32.153       30.755       19.098     1033.838      945.859      364.734        0.380        0.117       72.113       17.265        0.057      329.935       -3.014      873.207
12/26/2013  04:50:00      -46.370      -36.384       -0.550       32.517       35.535       19.309     1057.327     1262.728      372.849        0.308        0.135       58.941       21.913        0.138      329.969       -2.959      873.213
12/26/2013  04:51:00      -38.805      -19.369        3.861       20.166       15.577       12.844      406.681      242.637      164.978        0.135        0.041       43.371        8.705        0.040      329.915       -3.046      873.218
12/26/2013  04:52:00      -51.227      -20.661       -6.291       20.558       14.851        9.333      422.633      220.565       87.102        0.191        0.037       55.236        9.413        0.029      329.930       -3.021      873.218
12/26/2013  04:53:00      -63.180      -12.714        0.754       27.538       14.623       11.069      758.345      213.833      122.520        0.262        0.055       64.446       14.657        0.052      329.893       -3.083      873.215
12/26/2013  04:54:00      -66.459      -16.235        1.296       26.590       19.981       12.705      707.028      399.253      161.426        0.297        0.063       68.413        8.298        0.015      329.837       -3.175      873.211
12/26/2013  04:55:00      -64.830       -7.823        0.313       31.407       17.655       15.763      986.422      311.686      248.486        0.291        0.077       65.300       15.538        0.057      329.758       -3.302      873.209
12/26/2013  04:56:00      -68.633      -12.878       -2.715       28.903       21.102       14.963      835.393      445.307      223.889        0.319        0.075       69.831       16.315        0.055      329.707       -3.385      873.207
12/26/2013  04:57:00      -63.789       -7.370        5.067       31.471       22.647       19.634      990.412      512.892      385.489        0.302        0.094       64.213       18.512        0.083      329.675       -3.439      873.208
12/26/2013  04:58:00      -58.816       -8.701        6.150       24.081       21.936       14.371      579.878      481.185      206.521        0.242        0.063       59.456       12.269        0.043      329.708       -3.384      873.210
12/26/2013  04:59:00      -54.417       -5.925       -2.756       20.821       17.277       11.355      433.517      298.501      128.937        0.193        0.043       54.739        8.546        0.024      329.718       -3.369      873.207
12/26/2013  05:00:00      -78.834      -28.371       -0.328       33.646       14.997       14.726     1132.035      224.912      216.844        0.430        0.079       83.784       18.035        0.046      329.700       -3.398      873.198
12/26/2013  05:01:00      -88.077      -34.846        1.551       21.263       23.564       12.826      452.136      555.279      164.494        0.507        0.059       94.719        8.643        0.008      329.767       -3.288      873.201
12/26/2013  05:02:00      -62.832      -28.037        3.300       28.442       25.100       13.654      808.974      630.002      186.420        0.318        0.081       68.804       12.904        0.035      329.750       -3.316      873.200
12/26/2013  05:03:00      -84.660      -38.620        0.634       23.669       24.426       17.913      560.203      596.623      320.871        0.507        0.074       93.053       13.701        0.022      329.759       -3.301      873.197
12/26/2013  05:04:00      -50.023      -37.502        4.330       32.093       22.968       17.858     1029.929      527.536      318.902        0.290        0.094       62.520       18.110        0.084      329.861       -3.136      873.188
12/26/2013  05:05:00      -62.134      -49.296        4.469       33.797       21.532       18.390     1142.247      463.633      338.186        0.413        0.097       79.314       16.365        0.043      329.863       -3.131      873.184
12/26/2013  05:06:00      -63.019      -48.511        1.943       35.557       20.393       17.445     1264.286      415.867      304.324        0.416        0.099       79.528       17.722        0.050      329.860       -3.137      873.177
12/26/2013  05:07:00      -90.201      -45.058       -3.440       21.211       20.465       14.599      449.910      418.798      213.121        0.563        0.054      100.829        9.363        0.009      329.825       -3.192      873.163
12/26/2013  05:08:00      -76.675      -37.200       -2.649       21.665       24.504       12.454      469.380      600.456      155.105        0.425        0.061       85.223        9.544        0.013      329.885       -3.096      873.151
12/26/2013  05:09:00      -77.907      -37.575      -11.271       15.848       17.187        9.592      251.157      295.403       91.998        0.412        0.032       86.495        7.191        0.007      329.902       -3.067      873.135
12/26/2013  05:10:00      -64.235      -15.954       -0.043       22.832       21.248       11.527      521.319      451.483      132.882        0.274        0.055       66.186       10.736        0.026      329.834       -3.180      873.128
12/26/2013  05:11:00      -41.452       -5.318        2.695       25.200       18.990       13.291      635.022      360.637      176.662        0.146        0.059       41.792       12.706        0.092      329.776       -3.273      873.136
12/26/2013  05:12:00      -72.977      -13.058        1.880       24.238       13.609       13.748      587.458      185.202      189.012        0.323        0.048       74.136       13.725        0.034      329.713       -3.377      873.140
12/26/2013  05:13:00      -64.879       -4.481        0.502       19.698       16.849       11.860      388.019      283.879      140.667        0.252        0.041       65.033       11.217        0.030      329.676       -3.437      873.135
12/26/2013  05:14:00      -64.459       -7.445        0.005       24.502       17.645       12.082      600.346      311.350      145.987        0.263        0.053       64.888       12.788        0.039      329.679       -3.432      873.130
12/26/2013  05:15:00      -62.141       -6.334       -3.180       23.486       18.306       13.519      551.582      335.097      182.756        0.249        0.053       62.463       11.364        0.033      329.658       -3.468      873.124
12/26/2013  05:16:00      -61.749      -21.888       -1.136       27.937       17.529       12.416      780.488      307.279      154.147        0.277        0.062       65.513        6.928        0.011      329.709       -3.383      873.121
12/26/2013  05:17:00      -66.050      -27.501       -2.337       19.988       17.350       10.932      399.539      301.017      119.511        0.297        0.041       71.546        7.816        0.012      329.683       -3.426      873.115
12/26/2013  05:18:00      -42.303      -30.761        3.447       22.419       22.993       14.449      502.597      528.664      208.783        0.199        0.062       52.305       13.567        0.067      329.689       -3.415      873.116
12/26/2013  05:19:00      -58.466      -30.962        0.664       24.235       17.603       11.786      587.318      309.850      138.918        0.271        0.052       66.158       11.245        0.029      329.625       -3.520      873.125
12/26/2013  05:20:00      -71.758      -27.294       -6.028       16.832       13.691       13.722      283.312      187.432      188.285        0.329        0.033       76.773        2.621        0.001      329.642       -3.493      873.118
12/26/2013  05:21:00      -72.834      -20.696      -12.953       25.221       14.402       10.254      636.122      207.408      105.141        0.342        0.047       75.718        8.623        0.013      329.662       -3.461      873.110
12/26/2013  05:22:00      -55.351      -14.043       -0.839       24.076       20.548       16.114      579.648      422.209      259.659        0.226        0.063       57.105       16.069        0.079      329.638       -3.500      873.102
12/26/2013  05:23:00      -66.114      -28.151        4.534       28.817       16.770       15.224      830.409      281.221      231.784        0.326        0.067       71.858       13.945        0.038      329.683       -3.426      873.099
12/26/2013  05:24:00      -41.428      -44.866        2.159       34.645       17.935       13.776     1200.278      321.656      189.782        0.272        0.086       61.067       13.355        0.048      329.748       -3.320      873.092
12/26/2013  05:25:00      -27.112      -38.717       14.155       34.839       19.746       22.125     1213.772      389.919      489.507        0.226        0.105       47.266       22.941        0.236      329.702       -3.394      873.087
12/26/2013  05:26:00      -40.871      -34.431        1.294       37.213       16.989       14.932     1384.771      288.635      222.975        0.238        0.095       53.441       15.600        0.085      329.719       -3.367      873.092
12/26/2013  05:27:00      -41.197      -36.225       -0.859       34.655       19.435       12.309     1200.972      377.720      151.524        0.237        0.087       54.858       13.953        0.065      329.744       -3.326      873.099
12/26/2013  05:28:00      -88.231      -35.804       -5.188       15.165       17.026       10.118      229.992      289.885      102.370        0.486        0.031       95.219        7.122        0.006      329.716       -3.373      873.101
12/26/2013  05:29:00      -75.810      -41.683        1.440       20.336       20.537       13.200      413.556      421.769      174.248        0.425        0.050       86.514        9.048        0.011      329.731       -3.347      873.102
12/26/2013  05:30:00      -66.384      -29.311        1.027       32.760       22.486       14.865     1073.230      505.614      220.978        0.353        0.090       72.567       19.089        0.069      329.740       -3.334      873.100
12/26/2013  05:31:00      -67.222      -29.345        0.057       20.531       23.671       13.221      421.530      560.307      174.795        0.327        0.058       73.348        9.724        0.018      329.764       -3.294      873.085
12/26/2013  05:32:00      -48.605      -19.629        2.752       23.423       16.547       14.048      548.650      273.812      197.336        0.189        0.051       52.418       10.664        0.041      329.723       -3.361      873.082
12/26/2013  05:33:00      -73.006      -24.518       -6.241       23.944       19.280       12.204      573.294      371.722      148.929        0.353        0.055       77.013       12.375        0.026      329.677       -3.436      873.081
12/26/2013  05:34:00      -69.002      -13.036       -0.972       25.261       16.907       14.507      638.119      285.857      210.465        0.303        0.057       70.222       11.560        0.027      329.663       -3.458      873.072
12/26/2013  05:35:00      -43.140      -10.637        3.164       27.891       16.674       12.914      777.934      278.027      166.782        0.160        0.061       44.432       12.887        0.084      329.596       -3.569      873.059
12/26/2013  05:36:00      -80.858      -13.086        0.592       26.522       18.122       13.156      703.412      328.394      173.068        0.396        0.060       81.910       13.887        0.029      329.609       -3.547      873.036
12/26/2013  05:37:00      -79.645      -28.677        3.090       25.386       20.505       16.822      644.467      420.463      282.970        0.426        0.067       84.651       14.318        0.029      329.702       -3.394      873.036
12/26/2013  05:38:00      -87.266      -49.279       -1.779       28.140       23.648       14.428      791.859      559.251      208.153        0.580        0.078      100.219       12.373        0.015      329.753       -3.311      873.038
12/26/2013  05:39:00      -80.319      -33.538        1.158       25.117       27.960       16.451      630.858      781.777      270.646        0.463        0.084       87.040       14.503        0.028      329.720       -3.364      873.043
12/26/2013  05:40:00      -85.251      -29.443       -2.937       22.319       20.302       13.939      498.152      412.154      194.295        0.462        0.055       90.192       11.254        0.016      329.732       -3.345      873.053
12/26/2013  05:41:00      -94.588      -40.476       -4.379       19.564       17.643       14.755      382.737      311.270      217.711        0.576        0.046      102.885        7.477        0.005      329.746       -3.322      873.060
12/26/2013  05:42:00     -100.588      -49.354       -7.391       18.909       14.385       12.183      357.546      206.915      148.433        0.666        0.036      112.044        3.530        0.001      329.708       -3.385      873.073
12/26/2013  05:43:00      -69.008      -33.194        1.270       29.682       26.180       16.720      881.014      685.403      279.572        0.386        0.092       76.576       16.147        0.044      329.695       -3.405      873.073
12/26/2013  05:44:00      -34.595      -17.681       10.433       31.014       27.265       15.022      961.874      743.400      225.668        0.177        0.097       38.851       14.302        0.136      329.605       -3.553      873.078
12/26/2013  05:45:00      -71.550      -10.635        4.352       30.880       19.898       17.163      953.547      395.911      294.577        0.345        0.082       72.336       16.436        0.052      329.461       -3.789      873.097
12/26/2013  05:46:00      -79.760      -12.922        1.808       31.085       24.362       17.128      966.262      593.492      293.358        0.419        0.093       80.800       17.596        0.047      329.458       -3.794      873.114
12/26/2013  05:47:00     -102.940      -12.346       -3.712       29.263       16.612       14.938      856.323      275.968      223.146        0.606        0.068      103.678       14.571        0.020      329.438       -3.827      873.122
12/26/2013  05:48:00     -104.538      -28.009       -0.708       22.955       18.716       14.239      526.916      350.275      202.744        0.640        0.054      108.225       12.567        0.013      329.496       -3.732      873.122
12/26/2013  05:49:00      -93.059      -17.128       -4.867       24.857       17.091       14.770      617.869      292.087      218.150        0.505        0.056       94.622       13.291        0.020      329.510       -3.707      873.122
12/26/2013  05:50:00     -106.114      -34.621       -4.508       26.706       24.535       13.915      713.192      601.956      193.622        0.699        0.075      111.619       12.826        0.013      329.549       -3.645      873.122
12/26/2013  05:51:00     -107.595      -17.567       -5.424       22.399       18.885       15.033      501.716      356.661      225.984        0.650        0.054      109.019       11.270        0.011      329.511       -3.708      873.112
12/26/2013  05:52:00     -105.160       -7.166       -8.483       37.696       19.969       15.392     1420.984      398.779      236.905        0.662        0.103      105.404       17.869        0.029      329.487       -3.747      873.126
12/26/2013  05:53:00      -76.499      -10.253        5.705       39.465       35.697       23.379     1557.480     1274.289      546.563        0.468        0.169       77.183       24.203        0.098      329.462       -3.788      873.127
12/26/2013  05:54:00      -58.511       -0.256       -0.933       33.623       28.722       18.335     1130.537      824.979      336.164        0.286        0.115       58.511       16.837        0.083      329.412       -3.869      873.128
12/26/2013  05:55:00      -85.724      -19.655       -2.996       34.460       22.915       21.115     1187.488      525.100      445.832        0.495        0.108       87.948       18.768        0.046      329.467       -3.779      873.138
12/26/2013  05:56:00      -56.949       -6.372       -1.779       26.167       20.418       15.617      684.729      416.912      243.881        0.232        0.067       57.305       11.494        0.040      329.434       -3.834      873.136
12/26/2013  05:57:00      -67.403       -8.018       -0.951       34.657       26.259       15.005     1201.094      689.545      225.136        0.336        0.106       67.879       13.963        0.042      329.397       -3.895      873.129
12/26/2013  05:58:00      -85.223      -15.549       -9.230       34.765       28.581       18.704     1208.599      816.852      349.827        0.498        0.119       86.630       14.832        0.029      329.381       -3.920      873.126
12/26/2013  05:59:00      -30.683       -4.396        3.788       31.885       36.526       15.789     1016.669     1334.175      249.286        0.179        0.130       30.997       12.509        0.163      329.390       -3.905      873.128
12/26/2013  06:00:00      -81.010       -6.770       -0.634       48.865       34.349       20.838     2387.817     1179.825      434.203        0.530        0.200       81.292       21.018        0.067      329.351       -3.970      873.121
12/26/2013  06:01:00      -66.458        0.827       -5.087       44.564       30.859       23.227     1985.975      952.305      539.498        0.396        0.174       66.463       19.145        0.083      329.329       -4.005      873.124
12/26/2013  06:02:00      -34.684       -5.901        5.477       36.312       24.862       18.172     1318.551      618.132      330.218        0.177        0.113       35.182       19.735        0.315      329.285       -4.077      873.128
12/26/2013  06:03:00      -23.645       -9.322       -2.415       19.176       11.742       12.746      367.731      137.867      162.464        0.066        0.033       25.416       12.174        0.229      329.334       -3.998      873.133
12/26/2013  06:04:00      -31.133        2.279       -1.594       22.220       17.758       11.841      493.738      315.337      140.215        0.096        0.047       31.217        7.286        0.054      329.440       -3.824      873.153
12/26/2013  06:05:00      -36.486       13.723       -8.099       17.020       19.248       13.506      289.683      370.478      182.414        0.121        0.042       38.982        8.369        0.046      329.498       -3.728      873.165
12/26/2013  06:06:00      -61.237      -10.345       -8.732       16.497       20.512       10.292      272.151      420.740      105.922        0.237        0.040       62.105        6.395        0.011      329.512       -3.705      873.180
12/26/2013  06:07:00      -80.916      -16.206       -7.077       26.050       16.896       13.045      678.613      285.487      170.180        0.400        0.057       82.523       11.576        0.020      329.389       -3.908      873.211
12/26/2013  06:08:00      -49.459      -38.814      -12.357       11.457       14.336       12.069      131.267      205.530      145.651        0.229        0.024       62.870        3.576        0.003      329.366       -3.946      873.224
12/26/2013  06:09:00      -46.940      -29.880       -6.100       23.115       16.002       14.029      534.300      256.058      196.802        0.206        0.049       55.644       10.790        0.038      329.419       -3.858      873.230
12/26/2013  06:10:00      -78.367      -21.174       -8.548       22.911       16.287       13.250      524.936      265.282      175.574        0.381        0.048       81.177       11.825        0.021      329.394       -3.898      873.226
12/26/2013  06:11:00      -50.683      -11.506       -7.173       19.514       12.454        8.134      380.794      155.107       66.154        0.168        0.030       51.973        4.308        0.007      329.467       -3.780      873.217
12/26/2013  06:12:00      -23.895       -9.299       -8.983       13.732       15.581        8.805      188.570      242.773       77.527        0.062        0.025       25.640        4.769        0.035      329.684       -3.424      873.197
12/26/2013  06:13:00      -79.705      -29.495      -14.085       18.797       14.223       12.284      353.314      202.300      150.889        0.406        0.035       84.988        5.901        0.005      329.430       -3.840      873.185
12/26/2013  06:14:00      -74.458       -7.140      -12.732       17.174       10.211       11.773      294.930      104.260      138.613        0.315        0.027       74.799        7.711        0.011      329.338       -3.989      873.191
12/26/2013  06:15:00      -48.912       -5.648       -9.393       22.039       10.980       10.332      485.732      120.566      106.744        0.161        0.036       49.237        5.782        0.014      329.663       -3.459      873.203
12/26/2013  06:16:00      -34.017       -5.702       -6.878       12.105        7.225        6.141      146.530       52.198       37.713        0.074        0.012       34.492        4.024        0.014      329.670       -3.448      873.204
12/26/2013  06:17:00      -43.659      -22.018       -8.950        9.641       14.204        7.102       92.953      201.748       50.432        0.141        0.017       48.897        3.415        0.005      329.567       -3.615      873.209
12/26/2013  06:18:00      -38.604      -13.160      -12.949        7.203        6.893        9.912       51.877       47.514       98.249        0.101        0.010       40.786        5.029        0.015      329.490       -3.741      873.213
12/26/2013  06:19:00      -37.529       -7.063        0.129        9.993        7.153       10.885       99.868       51.162      118.491        0.086        0.013       38.188        5.498        0.021      329.558       -3.630      873.214
12/26/2013  06:20:00        3.616       -4.898        6.335       19.145       10.418       12.247      366.523      108.527      149.980        0.035        0.031        6.088        6.013        0.975      329.767       -3.288      873.218
12/26/2013  06:21:00      -22.807       -1.751        3.131       18.036       11.181       12.939      325.305      125.015      167.422        0.058        0.031       22.875        6.444        0.079      329.732       -3.346      873.219
12/26/2013  06:22:00      -13.216        8.114       -0.864       22.043       18.533       10.663      485.898      343.473      113.693        0.059        0.047       15.508       10.128        0.427      329.714       -3.376      873.224
12/26/2013  06:23:00       -3.073        5.925        7.197       19.317        8.429       14.832      373.158       71.043      219.975        0.038        0.033        6.675        7.039        1.112      329.745       -3.325      873.225
12/26/2013  06:24:00        1.821       34.215        2.725       18.435       21.665       19.273      339.857      469.352      371.463        0.118        0.059       34.263       16.967        0.245      329.912       -3.051      873.219
12/26/2013  06:25:00       -7.020       68.912       -6.276       15.576       11.804       11.227      242.610      139.338      126.038        0.267        0.025       69.268        6.061        0.008      329.915       -3.046      873.224
12/26/2013  06:26:00      -23.405       13.267       -9.087       14.267       27.131       13.184      203.533      736.111      173.821        0.096        0.056       26.903       12.371        0.211      329.781       -3.264      873.223
12/26/2013  06:27:00      -24.238       11.588        6.077       10.302       12.488       15.993      106.124      155.940      255.786        0.064        0.026       26.865        9.872        0.135      329.737       -3.336      873.214
12/26/2013  06:28:00        4.529       17.674        8.939       17.939       16.403       13.244      321.810      269.074      175.410        0.059        0.038       18.245       12.837        0.495      329.745       -3.323      873.209
12/26/2013  06:29:00       26.520       18.995       -0.797        7.514        8.411        4.447       56.459       70.739       19.778        0.061        0.007       32.621        3.187        0.010      329.924       -3.034      873.217
12/26/2013  06:30:00       15.033       18.089       -1.058        5.319        7.472        3.351       28.290       55.825       11.230        0.032        0.005       23.520        2.866        0.015      329.921       -3.037      873.228
12/26/2013  06:31:00       27.004       31.872       -2.566        8.971        6.503        6.842       80.487       42.294       46.820        0.096        0.008       41.774        4.786        0.013      329.949       -2.990      873.237
12/26/2013  06:32:00       29.826       31.666       -0.661       16.246       16.879       14.086      263.942      284.899      198.419        0.132        0.037       43.501       13.008        0.089      329.938       -3.009      873.240
12/26/2013  06:33:00       51.057       36.776        1.824       18.765       16.747       12.528      352.119      280.476      156.959        0.238        0.039       62.923       10.797        0.029      329.889       -3.090      873.238
12/26/2013  06:34:00       41.727       27.929        5.239       19.201       15.849       13.170      368.673      251.207      173.445        0.167        0.040       50.211        6.847        0.019      329.821       -3.201      873.236
12/26/2013  06:35:00       53.494       28.784        5.749       19.739       19.105       14.779      389.621      365.009      218.429        0.235        0.049       60.746       10.153        0.028      329.827       -3.190      873.235
12/26/2013  06:36:00       71.617       48.260       13.789       31.575       17.134       14.557      996.994      293.590      211.914        0.458        0.075       86.360       11.521        0.018      329.794       -3.244      873.236
12/26/2013  06:37:00       83.755       51.719       13.930       16.900       17.256       15.622      285.627      297.786      244.045        0.536        0.041       98.436        9.798        0.010      329.785       -3.258      873.237
12/26/2013  06:38:00       84.536       36.993        7.534       26.084       21.688       17.490      680.371      470.386      305.886        0.501        0.073       92.276        8.100        0.008      329.758       -3.302      873.229
12/26/2013  06:39:00       78.981       29.377        4.413       22.521       20.256       15.604      507.217      410.299      243.475        0.414        0.058       84.268       10.832        0.017      329.761       -3.297      873.236
12/26/2013  06:40:00       61.489       25.701       11.597       23.381       16.033       20.488      546.666      257.068      419.751        0.290        0.061       66.644       16.872        0.064      329.733       -3.345      873.241
12/26/2013  06:41:00       28.124       23.637       26.754       23.440       13.803       12.883      549.411      190.530      165.965        0.149        0.045       36.738       10.437        0.081      329.684       -3.425      873.240
12/26/2013  06:42:00       12.285       11.422       23.557       11.558       11.503       10.898      133.591      132.320      118.757        0.061        0.019       16.775        6.212        0.137      329.681       -3.429      873.237
12/26/2013  06:43:00       20.676      -26.802        8.036       23.376       29.738       17.874      546.422      884.347      319.498        0.148        0.088       33.851       18.329        0.293      329.845       -3.161      873.233
12/26/2013  06:44:00       15.480      -15.958        8.718       27.959       15.419       10.692      781.721      237.747      114.321        0.085        0.057       22.233        8.122        0.133      329.900       -3.071      873.224
12/26/2013  06:45:00      -47.162      -18.186        1.842       14.955       12.651        9.174      223.657      160.041       84.168        0.151        0.023       50.547        7.980        0.025      329.553       -3.638      873.205
12/26/2013  06:46:00      -27.771      -30.484       -2.071       21.472       11.858       10.687      461.043      140.612      114.207        0.121        0.036       41.237        8.328        0.041      329.517       -3.697      873.191
12/26/2013  06:47:00      -68.468      -36.268       -0.971       22.489       19.356       14.249      505.752      374.644      203.037        0.354        0.054       77.481       12.497        0.026      329.598       -3.563      873.193
12/26/2013  06:48:00      -60.236      -23.848       -9.222       10.295        9.878        6.721      105.996       97.571       45.177        0.227        0.012       64.785        2.024        0.001      329.654       -3.473      873.196
12/26/2013  06:49:00      -45.918      -21.668       -6.073       10.076        7.087        5.608      101.518       50.227       31.451        0.140        0.009       50.774        2.703        0.003      329.699       -3.400      873.198
12/26/2013  06:50:00      -55.247      -38.714       -2.557       12.901        9.876        9.227      166.436       97.532       85.146        0.245        0.017       67.461        4.035        0.004      329.712       -3.378      873.195
12/26/2013  06:51:00      -46.896      -31.256       -6.349        7.914        9.889        7.388       62.632       97.783       54.581        0.172        0.011       56.357        2.170        0.001      329.672       -3.444      873.198
12/26/2013  06:52:00      -49.065      -19.164       -4.499       13.767        9.141        8.389      189.526       83.555       70.381        0.157        0.017       52.675        5.312        0.010      329.650       -3.481      873.204
12/26/2013  06:53:00      -34.652      -17.882       -1.340       15.583       13.184        8.764      242.820      173.810       76.810        0.101        0.025       38.994        9.508        0.059      329.655       -3.473      873.205
12/26/2013  06:54:00      -48.276      -22.022       -3.100       12.214       16.296        7.042      149.187      265.567       49.586        0.164        0.023       53.061        6.855        0.017      329.669       -3.450      873.211
12/26/2013  06:55:00      -42.120       -5.586       -3.361        8.341       10.180        6.972       69.564      103.623       48.602        0.102        0.011       42.488        2.932        0.005      329.583       -3.590      873.214
12/26/2013  06:56:00      -31.592       -9.699       -6.101        8.085        7.867        5.352       65.362       61.897       28.646        0.064        0.008       33.047        3.835        0.013      329.599       -3.565      873.219
12/26/2013  06:57:00      -41.576      -31.701       -4.396       14.113       18.678        8.704      199.178      348.876       75.753        0.169        0.031       52.283        9.151        0.031      329.694       -3.408      873.221
12/26/2013  06:58:00      -40.442      -17.275       -2.895       13.638        8.785        8.956      185.985       77.175       80.203        0.114        0.017       43.977        8.290        0.036      329.622       -3.525      873.228
12/26/2013  06:59:00      -47.246       -7.284       -6.255        7.589        7.992        8.255       57.598       63.874       68.139        0.126        0.009       47.804        5.435        0.013      329.565       -3.618      873.228
12/26/2013  07:00:00      -45.987       -3.028       -4.506        7.254        4.566        5.734       52.618       20.845       32.883        0.113        0.005       46.087        3.426        0.006      329.501       -3.720      873.231
12/26/2013  07:01:00      -34.144       -6.945       -1.962       14.827        7.438        8.650      219.846       55.327       74.827        0.078        0.017       34.843        8.298        0.057      329.532       -3.673      873.234
12/26/2013  07:02:00      -37.008       -2.774       -1.905       16.286       12.927        9.643      265.222      167.120       92.992        0.095        0.026       37.111        7.261        0.038      329.535       -3.666      873.233
12/26/2013  07:03:00      -72.017        2.957       -6.933        9.498        6.035        7.595       90.217       36.417       57.690        0.271        0.009       72.077        4.293        0.004      329.558       -3.629      873.235
12/26/2013  07:04:00      -64.953       -0.847       -6.120       17.213       11.519        6.779      296.297      132.678       45.961        0.237        0.024       64.959        2.037        0.001      329.560       -3.628      873.225
12/26/2013  07:05:00      -47.164       -9.677       -9.108       15.343       12.817       10.334      235.414      164.274      106.792        0.145        0.025       48.147        9.607        0.040      329.537       -3.664      873.219
12/26/2013  07:06:00      -65.500       -6.498       -7.669        9.498        7.955        6.449       90.220       63.285       41.593        0.229        0.010       65.822        4.543        0.005      329.617       -3.535      873.215
12/26/2013  07:07:00      -57.975      -16.246       -8.496       14.371       10.604        6.719      206.530      112.449       45.145        0.203        0.018       60.208        7.280        0.015      329.582       -3.592      873.212
12/26/2013  07:08:00      -67.062       -1.148       -6.408       10.423        7.704        8.408      108.634       59.354       70.691        0.239        0.012       67.072        5.921        0.008      329.547       -3.650      873.202
12/26/2013  07:09:00      -68.767       -8.037       -4.803       10.064       12.542        8.163      101.287      157.310       66.634        0.257        0.016       69.235        4.926        0.005      329.544       -3.653      873.186
12/26/2013  07:10:00      -61.157       -6.933       -2.627       18.222       11.932        9.892      332.025      142.365       97.850        0.218        0.029       61.548        9.648        0.025      329.534       -3.670      873.174
12/26/2013  07:11:00      -73.842       -8.046       -5.595       10.164        9.851        8.576      103.314       97.047       73.552        0.291        0.014       74.279        4.394        0.003      329.544       -3.654      873.174
12/26/2013  07:12:00      -53.713      -20.004       -6.140       14.368       13.318        8.602      206.426      177.357       73.991        0.189        0.023       57.317        6.317        0.012      329.500       -3.723      873.181
12/26/2013  07:13:00      -35.171       -8.152       -3.273       16.481        9.789        5.893      271.611       95.831       34.733        0.086        0.020       36.103        3.701        0.011      329.469       -3.775      873.184
12/26/2013  07:14:00      -22.557       -9.855       -0.975        8.039        8.046        4.679       64.625       64.744       21.893        0.038        0.008       24.616        2.121        0.007      329.487       -3.745      873.188
12/26/2013  07:15:00      -28.838      -13.447       -1.392        8.088        5.612        6.095       65.420       31.490       37.149        0.057        0.007       31.819        3.290        0.011      329.529       -3.674      873.190
12/26/2013  07:16:00      -23.061      -14.884       -3.826       11.411        8.123        6.757      130.212       65.975       45.650        0.050        0.012       27.447        7.403        0.073      329.599       -3.565      873.187
12/26/2013  07:17:00      -31.246      -11.667       -5.814        9.464        7.932        4.668       89.561       62.922       21.786        0.066        0.009       33.353        2.972        0.008      329.630       -3.513      873.193
12/26/2013  07:18:00      -30.648       -5.537       -7.131        6.950        6.849        4.780       48.300       46.904       22.846        0.057        0.006       31.144        3.766        0.015      329.576       -3.604      873.201
12/26/2013  07:19:00      -30.570       -2.440       -8.385        5.999        5.750        5.195       35.986       33.060       26.988        0.055        0.005       30.667        3.871        0.016      329.574       -3.605      873.214
12/26/2013  07:20:00      -41.124       -5.145       -4.303       10.635        7.841        7.492      113.101       61.482       56.128        0.098        0.012       41.444        3.758        0.008      329.533       -3.672      873.229
12/26/2013  07:21:00      -43.926       -3.121       -3.638        6.832        5.546        4.995       46.671       30.753       24.948        0.103        0.005       44.036        2.018        0.002      329.544       -3.652      873.237
12/26/2013  07:22:00      -40.304       -5.346       -5.394        8.173        5.323        5.156       66.795       28.336       26.584        0.090        0.006       40.657        3.543        0.008      329.521       -3.691      873.238
12/26/2013  07:23:00      -41.367      -12.312       -8.131       16.816        8.849        7.375      282.781       78.297       54.388        0.117        0.021       43.160        7.205        0.028      329.328       -4.007      873.230
12/26/2013  07:24:00      -51.699       -8.638       -5.952       12.954        7.377        9.367      167.812       54.419       87.748        0.155        0.015       52.416        4.169        0.006      329.309       -4.038      873.226
12/26/2013  07:25:00      -21.641       -5.041       -7.549        9.364        7.373        5.019       87.681       54.354       25.186        0.036        0.008       22.220        3.628        0.027      329.239       -4.152      873.219
12/26/2013  07:26:00      -36.697       -5.988      -11.198        8.835        5.315        4.321       78.052       28.247       18.673        0.082        0.006       37.182        3.240        0.008      329.345       -3.980      873.217
12/26/2013  07:27:00      -53.699       -6.977       -4.956       12.724       10.540        9.074      161.900      111.097       82.335        0.166        0.018       54.150        7.607        0.020      329.296       -4.058      873.205
12/26/2013  07:28:00      -76.519       -6.284       -4.509       15.630       11.933       10.356      244.283      142.402      107.249        0.320        0.025       76.777        7.489        0.010      329.201       -4.215      873.198
12/26/2013  07:29:00      -50.036      -15.130       -8.707       21.553       17.688       11.224      464.534      312.875      125.979        0.186        0.045       52.274        9.884        0.036      329.215       -4.192      873.191
12/26/2013  07:30:00      -58.809       -3.143       -6.765       16.631       13.063        9.429      276.605      170.637       88.902        0.203        0.027       58.893        7.942        0.018      329.226       -4.173      873.187
12/26/2013  07:31:00      -82.560       -8.349       -9.629       20.683       14.117       13.514      427.767      199.282      182.618        0.389        0.040       82.982       11.146        0.018      329.289       -4.069      873.188
12/26/2013  07:32:00      -90.130      -16.348      -10.958       19.350       20.280       14.524      374.425      411.296      210.940        0.475        0.050       91.600        9.881        0.012      329.274       -4.095      873.189
12/26/2013  07:33:00      -74.970      -15.711       -8.943       17.099       10.297       10.180      292.382      106.021      103.641        0.322        0.025       76.599        7.489        0.010      329.310       -4.037      873.198
12/26/2013  07:34:00      -78.081       -4.263      -12.480       15.279       11.348       10.278      233.449      128.776      105.640        0.337        0.023       78.197        9.126        0.014      329.377       -3.927      873.206
12/26/2013  07:35:00      -69.138       -3.382       -3.133       26.643       14.804       14.063      709.862      219.148      197.764        0.296        0.056       69.220       14.205        0.042      329.397       -3.894      873.223
12/26/2013  07:36:00      -78.904       -7.938       -6.416       20.117       18.717       11.972      404.695      350.318      143.326        0.361        0.045       79.302       10.126        0.016      329.386       -3.913      873.249
12/26/2013  07:37:00      -74.037      -11.333       -8.577       20.395       13.363       11.709      415.968      178.571      137.102        0.321        0.037       74.899       11.507        0.024      329.440       -3.823      873.275
12/26/2013  07:38:00      -68.340       -1.638       -2.703       22.533       15.414       14.043      507.732      237.591      197.209        0.281        0.047       68.360       11.767        0.030      329.423       -3.852      873.291
12/26/2013  07:39:00      -69.621       -3.352       -0.702       25.225       19.433       15.738      636.293      377.627      247.687        0.306        0.063       69.702       13.096        0.035      329.442       -3.820      873.318
12/26/2013  07:40:00      -67.700        1.595       -3.524       29.621       12.880       15.064      877.396      165.904      226.922        0.293        0.064       67.718       17.372        0.066      329.469       -3.777      873.335
12/26/2013  07:41:00      -83.725        4.535       -7.430       18.432       13.275       13.802      339.743      176.223      190.502        0.390        0.035       83.848       11.352        0.018      329.488       -3.745      873.342
12/26/2013  07:42:00      -81.086       -8.066       -4.840       22.516       11.787       10.324      506.963      138.935      106.583        0.371        0.038       81.486        8.297        0.010      329.472       -3.771      873.344
12/26/2013  07:43:00      -91.642      -14.875       -4.871       17.136       12.082       10.389      293.643      145.974      107.929        0.460        0.027       92.841        8.102        0.008      329.464       -3.784      873.349
12/26/2013  07:44:00      -74.298      -20.909       -6.036       29.180       17.495       10.645      851.450      306.065      113.315        0.363        0.064       77.184        9.816        0.016      329.480       -3.758      873.347
12/26/2013  07:45:00      -59.044       -9.232       -7.296       13.922        9.614        8.064      193.821       92.438       65.035        0.199        0.018       59.761        4.547        0.006      329.491       -3.739      873.356
12/26/2013  07:46:00      -61.458       -4.012       -6.623       14.954       10.369       10.200      223.633      107.525      104.043        0.214        0.022       61.588        6.518        0.011      329.520       -3.692      873.376
12/26/2013  07:47:00      -51.516      -10.713        0.642       19.528       16.012       10.302      381.349      256.394      106.125        0.176        0.037       52.618        9.342        0.032      329.556       -3.634      873.392
12/26/2013  07:48:00      -55.695       -4.308       -3.516       17.377       12.244       11.046      301.970      149.917      122.011        0.185        0.029       55.861        8.720        0.024      329.551       -3.641      873.394
12/26/2013  07:49:00      -56.920      -10.372       -8.434       14.892       10.531        7.226      221.775      110.910       52.218        0.190        0.019       57.858        1.968        0.001      329.585       -3.586      873.409
12/26/2013  07:50:00      -53.542       -4.842       -6.020       12.667        8.722        6.238      160.452       76.071       38.909        0.160        0.014       53.761        3.233        0.004      329.572       -3.607      873.407
12/26/2013  07:51:00      -34.922       -6.479       -4.869        9.372        9.996        6.548       87.827       99.929       42.881        0.076        0.012       35.518        4.440        0.016      329.594       -3.573      873.410
12/26/2013  07:52:00      -46.966       -7.575       -4.215       19.781       11.664        9.611      391.292      136.059       92.362        0.145        0.031       47.573       10.306        0.047      329.620       -3.529      873.411
12/26/2013  07:53:00      -66.364      -12.953       -7.226       17.716        9.855        8.182      313.858       97.124       66.947        0.255        0.024       67.616        8.364        0.015      329.625       -3.522      873.410
12/26/2013  07:54:00      -67.191      -17.577       -8.648       10.605       10.558        8.050      112.462      111.482       64.806        0.259        0.014       69.452        5.445        0.006      329.610       -3.546      873.417
12/26/2013  07:55:00      -69.132       -7.604       -5.198       16.805       11.810       10.371      282.421      139.487      107.559        0.270        0.026       69.549        2.937        0.002      329.570       -3.612      873.427
12/26/2013  07:56:00      -62.783       -1.402      -10.078       17.196       10.696        9.468      295.699      114.412       89.649        0.227        0.025       62.799        9.670        0.024      329.615       -3.538      873.434
12/26/2013  07:57:00      -57.959      -10.615      -10.960       11.946       11.952        6.604      142.700      142.841       43.616        0.196        0.016       58.923        4.131        0.005      329.646       -3.487      873.429
12/26/2013  07:58:00      -49.534      -16.642       -9.623        7.186        7.248        5.806       51.640       52.531       33.714        0.148        0.007       52.255        4.309        0.007      329.708       -3.385      873.424
12/26/2013  07:59:00      -53.255      -14.167       -8.666       11.113       10.066        7.317      123.489      101.321       53.540        0.170        0.014       55.107        2.777        0.003      329.719       -3.367      873.417
12/26/2013  08:00:00      -52.007       -7.926       -7.462        7.907       10.287        5.618       62.522      105.822       31.561        0.151        0.010       52.608        4.366        0.007      329.738       -3.336      873.406
12/26/2013  08:01:00      -47.721      -18.511       -4.342        8.560        8.394        6.989       73.267       70.465       48.840        0.142        0.010       51.186        3.529        0.005      329.779       -3.269      873.405
12/26/2013  08:02:00      -26.839      -15.222       -4.815        7.137        6.376        4.955       50.938       40.649       24.556        0.055        0.006       30.855        1.054        0.001      329.852       -3.149      873.404
12/26/2013  08:03:00      -32.407      -12.992       -7.524        5.492        4.853        4.958       30.165       23.556       24.585        0.068        0.004       34.914        1.172        0.001      329.934       -3.016      873.407
12/26/2013  08:04:00      -34.367      -11.517       -9.539        8.768        7.141        6.489       76.872       50.997       42.110        0.079        0.008       36.245        3.843        0.011      329.967       -2.962      873.420
12/26/2013  08:05:00      -27.826      -10.929       -0.369        7.607        7.771        7.484       57.869       60.383       56.017        0.053        0.009       29.895        3.013        0.010      329.987       -2.927      873.427
12/26/2013  08:06:00      -21.018       -1.267       -0.810        7.372        5.621        4.990       54.348       31.600       24.900        0.028        0.006       21.057        2.833        0.018      329.970       -2.956      873.438
12/26/2013  08:07:00      -41.974       -3.786       -5.992       10.961        9.692        6.797      120.143       93.932       46.197        0.104        0.013       42.144        7.411        0.031      329.923       -3.034      873.442
12/26/2013  08:08:00      -46.753      -15.665       -8.970        8.604        6.022        5.585       74.030       36.263       31.192        0.133        0.007       49.308        2.532        0.003      329.922       -3.034      873.434
12/26/2013  08:09:00      -32.491      -23.666       -5.116       12.443        9.639        7.802      154.826       92.917       60.869        0.098        0.015       40.197        8.205        0.042      330.016       -2.881      873.426
12/26/2013  08:10:00      -36.104      -21.290       -6.982        7.913        7.408        5.002       62.618       54.877       25.022        0.097        0.007       41.914        2.090        0.002      330.025       -2.865      873.427
12/26/2013  08:11:00      -40.678      -12.750       -5.102       11.138        8.498        5.946      124.065       72.212       35.359        0.104        0.012       42.629        4.838        0.013      330.012       -2.888      873.410
12/26/2013  08:12:00      -25.799      -20.397       -1.512       11.360        8.815        5.979      129.049       77.710       35.747        0.066        0.012       32.888        4.893        0.022      330.126       -2.701      873.407
12/26/2013  08:13:00      -31.265      -18.395       -3.684       11.884        7.167        5.441      141.219       51.370       29.608        0.078        0.011       36.275        4.089        0.013      330.110       -2.728      873.411
12/26/2013  08:14:00      -22.548      -10.586       -1.194       13.363        8.312        6.466      178.575       69.090       41.812        0.046        0.014       24.909        5.473        0.048      330.212       -2.559      873.408
12/26/2013  08:15:00      -28.737       -9.378       -0.935        8.493        7.262        5.044       72.139       52.741       25.441        0.053        0.008       30.228        2.035        0.005      330.266       -2.471      873.403
12/26/2013  08:16:00      -15.219       -2.303       -1.986        8.938        2.505        5.061       79.892        6.274       25.614        0.018        0.006       15.393        4.513        0.086      330.416       -2.226      873.397
12/26/2013  08:17:00      -25.883       -9.496       -1.280       13.444        9.471        5.313      180.729       89.701       28.228        0.053        0.015       27.570        3.186        0.013      330.413       -2.229      873.402
12/26/2013  08:18:00      -30.740      -19.467       -0.837       22.631       17.493       12.643      512.168      306.017      159.842        0.115        0.049       36.386        7.554        0.043      330.317       -2.388      873.404
12/26/2013  08:19:00      -43.907       -9.985        1.612       24.824       13.655       15.811      616.250      186.451      249.981        0.154        0.053       45.028       10.576        0.055      330.283       -2.442      873.396
12/26/2013  08:20:00      -54.556      -32.689       -2.460       31.978       25.818       20.065     1022.596      666.545      402.608        0.307        0.105       63.600       20.154        0.100      330.327       -2.372      873.399
12/26/2013  08:21:00      -21.781      -16.240        7.349       19.799       15.122       14.301      391.990      228.684      204.506        0.081        0.041       27.169       12.126        0.199      330.490       -2.103      873.403
12/26/2013  08:22:00      -56.788      -28.486       -1.824       19.314       15.316       14.149      373.035      234.584      200.195        0.242        0.040       63.532        8.148        0.016      330.273       -2.457      873.400
12/26/2013  08:23:00      -53.675       -3.913       -2.197       21.583       20.611       24.326      465.838      424.822      591.770        0.219        0.074       53.817       20.008        0.138      330.301       -2.413      873.403
12/26/2013  08:24:00      -70.850      -27.220       -8.464       22.329       21.288       13.695      498.590      453.161      187.548        0.349        0.057       75.899        8.843        0.014      330.309       -2.399      873.409
12/26/2013  08:25:00      -64.406      -35.157      -14.090       19.318       11.713       10.946      373.185      137.183      119.822        0.311        0.032       73.377        6.444        0.008      330.328       -2.369      873.398
12/26/2013  08:26:00      -38.157      -13.010       -7.676       17.623       10.434        9.790      310.575      108.874       95.841        0.110        0.026       40.314        6.464        0.026      330.391       -2.269      873.394
12/26/2013  08:27:00      -44.615      -15.674       -0.824       11.920       14.485        9.619      142.091      209.821       92.520        0.134        0.022       47.288        7.242        0.023      330.399       -2.255      873.402
12/26/2013  08:28:00      -42.873      -23.519       -7.993       13.363        9.980        8.598      178.577       99.604       73.930        0.140        0.018       48.900        4.273        0.008      330.408       -2.239      873.401
12/26/2013  08:29:00      -42.117      -31.954       -2.626       21.048        9.949        9.126      443.026       98.988       83.287        0.171        0.031       52.867        8.685        0.027      330.445       -2.178      873.390
12/26/2013  08:30:00      -50.211      -23.510       -5.863       14.782       10.527        9.274      218.508      110.816       86.009        0.176        0.021       55.443        8.955        0.026      330.446       -2.176      873.374
12/26/2013  08:31:00      -51.246      -22.304       -6.197        8.306        9.848        7.395       68.983       96.987       54.688        0.169        0.011       55.890        4.744        0.007      330.445       -2.177      873.354
12/26/2013  08:32:00      -53.705      -21.752       -8.687       12.942        8.589        6.112      167.508       73.772       37.362        0.186        0.014       57.943        4.129        0.005      330.530       -2.037      873.338
12/26/2013  08:33:00      -60.280      -27.154      -11.379       16.322        9.576        7.411      266.393       91.705       54.918        0.246        0.021       66.114        5.615        0.007      330.525       -2.046      873.331
12/26/2013  08:34:00      -67.988       -1.138       -8.549       16.426       19.431        8.677      269.804      377.576       75.289        0.271        0.036       67.997        9.284        0.019      330.466       -2.143      873.326
12/26/2013  08:35:00      -64.751       17.535       -3.038       16.355       14.699       13.457      267.475      216.068      181.097        0.259        0.033       67.083       11.831        0.031      330.501       -2.085      873.338
12/26/2013  08:36:00      -42.562       -0.940       -3.307       10.446       19.859        9.149      109.128      394.383       83.710        0.121        0.029       42.572        6.790        0.025      330.590       -1.939      873.330
12/26/2013  08:37:00      -38.430       -5.378       -3.739       23.166       16.023       11.222      536.682      256.746      125.930        0.122        0.046       38.804        9.008        0.054      330.648       -1.846      873.324
12/26/2013  08:38:00      -55.360      -33.532       -8.104       17.850        8.449       11.023      318.634       71.377      121.503        0.238        0.026       64.723        6.771        0.011      330.588       -1.944      873.317
12/26/2013  08:39:00       -4.980      -27.336        8.120        8.031       16.234       11.451       64.499      263.556      131.118        0.065        0.023       27.786       10.506        0.143      330.833       -1.541      873.307
12/26/2013  08:40:00      -22.282       -5.470        4.325       16.736       13.205       14.805      280.093      174.360      219.197        0.061        0.034       22.944       14.407        0.394      330.966       -1.323      873.302
12/26/2013  08:41:00      -17.700      -11.025        1.907        8.238       10.758        5.779       67.859      115.727       33.397        0.033        0.011       20.853        4.538        0.047      330.778       -1.632      873.313
12/26/2013  08:42:00       22.878       21.517       12.727       22.554       21.121       13.629      508.687      446.100      185.760        0.114        0.057       31.407       12.493        0.158      331.165       -0.994      873.303
12/26/2013  08:43:00       61.728       50.386        0.618       15.945       15.510       16.737      254.232      240.553      280.136        0.356        0.039       79.681        9.867        0.015      330.853       -1.508      873.295
12/26/2013  08:44:00       39.944       39.225        8.853       19.444       16.503       17.102      378.083      272.336      292.483        0.208        0.047       55.983       12.310        0.048      331.086       -1.126      873.291
12/26/2013  08:45:00       11.435       28.493       34.235       25.435       19.263       16.332      646.959      371.075      266.734        0.170        0.064       30.702       13.778        0.201      331.319       -0.741      873.283
12/26/2013  08:46:00       36.488       33.533       16.832       26.697       21.838       18.420      712.703      476.891      339.284        0.213        0.076       49.556        7.180        0.021      331.210       -0.921      873.286
12/26/2013  08:47:00       -7.045       17.805       44.600       16.780       29.274       22.430      281.552      856.982      503.083        0.200        0.082       19.148       20.617        1.159      331.515       -0.420      873.298
12/26/2013  08:48:00        4.122       40.267       37.296       25.414       24.249       35.113      645.864      588.014     1232.903        0.275        0.123       40.478       27.862        0.474      331.361       -0.673      873.297
12/26/2013  08:49:00        1.450       22.648       30.319       15.091       17.284       18.388      227.748      298.741      338.101        0.115        0.043       22.695       14.437        0.405      331.552       -0.359      873.306
12/26/2013  08:50:00       18.771       49.654       44.007       36.486       34.409       26.916     1331.196     1183.971      724.458        0.400        0.162       53.084       22.853        0.185      331.361       -0.674      873.308
12/26/2013  08:51:00        3.830       43.610       54.885       26.195       33.917       33.743      686.184     1150.354     1138.622        0.395        0.149       43.777       30.322        0.480      331.276       -0.813      873.307
12/26/2013  08:52:00       -9.731       31.790       61.136       13.332       28.191       18.139      177.743      794.728      329.023        0.307        0.065       33.246       17.510        0.277      331.521       -0.410      873.302
12/26/2013  08:53:00       17.336       39.917       56.006       18.444       27.110       16.333      340.166      734.947      266.771        0.319        0.067       43.519       17.652        0.165      331.274       -0.816      873.301
12/26/2013  08:54:00        5.535        2.747       27.696       14.788       42.860       23.703      218.698     1836.997      561.814        0.171        0.131        6.179       22.412       13.157      331.343       -0.702      873.302
12/26/2013  08:55:00       -9.189       48.833       59.650       11.939       30.661       25.873      142.547      940.101      669.426        0.389        0.088       49.690        8.327        0.028      331.388       -0.628      873.301
12/26/2013  08:56:00       47.172       44.756       32.221       29.633       24.414       24.877      878.100      596.030      618.856        0.368        0.105       65.025        7.060        0.012      331.330       -0.724      873.305
12/26/2013  08:57:00       64.244       53.393       10.359       26.271       26.195       27.531      690.162      686.186      757.930        0.461        0.107       83.535       12.538        0.023      331.247       -0.861      873.309
12/26/2013  08:58:00       45.682       52.813        0.002       30.940       31.347       23.782      957.254      982.634      565.602        0.369        0.125       69.829       22.655        0.105      331.265       -0.832      873.312
12/26/2013  08:59:00       88.354       69.869       17.456       31.030       23.250       24.091      962.857      540.541      580.373        0.754        0.104      112.641        7.817        0.005      331.071       -1.151      873.315
12/26/2013  09:00:00       73.705       59.228       13.974       35.889       28.023       29.959     1288.047      785.266      897.527        0.605        0.149       94.554       17.787        0.035      331.315       -0.751      873.314
12/26/2013  09:01:00      101.288       43.139       12.566       49.734       37.559       26.717     2473.431     1410.676      713.779        0.844        0.230      110.092       18.669        0.029      331.151       -1.018      873.318
12/26/2013  09:02:00       35.111       51.144        0.714       29.498       30.404       29.459      870.120      924.415      867.840        0.326        0.133       62.037       21.282        0.118      331.212       -0.918      873.331
12/26/2013  09:03:00       34.937       44.749       10.064       28.792       28.578       29.748      828.956      816.691      884.943        0.293        0.127       56.772       18.118        0.102      331.347       -0.696      873.337
12/26/2013  09:04:00       66.648       64.807        1.722       37.075       30.087       34.252     1374.520      905.211     1173.168        0.605        0.173       92.962       22.326        0.058      331.264       -0.834      873.342
12/26/2013  09:05:00       92.606       78.843        0.635       44.383       32.624       31.043     1969.829     1064.329      963.697        0.939        0.200      121.622       19.309        0.025      331.248       -0.859      873.343
12/26/2013  09:06:00      138.332       95.566       23.512       52.290       35.333       25.023     2734.217     1248.409      626.141        1.671        0.230      168.132       27.625        0.027      331.028       -1.221      873.358
12/26/2013  09:07:00      107.097       88.333       14.801       38.533       31.585       28.906     1484.813      997.635      835.555        1.140        0.166      138.825       20.012        0.021      330.940       -1.366      873.359
12/26/2013  09:08:00      112.831       55.619        7.122       42.681       35.694       29.628     1821.691     1274.047      877.809        0.992        0.199      125.795       21.769        0.030      330.975       -1.307      873.367
12/26/2013  09:09:00      121.348       99.949       17.809       37.012       33.321       35.757     1369.890     1110.316     1278.579        1.439        0.188      157.211       18.457        0.014      330.979       -1.302      873.367
12/26/2013  09:10:00       97.333       78.456       20.009       53.591       41.636       45.520     2872.046     1733.524     2072.049        1.135        0.334      125.017       36.332        0.084      331.179       -0.972      873.380
12/26/2013  09:11:00      134.870       48.507       37.796       67.354       56.124       40.033     4536.565     3149.871     1602.636        1.563        0.464      143.328       25.686        0.032      331.198       -0.943      873.386
12/26/2013  09:12:00      129.869      100.015       39.779       70.392       54.082       46.001     4955.030     2924.862     2116.099        1.922        0.500      163.918       42.325        0.067      331.107       -1.091      873.387
12/26/2013  09:13:00      135.524      105.573        7.410       38.677       51.882       35.295     1495.898     2691.730     1245.771        1.750        0.272      171.792       20.955        0.015      330.966       -1.321      873.394
12/26/2013  09:14:00       72.249       79.190       39.097       70.770       49.652       42.975     5008.358     2465.347     1846.832        1.117        0.466      107.196       41.431        0.149      331.302       -0.770      873.406
12/26/2013  09:15:00      100.968       92.687       58.254       58.794       47.236       44.096     3456.788     2231.268     1944.441        1.490        0.382      137.059       34.053        0.062      331.136       -1.044      873.427
12/26/2013  09:16:00       50.293       68.451       39.409       44.982       40.642       39.507     2023.397     1651.795     1560.829        0.700        0.262       84.941       30.132        0.126      331.447       -0.532      873.431
12/26/2013  09:17:00       -3.938       80.806       82.516       23.199       47.347       19.935      538.171     2241.704      397.415        0.827        0.159       80.901       18.779        0.054      331.441       -0.540      873.438
12/26/2013  09:18:00       88.507       76.102       50.799       87.929       40.190       52.280     7731.433     1615.239     2733.174        1.414        0.604      116.726       53.993        0.214      331.250       -0.855      873.442
12/26/2013  09:19:00      109.548       55.772        8.784       49.849       47.123       27.489     2484.943     2220.591      755.619        1.032        0.273      122.928       20.981        0.029      331.193       -0.949      873.455
12/26/2013  09:20:00       67.261       65.149       11.902       39.218       28.081       28.682     1538.016      788.522      822.659        0.603        0.157       93.640       16.083        0.029      331.243       -0.869      873.456
12/26/2013  09:21:00       87.780       74.957       11.485       46.836       37.562       36.055     2193.650     1410.912     1299.971        0.918        0.245      115.430       16.347        0.020      331.278       -0.810      873.465
12/26/2013  09:22:00      127.484       74.261       20.990       42.550       24.000       31.815     1810.497      576.010     1012.216        1.280        0.170      147.536       22.184        0.023      331.102       -1.098      873.489
12/26/2013  09:23:00       57.591       33.708       15.124       45.363       26.181       27.052     2057.811      685.433      731.832        0.408        0.174       66.730       26.650        0.159      331.438       -0.547      873.514
12/26/2013  09:24:00       74.152       66.980        9.604       32.225       32.297       25.481     1038.437     1043.117      649.280        0.640        0.137       99.925       16.851        0.028      331.472       -0.492      873.518
12/26/2013  09:25:00       57.378       72.454       56.544       79.294       56.801       54.941     6287.506     3226.328     3018.512        1.213        0.627       92.422       51.598        0.312      331.566       -0.337      873.527
12/26/2013  09:26:00       87.273       53.999       39.015       47.259       29.402       38.131     2233.430      864.462     1453.945        0.830        0.228      102.628       24.880        0.059      331.284       -0.799      873.555
12/26/2013  09:27:00       24.175       63.507       80.164       45.938       42.987       29.807     2110.343     1847.912      888.446        0.794        0.242       67.952       23.478        0.119      331.612       -0.261      873.565
12/26/2013  09:28:00       73.010       84.461       66.040       38.069       50.738       41.554     1449.285     2574.327     1726.771        1.129        0.288      111.643       32.250        0.083      331.423       -0.571      873.577
12/26/2013  09:29:00       69.338       51.486       35.866       67.345       30.695       32.316     4535.385      942.186     1044.353        0.763        0.326       86.363       29.615        0.118      331.648       -0.202      873.594
12/26/2013  09:30:00       81.363       78.116       35.770       45.550       35.642       34.654     2074.780     1270.318     1200.915        0.927        0.227      112.792       26.219        0.054      331.526       -0.401      873.602
12/26/2013  09:31:00       31.722       68.523       81.749       39.233       34.947       32.853     1539.194     1221.261     1079.344        0.811        0.192       75.510       18.192        0.058      331.812        0.069      873.621
12/26/2013  09:32:00       51.650       74.107       57.537       51.358       34.468       53.750     2637.653     1188.039     2889.109        0.909        0.336       90.330       44.784        0.246      331.620       -0.248      873.645
12/26/2013  09:33:00       13.873       43.899       58.908       27.659       34.899       17.992      765.001     1217.929      323.712        0.395        0.115       46.039       19.224        0.174      331.971        0.331      873.656
12/26/2013  09:34:00       71.735       60.268       37.068       53.257       29.525       41.172     2836.301      871.710     1695.123        0.778        0.270       93.692       32.937        0.124      331.732       -0.062      873.662
12/26/2013  09:35:00       75.922       61.283        6.623       45.147       33.947       29.295     2038.209     1152.374      858.169        0.681        0.202       97.569       20.644        0.045      331.586       -0.303      873.654
12/26/2013  09:36:00       17.833       56.431       50.922       38.553       31.069       37.130     1486.346      965.289     1378.627        0.496        0.192       59.182       11.980        0.041      331.945        0.288      873.664
12/26/2013  09:37:00       42.936       62.835       64.963       49.355       40.706       33.053     2435.890     1656.955     1092.469        0.760        0.259       76.103       27.456        0.130      332.163        0.647      873.672
12/26/2013  09:38:00       41.414       76.654       63.617       60.192       34.905       33.665     3623.071     1218.350     1133.337        0.881        0.299       87.126       27.212        0.098      332.069        0.492      873.670
12/26/2013  09:39:00      126.877       92.429       26.186       40.749       29.684       34.867     1660.495      881.162     1215.690        1.454        0.188      156.974       27.190        0.030      331.774        0.007      873.677
12/26/2013  09:40:00       -1.212       58.668       61.665       22.685       46.889       31.550      514.593     2198.621      995.390        0.548        0.185       58.680       26.273        0.200      332.318        0.903      873.674
12/26/2013  09:41:00       66.397       89.742       77.563       80.982       54.988       52.886     6558.156     3023.649     2796.891        1.543        0.619      111.634       53.629        0.231      332.213        0.727      873.680
12/26/2013  09:42:00       95.145       78.654       24.375       50.011       33.022       33.622     2501.064     1090.437     1130.422        1.028        0.236      123.446       19.127        0.024      331.946        0.290      873.697
12/26/2013  09:43:00      111.412       96.997       62.955       51.419       35.310       39.590     2643.946     1246.769     1567.364        1.562        0.273      147.720       28.247        0.037      332.049        0.458      873.698
12/26/2013  09:44:00       68.146       79.324       30.232       34.131       32.592       29.030     1164.911     1062.258      842.752        0.746        0.153      104.576       11.879        0.013      332.111        0.562      873.713
12/26/2013  09:45:00      135.942       80.259       40.217       47.783       39.720       38.534     2283.215     1577.672     1484.833        1.594        0.267      157.867       14.826        0.009      332.173        0.663      873.718
12/26/2013  09:46:00       91.360       77.090       79.001       53.620       47.183       55.011     2875.138     2226.236     3026.158        1.433        0.406      119.539       36.023        0.091      332.133        0.598      873.735
12/26/2013  09:47:00       86.519       51.437       12.044       40.941       40.856       31.238     1676.197     1669.192      975.784        0.730        0.216      100.654       18.082        0.032      332.311        0.892      873.759
12/26/2013  09:48:00       50.917      118.689       -4.227       45.753       60.579       41.967     2093.330     3669.862     1761.245        1.211        0.376      129.150       32.285        0.062      332.457        1.133      873.771
12/26/2013  09:49:00      162.478       66.513        6.744       65.928       39.399       39.928     4346.529     1552.312     1594.270        1.918        0.375      175.565       14.305        0.007      332.604        1.373      873.775
12/26/2013  09:50:00      117.715       79.186       16.999       59.534       58.141       47.278     3544.293     3380.325     2235.173        1.479        0.458      141.871       25.917        0.033      332.537        1.264      873.779
12/26/2013  09:51:00      146.392       85.677       25.397       47.833       24.809       38.270     2287.971      615.476     1464.575        1.689        0.218      169.621       24.613        0.021      332.419        1.068      873.779
12/26/2013  09:52:00      109.728       54.862        1.193       59.779       45.660       28.108     3573.500     2084.805      790.032        1.075        0.322      122.679       25.698        0.044      332.490        1.187      873.773
12/26/2013  09:53:00      103.140       84.535       13.229       29.352       42.843       37.347      861.527     1835.504     1394.811        1.102        0.205      133.357       10.533        0.006      332.605        1.375      873.764
12/26/2013  09:54:00      156.114      101.525       15.897       53.806       49.030       52.873     2895.129     2403.909     2795.520        2.151        0.405      186.223       19.569        0.011      332.516        1.228      873.771
12/26/2013  09:55:00       74.186       69.983        3.677       42.791       32.708       26.595     1831.061     1069.797      707.289        0.701        0.180      101.986       18.638        0.033      332.557        1.298      873.764
12/26/2013  09:56:00      102.414      122.670       -4.518       81.186       75.365       47.546     6591.112     5679.951     2260.663        2.004        0.727      159.802       49.316        0.095      332.698        1.527      873.756
12/26/2013  09:57:00       94.655      124.742        0.508       65.521       80.294       42.834     4292.958     6447.079     1834.793        1.855        0.629      156.589       28.437        0.033      332.774        1.653      873.757
12/26/2013  09:58:00      146.767       95.362       25.967       83.304       46.535       42.599     6939.515     2165.522     1814.677        2.111        0.546      175.027       33.329        0.036      332.814        1.719      873.757
12/26/2013  09:59:00      120.959      107.321       -0.562      108.011       49.483       52.846    11666.433     2448.611     2792.696        2.153        0.845      161.705       36.974        0.052      332.752        1.617      873.777
12/26/2013  10:00:00      139.104      114.701       10.070       79.442       48.669       44.669     6311.081     2368.653     1995.319        2.164        0.534      180.295       28.744        0.025      332.660        1.465      873.774
12/26/2013  10:01:00       77.767       86.416       11.436       61.900       50.737       51.890     3831.666     2574.284     2692.546        1.137        0.455      116.256       37.139        0.102      332.668        1.480      873.766
12/26/2013  10:02:00      101.478       78.242        0.378       47.724       37.513       35.387     2277.534     1407.223     1252.204        1.068        0.247      128.139       19.777        0.024      332.591        1.351      873.763
12/26/2013  10:03:00      138.617       96.332       27.778       64.160       53.249       53.149     4116.565     2835.509     2824.862        1.952        0.489      168.803       19.883        0.014      332.580        1.333      873.749
12/26/2013  10:04:00      180.519       94.887       17.980       63.788       41.514       42.760     4068.918     1723.375     1828.433        2.477        0.381      203.938       34.737        0.029      332.529        1.250      873.745
12/26/2013  10:05:00      123.432       82.636       10.435       35.128       35.430       29.176     1233.964     1255.299      851.262        1.276        0.167      148.540       21.176        0.020      332.439        1.102      873.746
12/26/2013  10:06:00      106.216       67.437       -9.532       22.620       21.763       21.201      511.647      473.644      449.477        0.868        0.072      125.816        6.089        0.002      332.463        1.142      873.737
12/26/2013  10:07:00       81.370       60.605       -8.461       25.489       16.630       28.452      649.698      276.563      809.504        0.605        0.087      101.459       10.473        0.011      332.665        1.475      873.737
12/26/2013  10:08:00       93.263       81.408        3.228       67.525       41.757       28.775     4559.683     1743.675      828.029        1.123        0.357      123.795       10.840        0.008      332.884        1.835      873.736
12/26/2013  10:09:00       16.009       34.551        7.336       28.050       39.186       22.194      786.793     1535.525      492.594        0.216        0.141       38.080       11.578        0.092      333.278        2.488      873.747
12/26/2013  10:10:00       91.732       90.658       47.133       76.005       48.219       40.896     5776.768     2325.053     1672.522        1.431        0.489      128.972       29.901        0.054      332.919        1.894      873.733
12/26/2013  10:11:00       93.980       92.302       47.028       45.660       38.273       43.645     2084.858     1464.842     1904.907        1.251        0.273      131.727       28.792        0.048      332.906        1.873      873.733
12/26/2013  10:12:00       85.730       31.841       37.929       31.191       36.665       35.717      972.868     1344.302     1275.723        0.670        0.180       91.452       22.945        0.063      332.860        1.798      873.730
12/26/2013  10:13:00       15.154       34.999       35.874       34.254       30.293       29.952     1173.356      917.675      897.126        0.286        0.149       38.139       23.525        0.380      333.433        2.744      873.729
12/26/2013  10:14:00       68.340       49.224       18.269       39.448       40.372       37.188     1556.181     1629.866     1382.983        0.600        0.228       84.223       16.357        0.038      333.193        2.346      873.717
12/26/2013  10:15:00       25.282       68.014       59.350       49.676       49.964       39.193     2467.699     2496.376     1536.054        0.764        0.325       72.561       34.100        0.221      333.326        2.568      873.711
12/26/2013  10:16:00       99.769       78.716       50.982       37.792       22.874       30.002     1428.269      523.220      900.144        1.080        0.143      127.083       17.574        0.019      333.004        2.036      873.712
12/26/2013  10:17:00       26.840       52.628       55.843       53.926       47.227       35.233     2907.976     2230.421     1241.345        0.649        0.319       59.077       16.376        0.077      333.353        2.612      873.701
12/26/2013  10:18:00        6.225       42.392       65.044       24.704       37.182       26.688      610.287     1382.538      712.275        0.439        0.135       42.846       22.334        0.272      333.334        2.581      873.698
12/26/2013  10:19:00       80.354       66.867       26.317       52.345       42.141       37.098     2740.016     1775.852     1376.278        0.876        0.295      104.537       22.208        0.045      332.987        2.007      873.686
12/26/2013  10:20:00       16.012       51.135       65.710       31.904       37.942       31.295     1017.874     1439.604      979.397        0.531        0.172       53.583       20.505        0.146      333.560        2.955      873.672
12/26/2013  10:21:00       35.041       76.714       73.094       46.745       45.944       37.843     2185.058     2110.850     1432.096        0.909        0.286       84.338       33.878        0.161      333.183        2.332      873.667
12/26/2013  10:22:00       47.685       46.156       74.681       37.808       54.982       29.177     1429.474     3023.002      851.312        0.764        0.265       66.365       24.283        0.134      333.280        2.491      873.648
12/26/2013  10:23:00       34.337      -22.453       30.933       31.093       28.241       39.043      966.755      797.527     1524.323        0.296        0.164       41.026       24.033        0.343      333.134        2.250      873.645
12/26/2013  10:24:00       20.906       51.329       50.904       29.988       45.580       37.653      899.308     2077.531     1417.764        0.503        0.220       55.424       36.770        0.440      333.380        2.656      873.638
12/26/2013  10:25:00       83.071       64.893       68.786       52.556       46.274       37.897     2762.095     2141.283     1436.156        1.109        0.317      105.413       31.585        0.090      333.304        2.532      873.630
12/26/2013  10:26:00       41.642       -2.528       41.077       50.510       68.937       34.853     2551.240     4752.288     1214.723        0.597        0.426       41.718       31.570        0.573      333.431        2.740      873.628
12/26/2013  10:27:00       38.477       64.527       83.498       56.902       45.382       42.396     3237.819     2059.509     1797.395        0.985        0.355       75.128       37.196        0.245      333.385        2.666      873.629
12/26/2013  10:28:00      108.577       97.016       58.326       34.931       25.143       39.725     1220.179      632.173     1578.077        1.402        0.172      145.606       20.267        0.019      333.097        2.188      873.618
12/26/2013  10:29:00       71.600      120.603      102.716       52.016       40.358       42.797     2705.678     1628.763     1831.622        1.819        0.308      140.256       35.387        0.064      333.083        2.165      873.605
12/26/2013  10:30:00       71.950       76.398       63.671       42.786       37.652       44.401     1830.682     1417.704     1971.449        1.014        0.261      104.945       32.559        0.096      333.093        2.183      873.596
12/26/2013  10:31:00       38.319       58.952       79.137       48.255       47.711       27.201     2328.532     2276.380      739.887        0.827        0.267       70.311       16.893        0.058      333.289        2.506      873.583
12/26/2013  10:32:00       44.399      -66.974        2.196       52.311       79.200       47.109     2736.419     6272.635     2219.230        0.884        0.561       80.354       33.776        0.177      333.450        2.772      873.573
12/26/2013  10:33:00       38.985       58.059       99.253       58.762       67.574       52.604     3452.987     4566.269     2767.182        1.276        0.539       69.933       44.602        0.407      333.535        2.915      873.550
12/26/2013  10:34:00       46.797       41.842       83.301       51.732       80.093       49.065     2676.213     6414.967     2407.385        1.119        0.575       62.775       54.117        0.743      333.280        2.492      873.547
12/26/2013  10:35:00       56.204      -37.441       36.138       35.087       58.043       47.515     1231.113     3369.045     2257.706        0.636        0.343       67.533       37.569        0.309      333.556        2.948      873.525
12/26/2013  10:36:00       86.652       24.204       49.495       58.728       30.008       34.692     3448.920      900.461     1203.520        0.805        0.278       89.969       28.315        0.099      333.326        2.567      873.520
12/26/2013  10:37:00       49.128       -0.584       38.583       50.420       67.878       45.353     2542.136     4607.359     2056.934        0.655        0.460       49.132       44.523        0.821      333.359        2.621      873.506
12/26/2013  10:38:00       28.186      -35.090       25.875       47.006       65.971       50.957     2209.577     4352.172     2596.655        0.593        0.458       45.008       44.739        0.988      333.574        2.978      873.488
12/26/2013  10:39:00       42.866       -6.383       31.393       53.669       69.361       47.535     2880.386     4810.990     2259.614        0.641        0.498       43.339       50.525        1.359      333.358        2.620      873.478
12/26/2013  10:40:00      -25.062       31.224       47.521       27.722       33.689       41.949      768.517     1134.935     1759.709        0.376        0.183       40.038       19.992        0.249      333.537        2.916      873.456
12/26/2013  10:41:00        9.471       34.076       30.288       28.788       20.973       27.182      828.767      439.859      738.860        0.209        0.100       35.368        4.241        0.014      333.809        3.369      873.448
12/26/2013  10:42:00       -5.145      -51.555       -8.016       65.276       48.289       30.718     4260.897     2331.867      943.608        0.514        0.377       51.811       34.811        0.451      333.479        2.820      873.428
12/26/2013  10:43:00       53.700       -9.471       43.639       62.981       96.745       53.483     3966.607     9359.532     2860.395        1.053        0.809       54.529       69.254        1.613      333.798        3.348      873.415
12/26/2013  10:44:00       20.300      -11.466       51.305       51.045       66.071       42.765     2605.635     4365.352     1828.844        0.599        0.440       23.315       50.525        4.696      333.762        3.290      873.399
12/26/2013  10:45:00      -11.906       -1.050       15.866       32.747       35.057       25.264     1072.381     1228.971      638.293        0.167        0.147       11.952       22.373        3.504      333.804        3.359      873.380
12/26/2013  10:46:00      -12.360      -11.310       13.370       36.748       40.540       25.169     1350.424     1643.488      633.459        0.204        0.181       16.754       24.479        2.135      333.738        3.250      873.365
12/26/2013  10:47:00      -83.832      -26.527       13.633       66.002       46.396       28.936     4356.327     2152.631      837.291        0.763        0.367       87.929       28.376        0.104      333.224        2.399      873.342
12/26/2013  10:48:00       15.560      -46.511        6.108       33.021       47.114       35.039     1090.405     2219.725     1227.720        0.349        0.227       49.044       26.240        0.286      333.583        2.992      873.314
12/26/2013  10:49:00      -24.677      -49.986        9.218       35.530       44.920       29.905     1262.412     2017.822      894.315        0.368        0.209       55.746       24.582        0.194      333.432        2.744      873.303
12/26/2013  10:50:00      -55.197      -11.498        1.298       42.011       18.683       17.856     1764.884      349.072      318.854        0.281        0.122       56.382       10.509        0.035      333.362        2.628      873.288
12/26/2013  10:51:00      -96.687      -62.204       -9.287       30.544       46.241       29.188      932.960     2138.243      851.924        0.861        0.196      114.968       13.816        0.014      333.125        2.235      873.270
12/26/2013  10:52:00      -49.044      -59.828        4.765       59.413       43.769       28.764     3529.901     1915.719      827.370        0.614        0.314       77.361       34.380        0.198      333.431        2.741      873.238
12/26/2013  10:53:00      -70.922      -39.043        1.105       45.429       31.602       23.579     2063.831      998.712      555.973        0.509        0.181       80.959       24.014        0.088      333.402        2.694      873.229
12/26/2013  10:54:00      -62.557      -40.046       -3.811       54.969       30.761       23.387     3021.568      946.233      546.945        0.502        0.226       74.277       18.624        0.063      333.377        2.652      873.208
12/26/2013  10:55:00      -86.375      -43.045        5.970       57.798       28.720       27.296     3340.620      824.844      745.056        0.713        0.246       96.506       29.362        0.093      333.322        2.560      873.195
12/26/2013  10:56:00      -32.077      -44.678       -3.187       34.729       39.100       20.850     1206.136     1528.817      434.716        0.310        0.158       55.001       18.941        0.119      333.420        2.725      873.174
12/26/2013  10:57:00      -61.346      -36.017        1.777       34.643       25.470       20.054     1200.136      648.727      402.168        0.366        0.113       71.137       21.773        0.094      333.357        2.618      873.154
12/26/2013  10:58:00       -9.982       17.669       36.713       50.414       28.694       20.946     2541.523      823.339      438.732        0.278        0.190       20.294       25.451        1.573      333.884        3.494      873.127
12/26/2013  10:59:00      -72.106       14.695        6.410       41.797       32.795       24.858     1746.993     1075.537      617.912        0.445        0.172       73.588       14.880        0.041      333.385        2.665      873.105
12/26/2013  11:00:00       41.551       13.362       35.286       35.875       27.739       39.877     1287.003      769.437     1590.194        0.340        0.182       43.647       17.786        0.166      333.984        3.658      873.085
12/26/2013  11:01:00       65.921       65.103       46.612       45.537       35.709       34.418     2073.633     1275.142     1184.620        0.764        0.227       92.649       23.029        0.062      333.777        3.312      873.047
12/26/2013  11:02:00        4.867       67.911       92.916       38.356       46.313       25.469     1471.181     2144.866      648.688        0.877        0.213       68.085       23.063        0.115      333.846        3.429      873.033
12/26/2013  11:03:00       38.075      -14.363       32.904       48.545       44.862       39.641     2356.651     2012.586     1571.370        0.434        0.297       40.694       40.073        0.970      333.952        3.606      873.028
12/26/2013  11:04:00       24.609      -53.260       13.289       36.534       62.642       27.716     1334.735     3924.039      768.155        0.482        0.301       58.671       28.222        0.231      333.980        3.651      873.013
12/26/2013  11:05:00       36.904        1.234       59.744       40.420       48.930       36.536     1633.781     2394.108     1334.846        0.515        0.268       36.924       21.608        0.342      334.225        4.058      872.989
12/26/2013  11:06:00       71.200       45.548       74.097       46.306       57.111       47.540     2144.259     3261.610     2260.057        1.015        0.383       84.522       30.648        0.131      333.737        3.248      872.991
12/26/2013  11:07:00       56.276       83.195       40.122       37.580       29.805       43.193     1412.241      888.353     1865.651        0.793        0.208      100.442       25.719        0.066      333.540        2.921      872.957
12/26/2013  11:08:00       16.482       15.344       43.705       30.271       34.409       28.217      916.356     1183.995      796.189        0.266        0.145       22.519       24.829        1.216      334.077        3.812      872.938
12/26/2013  11:09:00       22.803       12.487       53.434       41.580       38.981       24.512     1728.888     1519.486      600.859        0.369        0.192       25.998       25.308        0.948      334.191        4.002      872.914
12/26/2013  11:10:00       -1.828        1.344       41.488       20.767       12.230       17.703      431.272      149.576      313.413        0.131        0.045        2.269       11.665       26.428      334.445        4.421      872.884
12/26/2013  11:11:00      -33.295       11.713        0.812       25.555       29.515       16.765      653.051      871.164      281.066        0.153        0.090       35.296        8.246        0.055      333.806        3.362      872.871
12/26/2013  11:12:00      -46.905       -1.804       -2.299       15.028       12.774       12.081      225.842      163.168      145.951        0.137        0.027       46.940        6.798        0.021      333.569        2.970      872.848
12/26/2013  11:13:00      -51.070       13.907       -1.132       15.877       11.678       14.319      252.089      136.369      205.044        0.170        0.030       52.929        9.103        0.030      333.576        2.981      872.827
12/26/2013  11:14:00      -33.937        3.791        5.459       26.495       18.465       17.610      701.982      340.970      310.110        0.127        0.068       34.148       18.207        0.284      333.969        3.633      872.798
12/26/2013  11:15:00      -55.444       42.520       -0.315       26.526       32.413       27.058      703.632     1050.616      732.146        0.368        0.124       69.871       22.157        0.101      333.952        3.605      872.773
12/26/2013  11:16:00        9.844      -67.448      -18.488       88.249       65.365       32.048     7787.812     4272.596     1027.096        0.904        0.654       68.162       46.525        0.466      333.806        3.361      872.758
12/26/2013  11:17:00      116.097      -91.151      -27.772       52.635       51.602       37.966     2770.451     2662.727     1441.441        1.472        0.344      147.605       40.141        0.074      333.727        3.231      872.743
12/26/2013  11:18:00       39.443       -8.907       42.332       39.424       52.579       41.355     1554.285     2764.565     1710.215        0.473        0.301       40.436       31.161        0.594      334.205        4.024      872.728
12/26/2013  11:19:00       47.590      -10.199       49.939       46.107       55.090       40.752     2125.839     3034.925     1660.742        0.584        0.341       48.670       33.020        0.460      334.154        3.940      872.713
12/26/2013  11:20:00      -19.056       30.229       63.364       44.483       40.266       36.859     1978.732     1621.350     1358.577        0.512        0.248       35.734       31.914        0.798      334.096        3.843      872.701
12/26/2013  11:21:00        8.168       66.815       55.923       34.124       41.377       32.354     1164.474     1712.069     1046.798        0.579        0.196       67.312       27.520        0.167      333.998        3.682      872.689
12/26/2013  11:22:00      -37.529       -9.637       23.987       46.161       38.931       25.197     2130.853     1515.641      634.873        0.318        0.214       38.746       28.610        0.545      334.039        3.750      872.676
12/26/2013  11:23:00       10.633       21.396       39.503       34.122       29.648       27.875     1164.281      878.978      776.999        0.248        0.141       23.892       23.710        0.985      334.287        4.160      872.668
12/26/2013  11:24:00       68.517      -81.974        7.517       64.861       76.985       49.626     4206.922     5926.630     2462.776        1.203        0.630      106.838       62.384        0.341      333.963        3.624      872.647
12/26/2013  11:25:00       50.900      -53.871       14.407       47.933       72.685       44.157     2297.529     5283.120     1949.826        0.761        0.477       74.114       49.617        0.448      333.979        3.649      872.633
12/26/2013  11:26:00       12.454       50.896       84.495       41.050       57.558       40.887     1685.102     3312.914     1671.732        0.828        0.333       52.398       43.395        0.686      334.074        3.807      872.610
12/26/2013  11:27:00       23.207       35.225       49.605       36.227       39.810       37.741     1312.370     1584.801     1424.384        0.428        0.216       42.183       29.302        0.483      334.093        3.838      872.586
12/26/2013  11:28:00       47.231        8.696       40.952       44.872       42.407       30.961     2013.483     1798.351      958.563        0.438        0.239       48.025       31.879        0.441      333.990        3.669      872.549
12/26/2013  11:29:00       34.296      -11.794       15.944       35.615       48.937       28.569     1268.437     2394.787      816.168        0.302        0.224       36.267       31.345        0.747      334.154        3.940      872.528
12/26/2013  11:30:00       -0.636       38.970       40.107       32.372       23.118       32.909     1047.934      534.419     1083.011        0.290        0.133       38.975       18.364        0.222      334.510        4.532      872.497
12/26/2013  11:31:00       13.493        3.789       55.993       42.107       54.816       27.642     1773.000     3004.777      764.104        0.444        0.277       14.015       29.296        4.369      334.618        4.709      872.486
12/26/2013  11:32:00        7.327       58.374       95.685       36.875       47.353       33.427     1359.732     2242.342     1117.355        0.867        0.236       58.832       27.768        0.223      334.606        4.689      872.467
12/26/2013  11:33:00       73.309      -75.904       19.229       56.154      101.475       52.144     3153.261    10297.224     2719.033        1.383        0.808      105.526       61.164        0.336      334.405        4.355      872.453
12/26/2013  11:34:00       26.346       41.421       80.662       43.724       61.844       39.612     1911.796     3824.626     1569.141        0.811        0.365       49.090       38.443        0.613      334.422        4.385      872.456
12/26/2013  11:35:00       -6.338       -1.658       28.593       52.980       62.654       31.557     2806.867     3925.496      995.841        0.429        0.386        6.552       18.499        7.973      334.341        4.249      872.436
12/26/2013  11:36:00       17.759      -31.791       40.183       37.185       43.511       36.072     1382.761     1893.232     1301.164        0.376        0.229       36.415       14.063        0.149      334.527        4.559      872.436
12/26/2013  11:37:00        5.371      -45.334       26.216       43.712       60.330       36.026     1910.735     3639.691     1297.859        0.481        0.342       45.651       28.195        0.381      334.553        4.602      872.413
12/26/2013  11:38:00       26.604      -36.896       19.802       50.244       64.484       47.877     2524.509     4158.201     2292.161        0.572        0.449       45.487       50.123        1.214      334.630        4.730      872.401
12/26/2013  11:39:00       16.599       -2.490       52.646       43.137       87.311       53.160     1860.799     7623.177     2825.976        0.768        0.615       16.785       47.541        8.022      334.444        4.420      872.381
12/26/2013  11:40:00       24.003      -95.685      -13.254       59.473       43.977       27.758     3537.064     1933.942      770.517        0.807        0.312       98.650       27.917        0.080      334.175        3.974      872.374
12/26/2013  11:41:00       -5.176      -54.118       17.911       27.220       34.422       33.007      740.913     1184.871     1089.457        0.315        0.151       54.365       19.252        0.125      334.292        4.168      872.367
12/26/2013  11:42:00       10.241       -8.470        4.893       20.354       18.988       17.119      414.269      360.549      293.051        0.063        0.053       13.290        7.706        0.336      334.666        4.791      872.350
12/26/2013  11:43:00       15.374      -64.719      -11.219       37.538       33.292       30.604     1409.105     1108.379      936.634        0.400        0.173       66.520       11.333        0.029      334.475        4.473      872.346
12/26/2013  11:44:00       20.953      -50.426        1.793       48.273       49.550       29.514     2330.235     2455.184      871.068        0.432        0.283       54.606       33.332        0.373      334.388        4.328      872.329
12/26/2013  11:45:00       11.244      -82.398       -3.435       57.309       35.411       36.425     3284.342     1253.968     1326.812        0.640        0.293       83.162       32.312        0.151      334.228        4.062      872.306
12/26/2013  11:46:00       22.581      -57.986       10.746       44.971       59.501       41.335     2022.346     3540.398     1708.564        0.563        0.364       62.228       39.123        0.395      334.482        4.484      872.293
12/26/2013  11:47:00       46.113      -61.587       -1.853       41.382       47.695       30.735     1712.487     2274.850      944.662        0.543        0.247       76.937       21.652        0.079      334.271        4.134      872.276
12/26/2013  11:48:00       45.115      -50.473        2.081       38.408       31.640       26.882     1475.178     1001.097      722.645        0.389        0.160       67.697       24.533        0.131      334.537        4.577      872.268
12/26/2013  11:49:00       35.826      -67.040        5.596       80.412       56.067       34.746     6466.064     3143.544     1207.297        0.831        0.541       76.013       40.280        0.281      334.293        4.171      872.263
12/26/2013  11:50:00       32.496      -25.214       -0.513       34.750       32.448       27.148     1207.553     1052.896      736.999        0.234        0.150       41.131       26.887        0.427      334.165        3.958      872.264
12/26/2013  11:51:00       42.377       54.626       56.985       43.372       43.582       41.773     1881.114     1899.376     1744.974        0.678        0.276       69.136       33.865        0.240      334.504        4.520      872.249
12/26/2013  11:52:00      123.151       84.478       40.199       57.911       39.218       43.411     3353.738     1538.050     1884.509        1.535        0.339      149.341       26.290        0.031      334.327        4.224      872.225
12/26/2013  11:53:00      132.807       81.021       12.805       60.735       49.254       37.582     3688.717     2425.966     1412.397        1.595        0.376      155.571       22.787        0.021      334.168        3.962      872.194
12/26/2013  11:54:00       49.404       55.847       62.343       46.390       55.684       41.005     2152.004     3100.674     1681.369        0.819        0.347       74.563       20.794        0.078      334.799        5.011      872.188
12/26/2013  11:55:00        6.745       88.203      112.526       34.842       55.345       31.827     1213.933     3063.064     1012.945        1.289        0.264       88.460       26.900        0.092      334.800        5.011      872.165
12/26/2013  11:56:00       39.651       97.514       95.853       78.129       57.295       43.006     6104.122     3282.686     1849.535        1.575        0.562      105.267       43.401        0.170      334.640        4.745      872.160
12/26/2013  11:57:00       89.908       56.851       46.439       61.706       59.322       44.854     3807.648     3519.151     2011.890        1.140        0.467      106.375       36.070        0.115      334.353        4.270      872.154
12/26/2013  11:58:00      113.803       69.618       26.852       37.977       30.812       39.361     1442.233      949.380     1549.292        1.123        0.197      133.409       24.792        0.035      334.359        4.279      872.137
12/26/2013  11:59:00       57.824       66.546       26.131       61.611       35.211       36.800     3795.877     1239.783     1354.249        0.742        0.319       88.158       13.262        0.023      334.528        4.560      872.124
12/26/2013  12:00:00       67.697       64.605       11.277       40.830       28.647       36.689     1667.059      820.666     1346.086        0.636        0.192       93.577        9.522        0.010      334.305        4.189      872.130
12/26/2013  12:01:00       37.655       61.667       13.567       45.531       34.112       35.271     2073.082     1163.608     1244.022        0.494        0.224       72.254       21.433        0.088      334.476        4.473      872.128
12/26/2013  12:02:00       21.606       65.613       -4.467       27.325       35.837       22.022      746.635     1284.272      484.959        0.365        0.126       69.079       15.860        0.053      334.547        4.591      872.112
12/26/2013  12:03:00       33.026       53.598        6.754       29.855       35.064       42.395      891.349     1229.495     1797.322        0.396        0.196       62.956       28.829        0.210      334.679        4.812      872.097
12/26/2013  12:04:00       21.344       68.121       54.836       55.311       46.592       47.523     3059.314     2170.838     2258.457        0.779        0.374       71.387       40.894        0.328      334.875        5.136      872.083
12/26/2013  12:05:00       48.103       62.249       76.021       77.150       42.781       47.274     5952.051     1830.231     2234.832        1.099        0.501       78.670       47.125        0.359      335.034        5.401      872.080
12/26/2013  12:06:00       80.429       84.146       -7.270       28.598       22.458       24.454      817.854      504.381      598.012        0.776        0.096      116.401        9.589        0.007      334.325        4.223      872.092
12/26/2013  12:07:00       68.242       65.308       11.819       42.768       25.954       31.767     1829.097      673.586     1009.164        0.629        0.176       94.457       14.032        0.022      334.411        4.368      872.076
12/26/2013  12:08:00       96.615       73.127       13.408       36.119       29.403       30.176     1304.608      864.517      910.564        0.897        0.154      121.169       19.569        0.026      334.445        4.423      872.075
12/26/2013  12:09:00      130.130       77.847        7.447       33.943       33.508       34.658     1152.138     1122.778     1201.167        1.326        0.174      151.638       12.506        0.007      334.676        4.805      872.070
12/26/2013  12:10:00       72.051       49.594        6.909       50.550       40.593       37.881     2555.270     1647.778     1434.990        0.667        0.282       87.469       14.208        0.026      334.880        5.145      872.046
12/26/2013  12:11:00       19.556       50.607       51.807       34.949       52.990       33.171     1221.467     2807.927     1100.329        0.538        0.256       54.254       19.343        0.127      335.097        5.504      872.042
12/26/2013  12:12:00       84.274       18.682       58.866       48.234      111.563       54.932     2326.500    12446.297     3017.502        1.435        0.890       86.320       64.809        0.564      334.783        4.982      872.040
12/26/2013  12:13:00      108.714       71.911       67.000       43.442       40.039       37.116     1887.205     1603.121     1377.570        1.317        0.243      130.346       27.738        0.045      334.558        4.608      872.028
12/26/2013  12:14:00       57.497       30.596       52.569       32.409       30.247       33.232     1050.366      914.853     1104.347        0.504        0.153       65.131       21.089        0.105      334.658        4.776      872.036
12/26/2013  12:15:00       46.673       25.349       56.894       29.312       27.535       22.271      859.197      758.182      496.001        0.409        0.106       53.112       10.841        0.042      334.729        4.893      872.036
12/26/2013  12:16:00       48.602       54.011       37.740       40.394       22.862       30.702     1631.672      522.683      942.603        0.490        0.155       72.659       15.062        0.043      334.546        4.591      872.016
12/26/2013  12:17:00       40.406       38.744       44.419       38.744       29.122       38.698     1501.124      848.062     1497.533        0.448        0.192       55.980       24.185        0.187      334.749        4.926      872.007
12/26/2013  12:18:00       38.580       15.610       50.696       41.783       36.707       36.866     1745.839     1347.374     1359.124        0.438        0.223       41.619       30.845        0.549      334.926        5.222      871.997
12/26/2013  12:19:00       32.342       21.733       45.065       33.534       43.119       42.436     1124.496     1859.228     1800.809        0.417        0.239       38.966       38.555        0.979      334.772        4.966      871.977
12/26/2013  12:20:00       69.760       51.981       37.837       41.690       31.274       34.432     1738.083      978.051     1185.540        0.645        0.195       86.997       28.245        0.105      334.816        5.038      871.957
12/26/2013  12:21:00        9.483       26.334       63.813       34.898       46.081       22.153     1217.876     2123.469      490.761        0.434        0.192       27.989       22.253        0.632      335.286        5.819      871.957
12/26/2013  12:22:00       49.212       45.644       34.034       60.092       33.514       29.601     3611.073     1123.220      876.247        0.564        0.281       67.121       18.482        0.076      334.827        5.057      871.957
12/26/2013  12:23:00       75.093       55.610       40.613       74.770       46.586       36.151     5590.626     2170.281     1306.865        0.972        0.453       93.442       31.858        0.116      334.987        5.322      871.943
12/26/2013  12:24:00      120.967       47.959       45.256       68.090       50.823       42.616     4636.309     2582.979     1816.136        1.401        0.452      130.127       37.820        0.084      334.825        5.053      871.924
12/26/2013  12:25:00      109.839       82.002       50.451       61.495       44.523       48.878     3781.575     1982.332     2389.029        1.474        0.408      137.073       37.344        0.074      334.833        5.066      871.907
12/26/2013  12:26:00       71.878       95.382       82.907       70.392       55.454       53.637     4955.073     3075.140     2876.932        1.602        0.545      119.433       48.525        0.165      334.803        5.016      871.882
12/26/2013  12:27:00      138.322      107.724       65.846       84.551       85.743       60.462     7148.834     7351.831     3655.659        2.661        0.908      175.321       61.167        0.122      334.686        4.818      871.863
12/26/2013  12:28:00       93.712       78.703       73.380       53.670       50.931       49.196     2880.459     2593.981     2420.279        1.413        0.395      122.377       39.332        0.103      334.784        4.986      871.857
12/26/2013  12:29:00      122.216       98.016       68.476       39.815       38.150       42.809     1585.222     1455.412     1832.587        1.705        0.244      156.665       33.400        0.045      334.676        4.805      871.832
12/26/2013  12:30:00       61.219       43.225       19.313       50.324       39.077       42.535     2532.550     1527.017     1809.259        0.593        0.293       74.941       32.985        0.194      334.681        4.814      871.825
12/26/2013  12:31:00      108.630       92.685       61.599       26.011       37.536       46.813      676.583     1408.959     2191.416        1.423        0.214      142.797       34.488        0.058      334.649        4.761      871.804
12/26/2013  12:32:00       30.239       -3.245       13.462       39.797       42.172       31.835     1583.776     1778.492     1013.480        0.274        0.219       30.412       21.134        0.483      335.052        5.430      871.775
12/26/2013  12:33:00       41.400      -32.131       20.375       50.680       52.198       36.898     2568.420     2724.587     1361.437        0.491        0.333       52.406       42.765        0.666      335.008        5.358      871.750
12/26/2013  12:34:00       13.921       21.693       25.487       25.566       35.320       21.226      653.619     1247.487      450.548        0.183        0.118       25.776       20.996        0.664      335.090        5.493      871.731
12/26/2013  12:35:00        6.280        8.908       57.425       45.713       67.588       41.862     2089.662     4568.084     1752.447        0.591        0.421       10.899       34.753       10.168      335.180        5.643      871.706
12/26/2013  12:36:00       72.906       37.908       43.746       33.198       41.605       31.211     1102.106     1730.947      974.156        0.624        0.190       82.172       26.883        0.107      334.969        5.293      871.686
12/26/2013  12:37:00       53.431       71.634       65.823       69.889       54.080       54.124     4884.540     2924.688     2929.396        1.153        0.537       89.366       39.801        0.198      335.064        5.450      871.667
12/26/2013  12:38:00       68.587        6.469       39.224       26.607       46.374       23.928      707.921     2150.555      572.570        0.486        0.172       68.892       16.705        0.059      334.797        5.007      871.672
12/26/2013  12:39:00       -1.858       23.526       53.352       17.435       46.328       28.572      303.973     2146.246      816.379        0.333        0.163       23.600       31.974        1.836      335.377        5.970      871.652
12/26/2013  12:40:00       24.315       53.322       80.700       42.578       38.659       23.691     1812.871     1494.554      561.272        0.691        0.193       58.604       22.291        0.145      335.352        5.929      871.644
12/26/2013  12:41:00      132.964       96.659       49.689       65.541       55.967       54.041     4295.566     3132.310     2920.422        1.992        0.517      164.385       52.261        0.101      334.999        5.341      871.640
12/26/2013  12:42:00       77.482       29.624       20.828       47.825       37.659       34.016     2287.241     1418.169     1157.091        0.609        0.243       82.952       19.795        0.057      335.073        5.465      871.632
12/26/2013  12:43:00       78.192       70.275       27.884       35.915       29.347       20.754     1289.911      861.251      430.716        0.721        0.129      105.132       15.983        0.023      334.928        5.224      871.602
12/26/2013  12:44:00       15.431       60.015       76.685       41.857       51.274       45.537     1752.042     2629.014     2073.582        0.809        0.323       61.967       40.599        0.429      335.302        5.846      871.589
12/26/2013  12:45:00       54.029       52.311       75.427       40.645       39.385       32.038     1652.043     1551.174     1026.430        0.779        0.211       75.203       28.310        0.142      335.124        5.549      871.595
12/26/2013  12:46:00       13.772       59.943       76.692       31.264       57.757       41.184      977.431     3335.846     1696.084        0.784        0.300       61.504       44.989        0.535      335.229        5.724      871.580
12/26/2013  12:47:00       78.747       80.752       82.128       70.256       59.982       49.779     4935.968     3597.797     2477.917        1.524        0.551      112.791       50.005        0.197      335.055        5.435      871.559
12/26/2013  12:48:00       85.068       49.181       63.903       53.972       57.028       46.621     2912.946     3252.185     2173.564        1.104        0.417       98.262       46.384        0.223      335.125        5.551      871.548
12/26/2013  12:49:00       37.023       79.932       78.743       56.649       62.716       46.683     3209.102     3933.310     2179.286        1.164        0.466       88.090       42.826        0.236      335.181        5.645      871.536
12/26/2013  12:50:00       22.241       77.615       49.883       38.647       34.803       38.699     1493.584     1211.238     1497.605        0.660        0.210       80.739       28.482        0.124      335.451        6.095      871.514
12/26/2013  12:51:00       61.107       60.486        7.627       58.374       42.522       31.381     3407.573     1808.089      984.754        0.682        0.310       85.980       23.280        0.073      335.243        5.748      871.487
12/26/2013  12:52:00       38.577       83.208       -9.940       49.173       76.727       30.710     2417.953     5887.098      943.091        0.888        0.462       91.716       31.076        0.115      335.251        5.760      871.468
12/26/2013  12:53:00       80.926       54.169       80.903       68.606       53.837       50.395     4706.745     2898.442     2539.636        1.309        0.507       97.383       42.450        0.190      335.354        5.932      871.450
12/26/2013  12:54:00       95.623       80.902       60.491       46.090       32.464       39.073     2124.292     1053.890     1526.726        1.203        0.235      125.255       23.995        0.037      335.069        5.459      871.437
12/26/2013  12:55:00      107.638       18.712       31.436       61.475       53.708       32.588     3779.136     2884.508     1061.956        1.032        0.386      109.252       25.420        0.054      335.087        5.487      871.427
12/26/2013  12:56:00       19.200       53.320       82.567       49.792       82.300       54.650     2479.275     6773.235     2986.608        1.113        0.612       56.672       51.979        0.841      335.528        6.222      871.402
12/26/2013  12:57:00       46.365       64.474       66.184       74.201       45.373       40.798     5505.743     2058.683     1664.502        0.996        0.461       79.414       35.774        0.203      335.590        6.325      871.416
12/26/2013  12:58:00       36.389       95.509       94.392       78.034       52.226       41.295     6089.359     2727.514     1705.304        1.494        0.526      102.206       44.663        0.191      335.425        6.051      871.407
12/26/2013  12:59:00       48.153      105.652       94.202       61.915       54.020       58.724     3833.496     2918.139     3448.470        1.628        0.510      116.108       54.467        0.220      335.185        5.651      871.398
12/26/2013  13:00:00       59.976      150.957      115.686       39.958       34.522       28.087     1596.639     1191.760      788.902        2.167        0.179      162.435       21.190        0.017      335.141        5.577      871.395
12/26/2013  13:01:00       79.530       59.399       57.558       52.700       46.121       42.019     2777.258     2127.144     1765.556        0.992        0.333       99.264       32.466        0.107      335.237        5.739      871.380
12/26/2013  13:02:00       57.498       77.154       65.909       57.969       51.402       49.255     3360.409     2642.209     2426.015        1.101        0.421       96.222       45.300        0.222      335.351        5.927      871.348
12/26/2013  13:03:00      140.375      116.420       63.290       71.363       44.431       51.939     5092.689     1974.139     2697.633        2.351        0.488      182.369       51.644        0.080      335.220        5.708      871.337
12/26/2013  13:04:00       72.451       66.681       61.710       59.670       40.664       39.004     3560.567     1653.583     1521.273        1.012        0.337       98.465       35.050        0.127      335.271        5.794      871.328
12/26/2013  13:05:00       40.867       57.136       70.640       58.227       39.211       38.085     3390.404     1537.503     1450.441        0.815        0.319       70.247       27.436        0.153      335.333        5.898      871.325
12/26/2013  13:06:00      107.003       35.470       61.682       67.634      120.833       64.293     4574.298    14600.694     4133.635        1.991        1.165      112.729       77.034        0.467      335.220        5.708      871.295
12/26/2013  13:07:00       73.989      114.674       94.136       60.986       52.589       43.595     3719.278     2765.623     1900.548        1.793        0.419      136.471       31.220        0.052      335.300        5.842      871.279
12/26/2013  13:08:00       80.949       93.606       83.930       50.330       45.742       39.731     2533.157     2092.312     1578.539        1.428        0.310      123.753       28.864        0.054      335.256        5.770      871.279
12/26/2013  13:09:00       92.147       55.865       40.299       36.786       36.346       49.665     1353.228     1321.050     2466.599        0.919        0.257      107.759       33.178        0.095      335.198        5.673      871.283
12/26/2013  13:10:00       64.514       59.782       47.559       36.929       29.402       29.228     1363.723      864.453      854.265        0.654        0.154       87.954       17.431        0.039      335.318        5.871      871.285
12/26/2013  13:11:00      115.863       78.720       16.200       59.043       41.669       40.828     3486.128     1736.282     1666.962        1.339        0.344      140.075       33.474        0.057      335.208        5.689      871.269
12/26/2013  13:12:00       99.668       65.451       11.666       42.322       39.651       35.607     1791.170     1572.189     1267.871        0.949        0.232      119.237       21.339        0.032      335.362        5.944      871.267
12/26/2013  13:13:00       24.619       32.132        6.347       35.086       31.017       24.339     1231.009      962.027      592.387        0.223        0.139       40.479       14.869        0.135      335.469        6.122      871.270
12/26/2013  13:14:00       80.561       55.694       44.228       58.098       50.738       50.008     3375.395     2574.300     2500.844        1.000        0.423       97.938       32.618        0.111      335.453        6.097      871.258
12/26/2013  13:15:00       55.359       88.766       96.895       47.366       49.269       42.402     2243.505     2427.389     1797.942        1.340        0.323      104.614       30.323        0.084      335.444        6.081      871.251
12/26/2013  13:16:00       33.944       67.769       94.211       66.547       67.232       52.871     4428.549     4520.138     2795.333        1.318        0.587       75.794       47.301        0.389      335.533        6.230      871.232
12/26/2013  13:17:00      102.859       82.821       37.455       50.575       44.505       45.601     2557.857     1980.705     2079.469        1.273        0.331      132.058       28.368        0.046      335.474        6.132      871.227
12/26/2013  13:18:00       51.918       92.303       89.180       59.550       59.622       56.523     3546.196     3554.749     3194.817        1.473        0.515      105.902       49.831        0.221      335.489        6.156      871.223
12/26/2013  13:19:00      103.786      102.911       62.478       45.004       38.347       40.395     2025.330     1470.478     1631.785        1.520        0.256      146.159       14.323        0.010      335.291        5.826      871.231
12/26/2013  13:20:00       32.422       33.035       59.085       48.131       51.548       45.585     2316.557     2657.214     2077.976        0.634        0.353       46.288       45.171        0.952      335.524        6.216      871.232
12/26/2013  13:21:00       19.478       39.687       57.721       22.411       36.478       27.721      502.264     1330.625      768.468        0.394        0.130       44.209       27.188        0.378      335.637        6.402      871.226
12/26/2013  13:22:00       36.280       29.385       24.900       32.175       34.061       33.476     1035.203     1160.178     1120.628        0.306        0.166       46.688        7.306        0.024      335.584        6.317      871.216
12/26/2013  13:23:00       53.009       48.791       11.285       28.866       24.999       16.795      833.256      624.946      282.087        0.353        0.087       72.045        6.580        0.008      335.347        5.919      871.205
12/26/2013  13:24:00       72.340       75.940       65.771       70.484       45.625       48.381     4968.003     2081.672     2340.678        1.236        0.470      104.881       33.954        0.105      335.688        6.487      871.202
12/26/2013  13:25:00      157.671      114.391       66.422       72.494       75.541       69.400     5255.424     5706.488     4816.370        2.907        0.789      194.796       50.934        0.068      335.196        5.667      871.198
12/26/2013  13:26:00       34.318      114.173      120.914       64.012       60.380       48.182     4097.514     3645.755     2321.460        1.945        0.503      119.219       52.017        0.190      335.421        6.041      871.198
12/26/2013  13:27:00       25.823       96.366       87.574       55.304       35.990       47.178     3058.504     1295.299     2225.737        1.210        0.329       99.766       43.510        0.190      335.623        6.381      871.189
12/26/2013  13:28:00      102.077       61.019       32.861       71.985       48.847       37.498     5181.791     2386.065     1406.117        1.210        0.449      118.924       40.292        0.115      335.573        6.297      871.176
12/26/2013  13:29:00       80.850       63.808       30.803       41.431       26.620       26.880     1716.563      708.607      722.548        0.735        0.157      102.996       15.620        0.023      335.459        6.107      871.170
12/26/2013  13:30:00       38.570       28.118       46.355       54.180       44.296       39.508     2935.468     1962.161     1560.889        0.544        0.323       47.731       34.787        0.531      335.780        6.642      871.158
12/26/2013  13:31:00       42.569       15.370       23.471       38.247       31.233       29.174     1462.803      975.490      851.135        0.294        0.164       45.259       23.774        0.276      335.654        6.432      871.162
12/26/2013  13:32:00       84.998       58.989       47.354       41.674       31.981       36.008     1736.691     1022.791     1296.557        0.850        0.203      103.462       25.724        0.062      335.495        6.166      871.162
12/26/2013  13:33:00       50.869       40.153       27.676       39.399       21.848       21.297     1552.281      477.334      453.568        0.372        0.124       64.806       15.970        0.061      335.434        6.065      871.151
12/26/2013  13:34:00        3.186       29.085       49.466       37.774       39.879       35.188     1426.837     1590.356     1238.203        0.378        0.213       29.259       35.388        1.463      335.786        6.652      871.138
12/26/2013  13:35:00       24.148       69.127       79.177       34.843       34.126       22.921     1214.028     1164.609      525.371        0.727        0.145       73.223       23.134        0.100      335.689        6.490      871.129
12/26/2013  13:36:00       40.642       30.891       47.214       30.263       40.387       39.501      915.867     1631.111     1560.293        0.447        0.205       51.049       35.155        0.474      335.655        6.434      871.116
12/26/2013  13:37:00       12.730       69.581       79.226       31.951       36.393       25.952     1020.894     1324.485      673.509        0.715        0.151       70.736       23.909        0.114      335.704        6.515      871.103
12/26/2013  13:38:00       38.384      101.672       89.688       38.003       32.869       26.513     1444.264     1080.377      702.953        1.154        0.161      108.677       21.666        0.040      335.627        6.387      871.078
12/26/2013  13:39:00       33.266       23.380       36.535       33.586       35.475       17.059     1128.049     1258.454      291.006        0.283        0.134       40.660       19.241        0.224      335.788        6.655      871.063
12/26/2013  13:40:00       48.524       61.349       61.512       44.761       29.337       30.122     2003.527      860.648      907.326        0.684        0.189       78.220       22.533        0.083      335.621        6.377      871.056
12/26/2013  13:41:00       68.695       41.626       36.880       40.435       33.412       31.747     1635.027     1116.364     1007.844        0.578        0.188       80.322       23.068        0.082      335.727        6.554      871.057
12/26/2013  13:42:00       43.246       45.772       50.383       21.217       37.111       30.588      450.141     1377.259      935.606        0.463        0.138       62.971       25.712        0.167      335.707        6.520      871.054
12/26/2013  13:43:00       51.303      -40.486        4.171       37.817       48.613       21.646     1430.103     2363.215      468.547        0.427        0.213       65.353       26.244        0.161      335.682        6.478      871.057
12/26/2013  13:44:00       15.046       39.080       41.358       27.123       32.155       32.210      735.638     1033.973     1037.498        0.314        0.140       41.876       25.003        0.356      335.979        6.973      871.044
12/26/2013  13:45:00       84.542       41.744        6.614       37.422       25.926       24.755     1400.404      672.166      612.825        0.581        0.134       94.287       11.010        0.014      335.667        6.454      871.034
12/26/2013  13:46:00       42.697       45.938        6.424       28.072       32.604       17.616      788.028     1063.016      310.340        0.307        0.108       62.716       15.714        0.063      335.748        6.588      871.037
12/26/2013  13:47:00       38.086       53.696        1.646       24.703       39.686       25.541      610.235     1574.947      652.331        0.359        0.142       65.832       19.906        0.091      335.763        6.613      871.036
12/26/2013  13:48:00       29.371       14.348       -0.811       18.289       27.136       16.172      334.505      736.370      261.524        0.120        0.067       32.688       10.485        0.103      335.955        6.932      871.019
12/26/2013  13:49:00       14.802       46.536       56.473       37.409       49.348       43.878     1399.418     2435.194     1925.255        0.567        0.288       48.834       37.173        0.579      336.156        7.269      871.003
12/26/2013  13:50:00        6.908       67.490       68.741       39.867       31.508       25.809     1589.348      992.739      666.122        0.629        0.162       67.842       19.449        0.082      336.278        7.473      870.998
12/26/2013  13:51:00       63.927       51.607       34.675       39.074       43.232       41.005     1526.787     1868.966     1681.444        0.651        0.254       82.158       25.143        0.094      335.943        6.913      871.001
12/26/2013  13:52:00       61.424       52.312       -0.163       23.070       25.092       24.060      532.239      629.589      578.864        0.412        0.087       80.681       14.239        0.031      335.695        6.500      870.997
12/26/2013  13:53:00       30.092       79.325       -0.479       27.730       38.847       33.414      768.959     1509.087     1116.479        0.530        0.170       84.841       30.755        0.131      335.756        6.603      870.992
12/26/2013  13:54:00      -13.357       74.361      -20.222       32.770       34.083       13.450     1073.877     1161.624      180.908        0.427        0.121       75.551       14.159        0.035      335.741        6.576      870.974
12/26/2013  13:55:00      -15.271       58.604        3.049       32.150       34.795       30.978     1033.612     1210.686      959.644        0.344        0.160       60.561       32.746        0.292      336.084        7.150      870.969
12/26/2013  13:56:00       24.899       34.302       27.169       21.715       20.625       18.258      471.520      425.392      333.339        0.188        0.062       42.386        7.323        0.030      336.060        7.107      870.969
12/26/2013  13:57:00       14.857       -5.142        8.083       27.666       19.155       16.413      765.387      366.928      269.371        0.086        0.070       15.722        8.293        0.278      336.272        7.464      870.958
12/26/2013  13:58:00       11.093       33.457      -15.821       22.327       13.866        9.941      498.474      192.267       98.829        0.114        0.039       35.248        8.990        0.065      335.976        6.967      870.952
12/26/2013  13:59:00        9.424        2.855       23.791       28.714       27.543       12.249      824.510      758.625      150.039        0.120        0.087        9.847        8.810        0.800      336.703        8.183      870.948
12/26/2013  14:00:00       38.219       46.961       17.309       47.043       60.698       31.885     2213.041     3684.282     1016.643        0.544        0.346       60.548       34.483        0.324      336.313        7.532      870.945
12/26/2013  14:01:00      104.107       54.416       37.737       53.806       46.215       37.596     2895.109     2135.821     1413.428        1.083        0.322      117.470       19.583        0.028      336.000        7.008      870.932
12/26/2013  14:02:00       31.817       40.764       33.719       28.774       30.649       27.523      827.932      939.368      757.497        0.317        0.126       51.711       16.447        0.101      336.006        7.019      870.913
12/26/2013  14:03:00       47.918       75.036       75.918       44.442       42.633       34.060     1975.055     1817.545     1160.071        0.932        0.248       89.031       29.825        0.112      336.167        7.286      870.894
12/26/2013  14:04:00       10.122       59.136       77.562       33.134       51.915       42.311     1097.869     2695.138     1790.217        0.760        0.279       59.996       41.609        0.481      336.395        7.668      870.883
12/26/2013  14:05:00       71.277       59.639       56.273       61.224       44.134       39.789     3748.438     1947.844     1583.148        0.954        0.364       92.937       39.848        0.184      336.121        7.209      870.877
12/26/2013  14:06:00       77.614       -0.437       26.982       47.493       58.393       43.603     2255.575     3409.776     1901.219        0.716        0.378       77.615       47.524        0.375      336.025        7.049      870.873
12/26/2013  14:07:00       11.179       37.138       54.672       32.185       55.986       27.456     1035.898     3134.420      753.849        0.471        0.246       38.784       30.646        0.624      336.373        7.631      870.870
12/26/2013  14:08:00       59.719       78.828       56.401       29.877       25.568       28.386      892.605      653.740      805.775        0.766        0.118       98.895       15.969        0.026      336.112        7.195      870.882
12/26/2013  14:09:00       20.848       -2.397       -3.079       27.801       37.648       14.824      772.903     1417.343      219.749        0.143        0.120       20.985       19.783        0.889      335.889        6.823      870.889
12/26/2013  14:10:00       -5.940       19.740       -6.638       36.130       14.178       17.804     1305.358      201.009      316.980        0.115        0.091       20.614       24.665        1.432      335.908        6.854      870.883
12/26/2013  14:11:00       41.201       30.601        9.509       51.842       30.159       18.641     2687.598      909.546      347.485        0.333        0.197       51.322        7.851        0.023      336.183        7.314      870.880
12/26/2013  14:12:00       13.326       10.921       30.639       18.016       23.149       16.926      324.585      535.874      286.498        0.119        0.057       17.229        6.950        0.163      336.439        7.741      870.883
12/26/2013  14:13:00       37.004       40.538        2.442       14.242       23.365       23.691      202.832      545.941      561.283        0.216        0.066       54.888       17.665        0.104      336.027        7.053      870.869
12/26/2013  14:14:00        5.570       23.062      -15.416       13.130       15.994        9.436      172.407      255.816       89.036        0.066        0.026       23.725        5.583        0.055      336.162        7.279      870.853
12/26/2013  14:15:00       -0.363       24.193      -12.231       18.961       12.315       15.999      359.532      151.654      255.965        0.075        0.038       24.196       14.371        0.353      336.190        7.325      870.849
12/26/2013  14:16:00       58.005       21.365       40.702       55.543       32.696       28.373     3085.004     1069.049      805.008        0.522        0.248       61.814       21.205        0.118      336.364        7.616      870.850
12/26/2013  14:17:00       33.937        4.455       27.339       40.884       26.638       23.508     1671.486      709.604      552.626        0.243        0.147       34.228       19.212        0.315      336.310        7.526      870.845
12/26/2013  14:18:00       28.344       -9.237       14.333       22.891       20.945       16.362      523.985      438.708      267.723        0.116        0.062       29.811       13.172        0.195      336.416        7.703      870.838
12/26/2013  14:19:00       30.229       33.291       50.482       49.257       34.353       23.831     2426.205     1180.137      567.912        0.437        0.209       44.968       21.546        0.230      336.488        7.824      870.837
12/26/2013  14:20:00       52.884       18.634       15.306       42.932       29.928       28.035     1843.168      895.672      785.939        0.345        0.176       56.071       24.220        0.187      336.318        7.539      870.832
12/26/2013  14:21:00       86.923       67.245       62.715       55.547       51.279       48.425     3085.458     2629.563     2344.950        1.203        0.403      109.898       46.491        0.179      336.226        7.384      870.827
12/26/2013  14:22:00       79.958       58.118       28.985       51.240       26.274       43.207     2625.560      690.324     1866.836        0.790        0.259       98.848       43.467        0.193      336.187        7.321      870.826
12/26/2013  14:23:00       61.474       42.413       43.580       32.745       36.907       39.215     1072.262     1362.096     1537.796        0.572        0.199       74.685       14.552        0.038      336.231        7.395      870.824
12/26/2013  14:24:00       34.864       56.738       57.811       43.049       31.998       24.074     1853.253     1023.846      579.573        0.562        0.173       66.594       23.991        0.130      336.406        7.686      870.820
12/26/2013  14:25:00       41.807       55.954       50.647       45.904       39.373       43.490     2107.193     1550.247     1891.416        0.650        0.277       69.847       38.665        0.306      336.360        7.610      870.806
12/26/2013  14:26:00       73.949       47.811       33.707       67.241       48.295       30.719     4521.395     2332.441      943.679        0.834        0.390       88.059       25.651        0.085      336.289        7.490      870.795
12/26/2013  14:27:00       43.028      -39.855       16.200       61.134       60.481       39.184     3737.380     3657.922     1535.352        0.631        0.447       58.650       37.555        0.410      336.610        8.026      870.784
12/26/2013  14:28:00       54.294      -64.701       -0.547       39.045       71.588       34.731     1524.539     5124.785     1206.232        0.749        0.393       84.464       34.389        0.166      336.370        7.626      870.776
12/26/2013  14:29:00       67.668       -6.036       21.071       65.010       41.652       35.313     4226.310     1734.855     1247.020        0.613        0.360       67.937       41.127        0.366      336.495        7.834      870.763
12/26/2013  14:30:00       87.515     -107.688      -17.805       33.644       32.640       20.554     1131.921     1065.373      422.454        1.110        0.131      138.765       18.500        0.018      336.286        7.486      870.750
12/26/2013  14:31:00      109.695     -127.876      -19.587       38.875       42.154       23.424     1511.264     1776.955      548.676        1.630        0.192      168.479       17.111        0.010      336.223        7.380      870.743
12/26/2013  14:32:00      103.815     -116.002        0.678       44.949       72.690       33.216     2020.413     5283.886     1103.326        1.632        0.420      155.672       35.972        0.053      336.318        7.537      870.745
12/26/2013  14:33:00       38.093      -41.168        6.739       46.336       71.559       27.555     2147.033     5120.666      759.264        0.561        0.401       56.088       33.042        0.347      336.477        7.804      870.745
12/26/2013  14:34:00       67.201      -50.748      -22.189       43.008       52.482       30.111     1849.646     2754.410      906.655        0.655        0.276       84.210       25.506        0.092      336.438        7.740      870.742
12/26/2013  14:35:00       19.611       -8.094       35.193       30.626       47.378       36.573      937.930     2244.641     1337.562        0.310        0.226       21.216       34.388        2.627      336.677        8.139      870.757
12/26/2013  14:36:00       13.874      -61.331        4.953       15.768       32.988       25.619      248.637     1088.226      656.344        0.299        0.100       62.881       19.984        0.101      336.482        7.814      870.764
12/26/2013  14:37:00       32.079      -10.132       25.313       38.420       41.940       30.883     1476.111     1758.946      953.744        0.298        0.209       33.641       28.464        0.716      336.553        7.931      870.770
12/26/2013  14:38:00       32.475      -12.987       10.558       35.516       39.850       23.553     1261.354     1588.013      554.764        0.237        0.170       34.976       22.343        0.408      336.540        7.911      870.766
12/26/2013  14:39:00       10.936        8.374        8.400       16.431       14.131       15.333      269.970      199.671      235.102        0.048        0.035       13.773       10.935        0.630      336.606        8.020      870.760
12/26/2013  14:40:00       42.226      -74.443       -5.056       50.554       54.418       30.000     2555.677     2961.343      899.977        0.688        0.321       85.585       32.128        0.141      336.797        8.339      870.754
12/26/2013  14:41:00       51.082      -58.744       -3.071       29.700       29.688       30.103      882.107      881.380      906.192        0.437        0.133       77.847       21.891        0.079      336.526        7.888      870.763
12/26/2013  14:42:00       31.092        4.697       34.992       34.760       21.615       18.656     1208.283      467.200      348.050        0.212        0.101       31.444       11.688        0.138      336.798        8.342      870.760
12/26/2013  14:43:00        1.499        8.309       22.597        9.907       11.208        8.089       98.150      125.629       65.436        0.044        0.014        8.444        6.423        0.579      337.019        8.710      870.756
12/26/2013  14:44:00       37.090      -55.223       -7.496       40.490       60.831       21.943     1639.428     3700.416      481.479        0.515        0.291       66.522       25.918        0.152      336.692        8.164      870.763
12/26/2013  14:45:00       60.946      -67.523      -13.703       29.319       20.767       17.348      859.593      431.278      300.958        0.503        0.080       90.961       11.989        0.017      336.555        7.936      870.752
12/26/2013  14:46:00       30.711        1.233       36.739       30.014       53.915       27.008      900.831     2906.878      729.455        0.342        0.227       30.736       31.034        1.020      336.716        8.205      870.731
12/26/2013  14:47:00       49.468       65.103       59.023       34.940       44.767       28.278     1220.769     2004.093      799.633        0.710        0.201       81.765       29.484        0.130      336.587        7.988      870.716
12/26/2013  14:48:00       55.274       38.240       44.822       48.171       36.903       34.554     2320.466     1361.824     1194.006        0.570        0.244       67.212       33.080        0.242      336.633        8.067      870.707
12/26/2013  14:49:00       80.211       32.424       34.636       28.464       47.770       29.980      810.186     2281.981      898.776        0.634        0.200       86.516       30.045        0.121      336.470        7.794      870.703
12/26/2013  14:50:00       46.938        3.374       21.313       42.010       57.316       32.935     1764.854     3285.176     1084.699        0.440        0.307       47.059       26.514        0.317      336.588        7.990      870.696
12/26/2013  14:51:00       47.379       50.701       27.495       43.938       27.559       36.993     1930.562      759.507     1368.455        0.481        0.203       69.392       33.905        0.239      336.563        7.949      870.691
12/26/2013  14:52:00       26.430        9.940       38.837       27.678       57.773       39.627      766.088     3337.684     1570.280        0.399        0.284       28.238       41.569        2.167      336.623        8.050      870.694
12/26/2013  14:53:00        5.057       -5.131       22.019       17.246       32.391       16.022      297.437     1049.182      256.691        0.107        0.080        7.204       11.371        2.492      336.882        8.482      870.683
12/26/2013  14:54:00       56.099       53.705       17.718       50.103       31.966       22.910     2510.292     1021.848      524.869        0.520        0.203       77.661       26.070        0.113      336.627        8.056      870.682
12/26/2013  14:55:00       76.787       56.959        3.797       35.750       34.311       23.134     1278.092     1177.239      535.193        0.607        0.150       95.606       18.058        0.036      336.466        7.785      870.693
12/26/2013  14:56:00       95.547       71.133        9.271       34.244       22.140       30.237     1172.623      490.159      914.262        0.843        0.129      119.118       10.332        0.008      336.435        7.735      870.693
12/26/2013  14:57:00      132.475       94.602       30.564       35.873       25.687       29.993     1286.861      659.810      899.570        1.514        0.142      162.786       20.017        0.015      336.450        7.760      870.698
12/26/2013  14:58:00      135.240      100.501       13.271       28.849       26.203       30.407      832.270      686.574      924.588        1.550        0.122      168.495       15.019        0.008      336.462        7.779      870.698
12/26/2013  14:59:00       51.949       40.059       28.618       41.119       42.951       32.756     1690.779     1844.772     1072.932        0.486        0.230       65.600       26.498        0.163      336.546        7.922      870.690
12/26/2013  15:00:00       69.047       62.643       22.045       25.560       23.887       29.582      653.313      570.585      875.074        0.564        0.105       93.228       20.022        0.046      336.549        7.926      870.680
12/26/2013  15:01:00       76.574       54.870        5.287       32.926       22.958       22.833     1084.101      527.057      521.364        0.552        0.107       94.204        7.834        0.007      336.505        7.851      870.671
12/26/2013  15:02:00       49.027       30.350        1.090       49.508       32.877       30.029     2451.008     1080.883      901.736        0.388        0.222       57.661       20.954        0.132      336.626        8.056      870.662
12/26/2013  15:03:00       38.014       19.838       15.715       26.520       31.683       18.538      703.291     1003.817      343.653        0.207        0.103       42.879       13.980        0.106      336.722        8.215      870.651
12/26/2013  15:04:00        9.079      -23.970        5.760       12.661       27.108       14.287      160.298      734.843      204.131        0.089        0.055       25.632        6.500        0.064      336.801        8.348      870.644
12/26/2013  15:05:00       55.289       42.157        0.174       33.731       23.596       23.308     1137.782      556.767      543.278        0.354        0.112       69.527       10.667        0.024      336.640        8.078      870.643
12/26/2013  15:06:00       59.047       33.102       17.314       29.744       24.626       19.524      884.701      606.430      381.186        0.338        0.094       67.693       12.331        0.033      336.665        8.118      870.646
12/26/2013  15:07:00       45.720       44.674       41.241       35.231       28.208       21.638     1241.215      795.703      468.217        0.415        0.125       63.922       16.428        0.066      336.815        8.370      870.650
12/26/2013  15:08:00       20.468        7.190       37.336       31.836       32.727       35.562     1013.562     1071.051     1264.623        0.261        0.167       21.695       24.329        1.258      336.886        8.490      870.663
12/26/2013  15:09:00       28.355      -58.475       22.794       35.618       45.339       38.361     1268.658     2055.631     1471.562        0.477        0.240       64.987       24.410        0.141      336.871        8.464      870.667
12/26/2013  15:10:00        7.955       -9.904       31.642       29.281       22.958       17.603      857.402      527.049      309.881        0.143        0.085       12.703       13.183        1.077      337.047        8.760      870.677
12/26/2013  15:11:00       14.249      -11.183       11.778       24.190       30.946       23.763      585.162      957.661      564.677        0.129        0.105       18.114       16.127        0.793      336.889        8.493      870.681
12/26/2013  15:12:00       -2.642        2.676       24.869       12.634       28.683       16.711      159.625      822.702      279.253        0.095        0.063        3.760       17.396       21.404      337.051        8.764      870.689
12/26/2013  15:13:00       -3.692       17.300       36.786       14.754       14.829       16.007      217.684      219.890      256.233        0.118        0.035       17.690        8.775        0.246      337.107        8.857      870.694
12/26/2013  15:14:00       13.585       35.673       36.272       20.900       24.987       17.479      436.812      624.349      305.503        0.207        0.068       38.172        9.053        0.056      336.893        8.500      870.701
12/26/2013  15:15:00       11.157       24.146       29.247       23.206       24.087       21.629      538.504      580.171      467.825        0.157        0.079       26.599       11.341        0.182      336.964        8.619      870.701
12/26/2013  15:16:00       -8.485       -4.110        8.539       13.784       18.535       15.419      190.000      343.556      237.752        0.047        0.039        9.428        7.023        0.555      336.983        8.649      870.701
12/26/2013  15:17:00       39.322       34.440       20.656       48.013       32.202       37.082     2305.219     1036.990     1375.106        0.394        0.236       52.272       29.970        0.329      336.671        8.130      870.700
12/26/2013  15:18:00       36.771       38.985       41.124       59.310       38.105       28.490     3517.624     1451.992      811.695        0.517        0.289       53.591       28.773        0.288      336.788        8.323      870.703
12/26/2013  15:19:00       27.471       50.268       33.800       34.995       36.290       19.577     1224.669     1316.992      383.240        0.367        0.146       57.284       19.405        0.115      336.843        8.417      870.701
12/26/2013  15:20:00       36.364       47.331       49.286       46.827       27.469       23.262     2192.780      754.573      541.101        0.474        0.174       59.687       16.031        0.072      336.817        8.373      870.705
12/26/2013  15:21:00       19.594       42.059       33.815       24.620       22.914       29.811      606.137      525.029      888.710        0.266        0.101       46.399       18.818        0.164      336.814        8.369      870.710
12/26/2013  15:22:00       38.108       24.851       30.173       28.136       23.002       26.671      791.616      529.080      711.363        0.251        0.102       45.495        6.288        0.019      336.702        8.183      870.719
12/26/2013  15:23:00       14.216        6.651        7.028       14.299       23.264       13.099      204.471      541.194      171.573        0.061        0.046       15.695        7.480        0.227      336.757        8.275      870.716
12/26/2013  15:24:00       37.693       56.083        7.664       18.956       19.857       20.567      359.332      394.284      422.990        0.290        0.059       67.573       15.921        0.056      336.623        8.050      870.710
12/26/2013  15:25:00       26.378       42.365       -2.148       15.107       16.362       16.155      228.231      267.711      261.000        0.163        0.038       49.906       13.112        0.069      336.624        8.052      870.706
12/26/2013  15:26:00       30.049       27.768        4.132       21.081       14.375       10.209      444.396      206.627      104.224        0.122        0.038       40.914        6.767        0.027      336.638        8.076      870.703
12/26/2013  15:27:00       73.357       47.063       17.002       21.354       21.290       18.084      455.978      453.275      327.048        0.456        0.062       87.156        9.976        0.013      336.541        7.912      870.709
12/26/2013  15:28:00       75.186       61.385       -1.468       23.919       25.240       24.572      572.138      637.060      603.784        0.562        0.091       97.063       12.723        0.017      336.645        8.087      870.712
12/26/2013  15:29:00       79.417       50.355        6.501       23.906       21.404       23.559      571.474      458.134      555.016        0.523        0.079       94.036       17.149        0.033      336.600        8.012      870.720
12/26/2013  15:30:00       57.407       48.715        0.677       28.075       17.188       19.280      788.222      295.425      371.715        0.356        0.073       75.291       10.892        0.021      336.570        7.961      870.719
12/26/2013  15:31:00       49.707       27.844       -3.546       25.809       24.397       16.365      666.121      595.237      267.804        0.239        0.076       56.974        8.515        0.022      336.631        8.064      870.723
12/26/2013  15:32:00       49.851       22.967        4.487       37.122       33.664       16.158     1378.041     1133.290      261.095        0.290        0.139       54.887       15.673        0.082      336.588        7.991      870.722
12/26/2013  15:33:00       39.017       27.901        0.901       21.078       14.098       12.810      444.279      198.752      164.096        0.155        0.040       47.967        7.825        0.027      336.663        8.119      870.725
12/26/2013  15:34:00       25.602       38.274       47.651       40.781       33.338       30.431     1663.068     1111.441      926.065        0.405        0.185       46.047       29.721        0.417      336.695        8.170      870.720
12/26/2013  15:35:00       11.342       85.595       86.854       27.703       33.289       23.887      767.473     1108.189      570.585        0.872        0.122       86.343       22.105        0.066      336.711        8.197      870.721
12/26/2013  15:36:00       15.321       47.951       57.539       32.521       32.649       31.162     1057.614     1065.988      971.061        0.447        0.155       50.340       31.478        0.391      336.769        8.293      870.716
12/26/2013  15:37:00       18.121        0.469       40.940       28.011       59.868       36.892      784.614     3584.209     1361.028        0.387        0.286       18.127       44.289        5.970      336.782        8.315      870.706
12/26/2013  15:38:00       -2.946       20.661       38.232       10.326       23.928       14.162      106.632      572.564      200.550        0.139        0.044       20.870        5.428        0.068      336.863        8.451      870.707
12/26/2013  15:39:00       46.111       41.715        9.940       21.997       16.086       15.430      483.887      258.761      238.082        0.247        0.049       62.180       13.245        0.045      336.664        8.120      870.710
12/26/2013  15:40:00       35.865       49.713        9.013       19.516       23.773       21.324      380.866      565.176      454.708        0.262        0.070       61.300       16.939        0.076      336.653        8.100      870.709
12/26/2013  15:41:00       43.603       37.168       10.112       31.308       18.094       17.630      980.186      327.394      310.805        0.250        0.081       57.294        8.604        0.023      336.636        8.072      870.719
12/26/2013  15:42:00       43.631       45.639       -2.803       31.966       24.262       12.230     1021.806      588.646      149.577        0.288        0.088       63.139       10.038        0.025      336.678        8.142      870.728
12/26/2013  15:43:00       61.461       43.094        2.074       24.437       21.994       20.023      597.167      483.757      400.902        0.356        0.074       75.063       13.239        0.031      336.610        8.028      870.743
12/26/2013  15:44:00       48.685        7.125       12.920       27.504       31.434       15.822      756.456      988.106      250.349        0.229        0.100       49.204       16.888        0.118      336.628        8.058      870.755
12/26/2013  15:45:00       20.328        7.673       20.970       25.523       22.144       16.276      651.405      490.372      264.920        0.116        0.070       21.728       14.706        0.458      336.751        8.264      870.768
12/26/2013  15:46:00       37.165       12.889       10.328       22.195       16.339       13.458      492.615      266.973      181.115        0.130        0.047       39.337       10.348        0.069      336.641        8.080      870.786
12/26/2013  15:47:00       45.097       35.980       15.450       25.893        8.750       11.439      670.438       76.558      130.860        0.222        0.044       57.691       12.033        0.044      336.632        8.066      870.794
12/26/2013  15:48:00       53.651       44.269       16.053       22.114       14.648       18.210      489.025      214.571      331.610        0.307        0.052       69.557        7.142        0.011      336.677        8.141      870.791
12/26/2013  15:49:00       26.956       44.751       47.650       24.454       25.763       21.803      597.977      663.733      475.371        0.337        0.087       52.243       16.926        0.105      336.702        8.181      870.790
12/26/2013  15:50:00        2.795       21.801       33.052       10.466       15.021        8.000      109.534      225.628       63.992        0.099        0.020       21.979        6.459        0.086      336.854        8.436      870.793
12/26/2013  15:51:00        6.705        1.146       22.932       12.920       23.033       14.737      166.937      530.514      217.173        0.074        0.046        6.802       14.737        4.694      336.886        8.489      870.794
12/26/2013  15:52:00       28.047       -5.340       18.577       20.744       16.553       18.924      430.333      273.992      358.107        0.111        0.053       28.551       14.454        0.256      336.797        8.341      870.793
12/26/2013  15:53:00       29.401       11.890       25.080       20.899       17.399       17.395      436.783      302.733      302.578        0.134        0.052       31.714       14.518        0.210      336.771        8.297      870.789
12/26/2013  15:54:00       29.967      -34.761        6.781       17.699       31.859       21.863      313.254     1015.007      477.970        0.198        0.090       45.895       18.021        0.154      336.786        8.321      870.795
12/26/2013  15:55:00        4.289       17.044       42.225       20.333       25.317       13.536      413.418      640.948      183.235        0.166        0.062       17.576        8.260        0.221      336.863        8.450      870.806
12/26/2013  15:56:00       30.704       21.802       21.585       19.471       13.883       14.820      379.121      192.742      219.626        0.134        0.040       37.657       11.453        0.093      336.732        8.231      870.801
12/26/2013  15:57:00       16.788       53.159       55.334       24.563       33.228       13.038      603.359     1104.124      169.999        0.402        0.094       55.746       12.674        0.052      336.779        8.311      870.800
12/26/2013  15:58:00       29.987       63.580       56.706       24.416       24.104       20.211      596.130      581.024      408.478        0.487        0.079       70.296       16.520        0.055      336.743        8.251      870.799
12/26/2013  15:59:00       21.563       48.980       45.477       21.559       22.058       18.895      464.781      486.554      357.026        0.312        0.065       53.516       13.469        0.063      336.780        8.312      870.799
12/26/2013  16:00:00        2.558       37.326       42.208       16.269       22.497       14.307      264.682      506.135      204.701        0.208        0.049       37.413       15.212        0.165      336.782        8.316      870.799
12/26/2013  16:01:00       32.853       36.061       25.823       26.787       17.969       15.823      717.528      322.871      250.353        0.217        0.065       48.783       12.824        0.069      336.738        8.242      870.793
12/26/2013  16:02:00       75.745       40.790       14.831       21.343       13.662       15.398      455.535      186.655      237.109        0.425        0.044       86.029       11.275        0.017      336.678        8.141      870.791
12/26/2013  16:03:00       60.790       47.128       38.869       20.626       17.181       16.124      425.437      295.197      259.989        0.420        0.049       76.919        9.504        0.015      336.647        8.090      870.787
12/26/2013  16:04:00        4.149       21.372       42.732       20.081       18.708       16.768      403.261      349.978      281.171        0.167        0.052       21.771       10.377        0.227      336.778        8.309      870.787
12/26/2013  16:05:00       -4.857       50.685       69.785       13.896       31.685       17.148      193.113     1003.943      294.060        0.448        0.075       50.917       20.178        0.157      336.811        8.363      870.791
12/26/2013  16:06:00       10.530       44.590       55.658       20.710       28.267       20.976      428.886      799.043      440.012        0.343        0.083       45.817       20.662        0.203      336.750        8.262      870.806
12/26/2013  16:07:00       26.215       72.191       54.524       30.009       25.395       27.299      900.528      644.901      745.249        0.558        0.115       76.804       21.499        0.078      336.752        8.266      870.799
12/26/2013  16:08:00       23.829       41.773       52.928       32.953       25.017       24.159     1085.915      625.844      583.645        0.370        0.115       48.092       23.289        0.235      336.752        8.264      870.798
12/26/2013  16:09:00       68.427       40.448       27.057       23.262       15.568       17.340      541.110      242.348      300.661        0.407        0.054       79.488       14.206        0.032      336.698        8.177      870.791
12/26/2013  16:10:00       23.619       25.824       28.959       14.175       11.684       12.001      200.931      136.526      144.030        0.127        0.024       34.996        7.670        0.048      336.680        8.145      870.786
12/26/2013  16:11:00       14.931       -3.841       16.060       16.412       33.584       13.708      269.351     1127.854      187.907        0.104        0.079       15.417       16.391        1.130      336.729        8.226      870.783
12/26/2013  16:12:00       21.706       19.562       14.912       16.115       12.840       12.964      259.700      164.871      168.054        0.083        0.030       29.220       10.332        0.125      336.678        8.142      870.794
12/26/2013  16:13:00       38.827       24.139       25.681       24.706       20.975       21.147      610.386      439.959      447.191        0.212        0.075       45.719       11.175        0.060      336.665        8.119      870.799
12/26/2013  16:14:00       51.072       34.611       28.210       20.062       23.382       18.989      402.477      546.718      360.599        0.296        0.065       61.695       13.755        0.050      336.627        8.056      870.799
12/26/2013  16:15:00       21.462       25.121       35.345       21.746       15.399       18.054      472.900      237.134      325.957        0.169        0.052       33.041       10.577        0.102      336.701        8.180      870.797
12/26/2013  16:16:00       17.725       38.426       28.321       11.659       10.701       10.203      135.925      114.509      104.104        0.147        0.018       42.317        7.122        0.028      336.614        8.035      870.793
12/26/2013  16:17:00       14.301       16.900       20.622       15.356       14.151       10.844      235.800      200.238      117.596        0.073        0.028       22.139        8.859        0.160      336.544        7.918      870.787
12/26/2013  16:18:00       11.857       11.747       16.573       11.723       13.700       10.611      137.439      187.679      112.602        0.050        0.022       16.691        6.440        0.149      336.544        7.919      870.773
12/26/2013  16:19:00       -0.558        6.858       17.137        7.653        8.603        9.545       58.571       74.006       91.110        0.028        0.011        6.880        2.299        0.112      336.454        7.766      870.768
12/26/2013  16:20:00       13.837        2.344       23.968       21.091       30.819       17.929      444.810      949.813      321.439        0.124        0.086       14.034       20.198        2.071      336.444        7.750      870.762
12/26/2013  16:21:00        3.749        6.230       20.477       14.211       20.037       16.695      201.948      401.462      278.725        0.068        0.044        7.271       14.407        3.926      336.475        7.803      870.757
12/26/2013  16:22:00       20.494       24.489       25.181       17.352       14.025        8.821      301.103      196.707       77.809        0.111        0.029       31.933        6.557        0.042      336.402        7.678      870.761
12/26/2013  16:23:00       28.188       36.501       30.134       13.788       14.457       11.656      190.098      209.014      135.865        0.178        0.027       46.118        7.489        0.026      336.453        7.764      870.763
12/26/2013  16:24:00       35.411       20.364       10.932       12.474       12.319       12.476      155.593      151.747      155.644        0.113        0.023       40.849        5.789        0.020      336.406        7.685      870.766
12/26/2013  16:25:00       44.564        4.710        8.293       18.878       17.171       15.032      356.373      294.827      225.948        0.148        0.044       44.813       11.197        0.062      336.507        7.857      870.771
12/26/2013  16:26:00       30.722       41.458       54.705       26.893       23.806       14.178      723.232      566.729      201.027        0.357        0.075       51.600       10.496        0.041      336.513        7.865      870.758
12/26/2013  16:27:00       10.634       48.724       57.101       28.636       28.281       18.929      820.038      799.809      358.300        0.386        0.099       49.871       11.834        0.056      336.595        8.003      870.771
12/26/2013  16:28:00       32.662       32.574       49.860       40.338       24.184       21.000     1627.148      584.854      440.995        0.363        0.133       46.129       21.112        0.209      336.598        8.008      870.773
12/26/2013  16:29:00       40.516       35.738       39.256       30.857       29.058       27.257      952.138      844.379      742.964        0.350        0.127       54.026       24.805        0.211      336.540        7.911      870.788
12/26/2013  16:30:00       79.656       18.294       30.848       40.268       29.974       24.263     1621.497      898.420      588.717        0.537        0.155       81.730       28.418        0.121      336.531        7.896      870.794
12/26/2013  16:31:00       58.150       21.625       37.814       39.509       23.005       26.785     1560.999      529.208      717.426        0.404        0.140       62.041       27.697        0.199      336.475        7.802      870.810
12/26/2013  16:32:00       31.340       26.310       41.765       30.059       23.818       22.990      903.542      567.300      528.548        0.271        0.100       40.920       21.707        0.281      336.436        7.737      870.814
12/26/2013  16:33:00       53.991       24.179       34.886       35.897       30.927       25.172     1288.586      956.464      633.609        0.380        0.144       59.158       16.026        0.073      336.457        7.771      870.821
12/26/2013  16:34:00       31.328       41.688       50.797       30.940       25.657       22.677      957.299      658.286      514.269        0.371        0.106       52.148       15.861        0.093      336.460        7.776      870.821
12/26/2013  16:35:00       16.069       28.038       43.579       18.302       17.001       10.236      334.974      289.041      104.776        0.184        0.036       32.316        8.802        0.074      336.378        7.638      870.816
12/26/2013  16:36:00        8.505       27.036       30.020       11.926       17.040       11.922      142.227      290.370      142.141        0.114        0.029       28.342        8.839        0.097      336.323        7.548      870.819
12/26/2013  16:37:00       46.882       -8.158       17.516       31.054       27.358       22.380      964.365      748.466      500.867        0.239        0.111       47.587       24.091        0.256      336.384        7.650      870.820
12/26/2013  16:38:00        7.456       16.664       33.606       14.412       17.852       11.497      207.715      318.688      132.172        0.106        0.033       18.256        9.512        0.272      336.314        7.533      870.821
12/26/2013  16:39:00        8.887       14.578       21.493       13.763       11.068        8.019      189.406      122.495       64.301        0.056        0.019       17.073        3.386        0.039      336.198        7.339      870.818
12/26/2013  16:40:00       13.467       13.811       29.722       21.464       24.522       16.610      460.684      601.340      275.900        0.130        0.067       19.290       15.739        0.666      336.241        7.411      870.815
12/26/2013  16:41:00       13.944       12.352       31.630       18.299       17.248       16.220      334.847      297.501      263.074        0.112        0.045       18.628       12.944        0.483      336.309        7.524      870.810
12/26/2013  16:42:00        6.024       18.269       36.999       20.895       17.793       13.835      436.587      316.582      191.408        0.134        0.047       19.236       14.422        0.562      336.231        7.394      870.811
12/26/2013  16:43:00       16.053       45.602       36.629       22.193       13.354       23.312      492.517      178.333      543.461        0.245        0.061       48.345       17.611        0.133      336.287        7.489      870.810
12/26/2013  16:44:00        8.036       22.340       36.214       15.648       15.133        8.982      244.857      229.015       80.679        0.121        0.028       23.741        8.965        0.143      336.221        7.378      870.805
12/26/2013  16:45:00       17.515       33.467       43.384       19.586       16.144       13.169      383.615      260.621      173.413        0.206        0.041       37.773       10.954        0.084      336.228        7.388      870.801
12/26/2013  16:46:00       13.144       32.105       40.651       17.835       21.276       15.701      318.085      452.659      246.531        0.194        0.051       34.691       11.929        0.118      336.222        7.379      870.800
12/26/2013  16:47:00       16.721       24.929       36.747       18.547       16.553       13.457      343.980      273.999      181.094        0.153        0.040       30.017        6.903        0.053      336.168        7.288      870.797
12/26/2013  16:48:00       27.480       34.170       32.018       33.025       24.417       16.838     1090.631      596.171      283.518        0.246        0.099       43.849       17.058        0.151      336.229        7.391      870.799
12/26/2013  16:49:00        1.531       21.717       37.359       15.760       16.751       10.903      248.383      280.612      118.881        0.126        0.032       21.771       10.038        0.213      336.142        7.244      870.808
12/26/2013  16:50:00       -4.433       15.858       22.781        8.139       10.193       10.539       66.247      103.899      111.071        0.054        0.014       16.466        5.503        0.112      336.153        7.264      870.815
12/26/2013  16:51:00       -5.090        4.037       10.180       16.118       12.979        8.915      259.791      168.452       79.468        0.033        0.025        6.497        7.896        1.477      336.090        7.158      870.814
12/26/2013  16:52:00      -28.852       -6.305        3.638       12.510       16.401       10.308      156.510      269.008      106.259        0.071        0.027       29.533        7.850        0.071      335.762        6.612      870.804
12/26/2013  16:53:00      -27.081       -9.826       -7.946       12.180        8.716        7.846      148.347       75.970       61.559        0.059        0.014       28.809        6.566        0.052      335.627        6.387      870.800
12/26/2013  16:54:00      -24.080      -22.367       -6.207       12.100       10.128        8.930      146.403      102.576       79.742        0.072        0.016       32.865        5.508        0.028      335.540        6.241      870.802
12/26/2013  16:55:00      -26.510      -21.553       -2.720       17.172       12.342        9.727      294.865      152.323       94.609        0.086        0.027       34.165        6.623        0.038      335.399        6.005      870.817
12/26/2013  16:56:00      -57.306      -21.587       -7.666       13.888       15.948        8.722      192.890      254.326       76.075        0.217        0.026       61.237        3.361        0.003      335.385        5.982      870.829
12/26/2013  16:57:00      -53.903      -25.269      -12.746       12.176       14.165        9.311      148.265      200.658       86.700        0.207        0.022       59.532        6.000        0.010      335.188        5.655      870.838
12/26/2013  16:58:00      -50.082      -26.967      -16.407       13.147       14.704        8.521      172.838      216.199       72.602        0.198        0.023       56.880        3.140        0.003      335.108        5.524      870.835
12/26/2013  16:59:00      -72.228      -15.534       -9.114       12.878       10.772       10.356      165.836      116.031      107.242        0.297        0.019       73.880        6.797        0.008      334.995        5.335      870.841
12/26/2013  17:00:00      -95.473       -1.743      -16.025       15.730       15.718       11.359      247.418      247.057      129.026        0.500        0.031       95.488        8.199        0.007      334.938        5.240      870.844
12/26/2013  17:01:00      -77.218       -8.120      -17.000       20.773       16.130       10.079      431.502      260.164      101.585        0.356        0.040       77.644        5.706        0.005      334.910        5.196      870.843
12/26/2013  17:02:00      -68.317       -1.076       -8.904       22.836       23.135       14.358      521.461      535.220      206.158        0.301        0.063       68.325       10.558        0.024      334.854        5.102      870.847
12/26/2013  17:03:00      -86.994      -26.154      -13.409       39.354       22.075       19.260     1548.741      487.289      370.950        0.542        0.120       90.841       10.379        0.013      334.875        5.136      870.847
12/26/2013  17:04:00     -108.031      -18.818      -13.168       32.712       22.498       21.943     1070.094      506.160      481.497        0.713        0.103      109.658       19.757        0.032      334.772        4.965      870.850
12/26/2013  17:05:00      -83.919      -36.294      -16.822       34.084       30.908       16.780     1161.710      955.324      281.552        0.552        0.120       91.431       17.176        0.035      334.826        5.056      870.858
12/26/2013  17:06:00      -85.203      -38.267      -16.336       22.885       17.774       18.697      523.728      315.928      349.575        0.509        0.059       93.401        7.085        0.006      334.804        5.018      870.863
12/26/2013  17:07:00     -123.115      -25.369      -16.665       49.231       34.960       19.501     2423.714     1222.224      380.273        1.005        0.201      125.702        6.274        0.002      334.683        4.816      870.873
12/26/2013  17:08:00      -96.389      -28.095       -7.134       46.870       31.227       23.697     2196.786      975.098      561.554        0.693        0.187      100.400       21.064        0.044      334.647        4.756      870.885
12/26/2013  17:09:00     -115.130       -4.029      -10.353       62.109       41.776       28.595     3857.576     1745.253      817.660        0.990        0.321      115.201       23.172        0.040      334.717        4.875      870.883
12/26/2013  17:10:00     -113.234       -9.087       -1.960       57.864       37.714       23.383     3348.240     1422.366      546.766        0.911        0.266      113.598       25.585        0.051      334.632        4.733      870.884
12/26/2013  17:11:00     -106.235      -29.354        0.390       33.488       41.607       25.060     1121.428     1731.175      628.022        0.781        0.174      110.216       17.914        0.026      334.634        4.735      870.884
12/26/2013  17:12:00      -70.618      -14.114        1.302       48.189       33.125       17.920     2322.166     1097.243      321.139        0.446        0.187       72.014       12.118        0.028      334.589        4.660      870.881
12/26/2013  17:13:00      -35.679      -18.739        0.106       38.929       42.190       23.686     1515.474     1779.966      561.034        0.274        0.193       40.300       11.279        0.078      334.574        4.636      870.889
12/26/2013  17:14:00      -31.365      -17.971       13.314       39.955       44.915       26.118     1596.427     2017.399      682.157        0.289        0.215       36.148       26.113        0.522      334.573        4.636      870.888
12/26/2013  17:15:00       20.214        0.497        4.677       28.865       20.558       22.209      833.192      422.649      493.225        0.109        0.087       20.220       12.328        0.372      334.583        4.652      870.898
12/26/2013  17:16:00       26.378       -6.287       11.891       26.195       21.170       16.404      686.164      448.168      269.104        0.114        0.070       27.117       11.470        0.179      334.573        4.632      870.903
12/26/2013  17:17:00        6.136      -11.206        1.280       33.378       23.527       22.921     1114.106      553.501      525.394        0.118        0.110       12.776       18.583        2.116      334.616        4.706      870.900
12/26/2013  17:18:00      -52.963      -31.721        5.689       51.187       39.784       24.566     2620.085     1582.728      603.472        0.432        0.240       61.736       27.015        0.191      334.569        4.628      870.896
12/26/2013  17:19:00      -79.786      -25.142        4.354       48.888       32.818       19.570     2390.005     1077.021      382.985        0.543        0.193       83.654       17.355        0.043      334.515        4.537      870.889
12/26/2013  17:20:00     -123.053      -21.394       -1.102       53.320       43.204       27.941     2843.043     1866.550      780.725        1.054        0.275      124.899       26.487        0.045      334.442        4.419      870.883
12/26/2013  17:21:00      -35.045      -22.911        3.170       37.412       25.158       21.036     1399.652      632.931      442.533        0.212        0.124       41.870       19.137        0.209      334.403        4.353      870.879
12/26/2013  17:22:00      -77.296      -22.299        0.961       39.385       31.761       21.201     1551.157     1008.745      449.487        0.474        0.150       80.448       21.576        0.072      334.364        4.288      870.872
12/26/2013  17:23:00      -53.203      -21.223      -10.944       30.800       30.023       20.719      948.659      901.393      429.282        0.284        0.114       57.280       10.669        0.035      334.335        4.240      870.869
12/26/2013  17:24:00      -60.469      -44.982      -19.900       32.662       26.655       16.973     1066.815      710.485      288.088        0.407        0.103       75.365       13.864        0.034      334.261        4.117      870.864
12/26/2013  17:25:00      -59.025      -28.347      -10.585       38.575       25.069       19.521     1488.017      628.440      381.054        0.345        0.125       65.479       19.825        0.092      334.320        4.216      870.849
12/26/2013  17:26:00      -86.430      -35.964      -14.808       27.090       28.177       18.721      733.870      793.964      350.485        0.543        0.094       93.613       10.361        0.012      334.245        4.090      870.840
12/26/2013  17:27:00     -148.061       -7.753      -20.013       25.582       16.380       12.950      654.464      268.299      167.696        1.174        0.055      148.264        9.450        0.004      334.152        3.936      870.830
12/26/2013  17:28:00     -111.990      -41.306      -13.535       29.755       23.220       21.165      885.346      539.185      447.966        0.815        0.094      119.365       15.310        0.016      334.257        4.110      870.834
12/26/2013  17:29:00      -92.762      -27.677      -14.942       20.278       19.998       16.590      411.189      399.937      275.225        0.534        0.054       96.803        5.335        0.003      334.288        4.161      870.839
12/26/2013  17:30:00      -93.375      -35.420      -19.481       25.719       29.193       23.797      661.491      852.241      566.319        0.622        0.104       99.867       19.019        0.036      334.253        4.104      870.837
12/26/2013  17:31:00      -91.906      -51.631      -24.664       27.425       32.607       24.984      752.140     1063.247      624.212        0.708        0.122      105.415       13.388        0.016      334.226        4.058      870.837
12/26/2013  17:32:00      -63.595      -46.678      -15.182       26.541       34.064       20.100      704.411     1160.363      403.995        0.436        0.113       78.887       15.858        0.040      334.203        4.022      870.843
12/26/2013  17:33:00      -82.488      -10.004      -17.712       28.774       26.781       18.123      827.968      717.209      328.438        0.455        0.094       83.093       12.718        0.023      334.168        3.963      870.850
12/26/2013  17:34:00     -113.209      -24.267      -21.901       20.739       23.919       18.954      430.120      572.110      359.268        0.762        0.068      115.780       13.535        0.014      334.185        3.991      870.848
12/26/2013  17:35:00     -119.128      -39.809      -27.674       16.070       33.050       15.013      258.231     1092.312      225.382        0.906        0.079      125.603        7.104        0.003      334.078        3.814      870.849
12/26/2013  17:36:00     -111.263      -35.025      -23.408       39.163       25.964       14.163     1533.763      674.153      200.590        0.828        0.120      116.646       13.610        0.014      334.141        3.917      870.862
12/26/2013  17:37:00      -61.042      -41.435      -11.472       25.347       24.264       20.127      642.453      588.719      405.081        0.361        0.082       73.776       15.911        0.047      334.124        3.889      870.876
12/26/2013  17:38:00     -101.982      -41.306       -8.440       25.032       21.795       16.891      626.601      475.007      285.300        0.678        0.069      110.030       12.124        0.012      334.101        3.851      870.876
12/26/2013  17:39:00     -119.021      -31.557      -14.951       21.578       28.340       17.079      465.614      803.179      291.699        0.847        0.078      123.134       12.088        0.010      334.045        3.759      870.883
12/26/2013  17:40:00     -118.145      -30.544      -20.790       30.073       25.702       15.997      904.384      660.608      255.906        0.857        0.091      122.030       11.554        0.009      334.031        3.735      870.893
12/26/2013  17:41:00      -98.740      -45.310      -18.168       39.000       30.228       24.107     1520.993      913.749      581.138        0.757        0.151      108.640       20.298        0.035      333.962        3.622      870.903
12/26/2013  17:42:00     -138.318      -29.274       -8.516       41.730       33.277       22.887     1741.401     1107.360      523.799        1.172        0.169      141.382       23.994        0.029      333.915        3.544      870.913
12/26/2013  17:43:00     -138.086      -18.935      -12.170       43.503       32.869       24.985     1892.508     1080.381      624.241        1.159        0.180      139.378       23.506        0.028      333.861        3.453      870.918
12/26/2013  17:44:00     -157.859      -42.316      -20.962       30.366       29.930       22.954      922.124      895.808      526.887        1.475        0.117      163.432       18.047        0.012      333.870        3.468      870.921
12/26/2013  17:45:00     -142.897      -37.294      -14.405       48.590       31.685       21.262     2360.994     1003.957      452.059        1.292        0.191      147.684       13.456        0.008      333.803        3.357      870.922
12/26/2013  17:46:00     -158.321      -35.471      -27.600       47.774       25.923       19.120     2282.349      672.021      365.566        1.520        0.166      162.246       12.628        0.006      333.773        3.306      870.934
12/26/2013  17:47:00     -109.132      -36.320      -11.310       33.977       42.033       22.329     1154.469     1766.815      498.606        0.839        0.171      115.017       12.317        0.011      333.805        3.361      870.937
12/26/2013  17:48:00     -109.210       -8.555      -13.095       43.971       30.005       19.717     1933.488      900.305      388.771        0.770        0.161      109.545       12.010        0.012      333.817        3.380      870.941
12/26/2013  17:49:00     -135.017      -12.350      -16.269       31.465       36.347       22.725      990.041     1321.131      516.444        1.074        0.141      135.580       17.816        0.017      333.745        3.262      870.941
12/26/2013  17:50:00     -189.299      -20.978      -31.092       34.906       27.662       22.535     1218.405      765.209      507.848        1.987        0.125      190.458       16.579        0.008      333.720        3.219      870.946
12/26/2013  17:51:00     -163.369      -50.044      -14.388       35.736       32.918       23.569     1277.084     1083.624      555.506        1.616        0.146      170.861       17.651        0.011      333.679        3.152      870.937
12/26/2013  17:52:00     -108.443      -34.685       -8.066       45.788       39.773       23.344     2096.501     1581.880      544.946        0.862        0.211      113.855       18.445        0.026      333.713        3.209      870.930
12/26/2013  17:53:00      -95.467        4.314      -15.727       35.202       36.227       21.764     1239.165     1312.419      473.693        0.620        0.151       95.564       15.899        0.028      333.727        3.231      870.922
12/26/2013  17:54:00      -96.613       -6.527      -19.483       35.769       33.003       22.059     1279.430     1089.227      486.618        0.631        0.143       96.833       15.830        0.027      333.742        3.256      870.920
12/26/2013  17:55:00      -70.725       -8.457       -8.326       38.641       35.091       22.821     1493.140     1231.410      520.819        0.419        0.162       71.228       18.255        0.066      333.744        3.261      870.901
12/26/2013  17:56:00     -103.699       -0.672      -13.096       50.855       42.180       24.822     2586.190     1779.164      616.123        0.795        0.249      103.701       19.464        0.035      333.688        3.167      870.893
12/26/2013  17:57:00      -65.194      -32.705        0.852       60.885       37.514       30.829     3707.020     1407.332      950.439        0.569        0.303       72.938       30.634        0.176      333.670        3.138      870.890
12/26/2013  17:58:00      -62.629      -32.987       -4.048       44.657       38.932       20.842     1994.231     1515.673      434.405        0.448        0.197       70.785       18.006        0.065      333.672        3.141      870.885
12/26/2013  17:59:00      -85.307      -17.583       -2.372       38.770       38.143       23.542     1503.103     1454.926      554.209        0.555        0.176       87.100       17.890        0.042      333.617        3.050      870.888
12/26/2013  18:00:00      -76.626      -26.115      -10.854       39.227       23.956       20.330     1538.769      573.878      413.318        0.460        0.126       80.954       14.137        0.030      333.608        3.034      870.885
12/26/2013  18:01:00     -103.113      -22.077      -15.225       36.344       26.221       19.253     1320.908      687.537      370.696        0.686        0.119      105.450       13.582        0.017      333.601        3.023      870.883
12/26/2013  18:02:00      -86.143      -11.676      -15.087       28.326       29.157       17.128      802.367      850.128      293.358        0.486        0.097       86.931       14.597        0.028      333.536        2.915      870.892
12/26/2013  18:03:00      -94.789      -28.384      -16.197       21.998       19.844       18.845      483.928      393.786      355.140        0.564        0.062       98.947       13.042        0.017      333.623        3.058      870.901
12/26/2013  18:04:00      -99.559      -35.718      -25.262       22.258       21.064       17.867      495.407      443.705      319.231        0.654        0.063      105.772       11.663        0.012      333.607        3.034      870.923
12/26/2013  18:05:00      -94.512      -17.991      -24.144       18.617       17.137       12.935      346.603      293.690      167.303        0.532        0.040       96.209        7.893        0.007      333.679        3.152      870.941
12/26/2013  18:06:00     -105.777      -24.769      -20.926       16.578       17.422       10.439      274.819      303.514      108.971        0.646        0.034      108.638        6.432        0.004      333.648        3.102      870.970
12/26/2013  18:07:00     -107.889      -18.855      -18.690       13.506       13.827       12.679      182.400      191.183      160.765        0.644        0.027      109.524        7.649        0.005      333.604        3.029      870.977
12/26/2013  18:08:00     -125.996      -27.133      -16.975       21.769       19.859       15.174      473.891      394.398      230.260        0.900        0.055      128.885        9.757        0.006      333.567        2.968      871.006
12/26/2013  18:09:00     -139.866      -25.629      -16.398       31.263       27.213       17.069      977.399      740.568      291.348        1.125        0.100      142.194       15.737        0.012      333.574        2.978      871.018
12/26/2013  18:10:00     -106.514      -25.868      -20.257       37.370       26.274       19.584     1396.491      690.331      383.515        0.745        0.124      109.610       16.915        0.024      333.564        2.961      871.031
12/26/2013  18:11:00     -125.260      -24.356      -19.961       31.962       30.649       20.149     1021.577      939.359      405.968        0.952        0.118      127.606       12.601        0.010      333.498        2.851      871.050
12/26/2013  18:12:00     -158.599       -0.720      -20.310       27.062       15.326       16.086      732.326      234.890      258.743        1.340        0.061      158.600        8.239        0.003      333.515        2.879      871.072
12/26/2013  18:13:00     -126.100      -20.350      -19.350       30.129       31.588       14.592      907.760      997.801      212.924        0.940        0.106      127.732       13.290        0.011      333.539        2.920      871.091
12/26/2013  18:14:00     -112.187      -33.361      -11.487       25.027       22.429       18.436      626.358      503.042      339.898        0.765        0.073      117.042       14.550        0.015      333.581        2.990      871.096
12/26/2013  18:15:00      -75.876      -33.195       -0.690       27.870       27.326       19.149      776.760      746.729      366.675        0.437        0.095       82.819       12.990        0.025      333.597        3.016      871.105
12/26/2013  18:16:00      -79.095      -39.484      -11.945       25.821       23.203       16.897      666.703      538.373      285.525        0.472        0.075       88.403        9.804        0.012      333.584        2.994      871.106
12/26/2013  18:17:00      -97.984      -20.306      -15.596       22.423       21.798       14.558      502.771      475.157      211.926        0.572        0.059      100.066        5.419        0.003      333.523        2.891      871.116
12/26/2013  18:18:00      -95.916      -20.201      -11.822       22.403       19.056       13.231      501.913      363.125      175.059        0.539        0.052       98.020        9.320        0.009      333.487        2.832      871.114
12/26/2013  18:19:00      -70.889      -49.092      -13.200       21.857       29.484       19.814      477.733      869.320      392.609        0.467        0.087       86.228       17.095        0.039      333.469        2.802      871.119
12/26/2013  18:20:00      -72.082      -31.002      -18.088       21.399       24.049       16.013      457.917      578.359      256.424        0.389        0.065       78.466       11.209        0.020      333.493        2.843      871.108
12/26/2013  18:21:00      -75.179      -34.992      -13.201       18.940       20.036       14.705      358.712      401.461      216.242        0.401        0.049       82.924        7.261        0.008      333.518        2.884      871.117
12/26/2013  18:22:00      -79.748      -15.115       -8.887       22.263       22.153       16.524      495.660      490.762      273.027        0.396        0.063       81.168       13.898        0.029      333.442        2.757      871.100
12/26/2013  18:23:00      -94.307      -14.021      -16.605       12.006       14.758        9.838      144.144      217.813       96.788        0.491        0.023       95.343        6.535        0.005      333.388        2.670      871.085
12/26/2013  18:24:00      -88.242      -19.342      -17.886       11.370       12.500       10.753      129.276      156.249      115.631        0.444        0.020       90.337        7.683        0.007      333.404        2.697      871.068
12/26/2013  18:25:00      -48.373      -29.148      -17.882       19.009       14.723       13.645      361.348      216.771      186.195        0.214        0.038       56.476        9.285        0.027      333.504        2.861      871.068
12/26/2013  18:26:00      -45.170      -28.783      -10.011       18.472       12.737       19.106      341.204      162.227      365.052        0.192        0.043       53.561       14.065        0.069      333.385        2.665      871.070
12/26/2013  18:27:00      -70.071      -28.677      -23.758       17.926       11.698       11.189      321.335      136.843      125.191        0.344        0.029       75.712       10.312        0.019      333.384        2.663      871.082
12/26/2013  18:28:00      -66.552      -41.553      -17.649       10.649       12.570        9.917      113.400      158.002       98.344        0.342        0.018       78.459        7.169        0.008      333.361        2.626      871.078
12/26/2013  18:29:00      -55.932      -44.449      -14.914       11.148       16.159        9.741      124.286      261.104       94.888        0.290        0.024       71.443        2.193        0.001      333.415        2.715      871.091
12/26/2013  18:30:00      -60.560      -33.429      -19.792       12.282        9.300       10.974      150.856       86.490      120.421        0.277        0.018       69.174        3.671        0.003      333.389        2.670      871.105
12/26/2013  18:31:00      -57.179      -33.108       -4.822        9.966       12.008       13.270       99.318      144.182      176.082        0.240        0.021       66.073        6.201        0.009      333.577        2.983      871.124
12/26/2013  18:32:00      -45.186      -27.195      -14.698       13.143       17.596        9.392      172.729      309.630       88.209        0.178        0.029       52.739        6.855        0.017      333.582        2.992      871.151
12/26/2013  18:33:00      -61.853      -28.886      -11.583       10.311        6.831        8.007      106.321       46.656       64.108        0.251        0.011       68.265        3.444        0.003      333.521        2.890      871.162
12/26/2013  18:34:00      -63.435      -27.555       -9.363        8.314        8.452        7.565       69.131       71.443       57.232        0.253        0.010       69.161        4.734        0.005      333.334        2.580      871.185
12/26/2013  18:35:00      -67.430      -29.788      -13.503        8.330       10.073        8.844       69.386      101.470       78.223        0.293        0.012       73.716        4.433        0.004      333.381        2.658      871.194
12/26/2013  18:36:00      -81.292      -25.822      -11.127       13.885       19.198       13.170      192.780      368.574      173.445        0.407        0.037       85.294        7.702        0.008      333.342        2.593      871.216
12/26/2013  18:37:00     -109.653      -24.603      -14.558       14.160       15.470       11.941      200.496      239.307      142.597        0.671        0.029      112.379        5.846        0.003      333.382        2.660      871.226
12/26/2013  18:38:00     -111.335      -17.075      -12.371       20.775       18.549       10.996      431.619      344.059      120.908        0.687        0.045      112.637        9.844        0.008      333.333        2.578      871.229
12/26/2013  18:39:00     -108.434      -14.408      -15.624       18.788       14.129       12.937      353.006      199.637      167.355        0.646        0.036      109.387        8.587        0.006      333.260        2.458      871.231
12/26/2013  18:40:00      -72.944      -37.792      -11.197       27.456       23.827       13.548      753.852      567.747      183.549        0.419        0.075       82.152       12.654        0.024      333.275        2.482      871.238
12/26/2013  18:41:00     -106.948      -18.656      -16.743       23.733       17.555       13.255      563.274      308.174      175.683        0.656        0.052      108.563       11.043        0.010      333.185        2.333      871.244
12/26/2013  18:42:00     -120.023       -5.667      -19.081       31.552       22.797       12.873      995.551      519.726      165.704        0.824        0.084      120.157       10.409        0.008      333.231        2.411      871.254
12/26/2013  18:43:00     -109.230        1.267      -22.444       22.906       15.411       14.980      524.700      237.494      224.396        0.671        0.049      109.238        9.235        0.007      333.214        2.381      871.259
12/26/2013  18:44:00      -90.131       -0.444      -17.148       23.520       17.782       16.040      553.189      316.207      257.274        0.477        0.056       90.133        8.331        0.009      333.137        2.255      871.259
12/26/2013  18:45:00      -78.014       -5.772      -16.875       20.230       13.804       14.240      409.233      190.553      202.789        0.360        0.040       78.227       12.605        0.026      333.041        2.096      871.264
12/26/2013  18:46:00      -89.922       -2.228      -21.179       17.394       12.843       12.663      302.562      164.949      160.344        0.458        0.031       89.949        3.851        0.002      333.133        2.249      871.260
12/26/2013  18:47:00      -73.928       -1.766      -13.276       16.848       15.944       12.024      283.854      254.203      144.580        0.316        0.034       73.949        7.425        0.010      333.085        2.169      871.274
12/26/2013  18:48:00      -98.131        0.188      -14.479       20.889       15.786       13.460      436.333      249.196      181.169        0.535        0.043       98.132        7.632        0.006      333.061        2.129      871.287
12/26/2013  18:49:00      -98.521        4.541      -20.266       18.873       14.698       12.684      356.177      216.022      160.882        0.544        0.037       98.625        5.539        0.003      333.074        2.151      871.283
12/26/2013  18:50:00      -87.838       -7.471      -16.257       16.054       12.584       11.373      257.731      158.362      129.343        0.429        0.027       88.155        8.505        0.009      333.030        2.078      871.293
12/26/2013  18:51:00      -98.423       -5.318      -18.789       17.596       13.574       12.222      309.629      184.256      149.377        0.536        0.032       98.566        9.582        0.009      333.082        2.164      871.301
12/26/2013  18:52:00      -88.109       -4.451      -20.292       19.307       19.474       14.999      372.750      379.240      224.969        0.459        0.049       88.221       12.965        0.022      333.028        2.075      871.305
12/26/2013  18:53:00     -100.054       -0.785      -15.444       21.034       15.871       14.372      442.432      251.892      206.543        0.558        0.045      100.057        7.239        0.005      333.086        2.171      871.317
12/26/2013  18:54:00     -107.612        9.011      -22.553       19.103       17.541       14.319      364.912      307.696      205.040        0.652        0.044      107.989        3.312        0.001      333.006        2.040      871.315
12/26/2013  18:55:00     -128.060       -2.158      -26.105       18.389       13.883       12.209      338.168      192.729      149.048        0.888        0.034      128.078        7.628        0.004      333.013        2.050      871.316
12/26/2013  18:56:00     -118.679        7.804      -23.206       16.635       16.919       13.126      276.717      286.241      172.293        0.771        0.037      118.935        6.823        0.003      333.020        2.062      871.323
12/26/2013  18:57:00      -98.296        3.598      -18.574       19.633       17.233       13.177      385.445      296.992      173.641        0.544        0.043       98.362        5.444        0.003      332.987        2.007      871.326
12/26/2013  18:58:00      -95.662        1.565      -25.056       23.413       10.383       13.392      548.171      107.817      179.334        0.531        0.042       95.674        8.655        0.008      333.112        2.214      871.331
12/26/2013  18:59:00      -91.520       -1.066      -13.661       19.272       12.316        9.117      371.414      151.689       83.122        0.458        0.030       91.526        6.382        0.005      333.050        2.111      871.336
12/26/2013  19:00:00      -92.423       -1.567      -17.859       17.731       16.421       12.052      314.380      269.643      145.247        0.480        0.036       92.436        8.687        0.009      332.999        2.027      871.334
12/26/2013  19:01:00      -81.502      -11.323       -7.669       19.048       18.174       13.115      362.810      330.282      171.991        0.385        0.043       82.285       10.233        0.015      332.996        2.023      871.350
12/26/2013  19:02:00      -68.398      -20.870       -4.944       17.138       19.577       14.604      293.703      383.262      213.276        0.301        0.045       71.511        7.322        0.010      333.031        2.080      871.360
12/26/2013  19:03:00      -75.483      -15.841      -10.209       13.417       19.078       12.278      180.018      363.964      150.748        0.337        0.035       77.127        9.791        0.016      333.006        2.039      871.374
12/26/2013  19:04:00      -85.007      -14.465       -9.958       21.151       20.886       15.597      447.377      436.244      243.266        0.433        0.056       86.229       11.262        0.017      332.995        2.020      871.387
12/26/2013  19:05:00      -94.695       -5.822      -11.819       30.342       18.470       14.184      920.647      341.152      201.184        0.530        0.073       94.873       13.894        0.021      332.986        2.005      871.381
12/26/2013  19:06:00     -100.917       -6.283      -18.485       13.649       16.269       10.722      186.290      264.680      114.959        0.557        0.028      101.112        7.357        0.005      333.007        2.039      871.381
12/26/2013  19:07:00     -106.869        5.810      -20.055       16.373       13.396       15.876      268.065      179.456      252.058        0.628        0.035      107.027       11.136        0.011      333.017        2.057      871.375
12/26/2013  19:08:00     -111.178      -10.555      -19.288       27.136       17.413       14.698      736.367      303.206      216.032        0.705        0.063      111.678        8.985        0.006      332.969        1.977      871.356
12/26/2013  19:09:00     -114.686        3.588      -17.000       15.520       16.640       13.504      240.868      276.904      182.353        0.708        0.035      114.742        9.785        0.007      332.951        1.948      871.334
12/26/2013  19:10:00     -108.283        3.268      -22.158       19.181       14.013       14.648      367.921      196.372      214.562        0.650        0.039      108.332       12.042        0.012      332.948        1.944      871.330
12/26/2013  19:11:00     -106.526        1.794      -17.264       19.861       16.879       14.662      394.446      284.917      214.961        0.627        0.045      106.541       10.981        0.011      332.913        1.885      871.311
12/26/2013  19:12:00      -90.434       -6.127      -16.003       20.744       17.940       11.988      430.299      321.831      143.702        0.468        0.045       90.641        9.679        0.011      332.902        1.868      871.301
12/26/2013  19:13:00      -84.110      -13.315       -9.670       20.816       18.988       15.015      433.321      360.544      225.439        0.418        0.051       85.158       12.576        0.022      332.953        1.951      871.303
12/26/2013  19:14:00      -89.725      -13.901      -10.739       29.174       23.113       13.905      851.108      534.207      193.357        0.497        0.079       90.795       13.891        0.023      332.981        1.995      871.307
12/26/2013  19:15:00      -78.477      -27.061       -7.559       23.423       26.125       11.377      548.657      682.519      129.427        0.415        0.068       83.011       10.076        0.015      333.028        2.074      871.330
12/26/2013  19:16:00      -59.305      -54.374      -11.653       19.906       16.763       12.236      396.267      280.983      149.709        0.372        0.041       80.459        7.640        0.009      333.091        2.180      871.340
12/26/2013  19:17:00      -92.117      -40.921      -20.704       19.760       16.816       11.606      390.470      282.775      134.704        0.570        0.040      100.797        5.956        0.003      333.075        2.150      871.358
12/26/2013  19:18:00      -88.663      -29.212      -19.851       16.289       17.285       13.812      265.334      298.763      190.781        0.493        0.038       93.351        6.914        0.005      332.970        1.978      871.387
12/26/2013  19:19:00      -77.131      -28.166      -11.853       33.971       27.569       15.085     1154.003      760.070      227.545        0.451        0.107       82.113       11.567        0.020      333.014        2.052      871.407
12/26/2013  19:20:00      -69.384      -45.532      -14.475       17.625       15.115       13.208      310.639      228.461      174.461        0.391        0.036       82.990        6.654        0.006      332.991        2.013      871.419
12/26/2013  19:21:00      -80.579      -36.985      -16.296       13.539       20.291       13.916      183.302      411.724      193.646        0.446        0.039       88.662        8.774        0.010      332.971        1.980      871.441
12/26/2013  19:22:00      -68.987      -39.844       -8.820       20.967       17.531       17.908      439.598      307.351      320.703        0.375        0.053       79.666       14.709        0.034      332.969        1.976      871.448
12/26/2013  19:23:00     -103.964      -20.466      -10.921       19.777       21.106       16.494      391.149      445.457      272.042        0.623        0.055      105.959        8.740        0.007      332.897        1.858      871.447
12/26/2013  19:24:00      -81.077      -25.879      -10.605       23.608       17.805       15.526      557.340      317.019      241.050        0.424        0.056       85.107       12.317        0.021      332.916        1.890      871.458
12/26/2013  19:25:00     -109.401      -16.798       -8.107       24.856       22.807       15.778      617.843      520.163      248.955        0.685        0.069      110.683       12.239        0.012      332.868        1.812      871.460
12/26/2013  19:26:00      -76.829       -4.165       -5.832       33.753       26.096       23.875     1139.272      681.000      570.038        0.417        0.120       76.942       22.126        0.083      332.847        1.776      871.457
12/26/2013  19:27:00      -88.571        8.229      -14.757       26.260       26.764       17.295      689.599      716.286      299.132        0.492        0.085       88.952       14.679        0.027      332.945        1.937      871.463
12/26/2013  19:28:00     -104.100        6.889      -23.081       25.071       19.141       16.777      628.560      366.391      281.455        0.635        0.064      104.328        9.998        0.009      332.950        1.947      871.465
12/26/2013  19:29:00     -100.495        0.948      -14.981       25.396       23.261       13.931      644.980      541.063      194.074        0.585        0.069      100.499        6.656        0.004      332.845        1.774      871.450
12/26/2013  19:30:00      -91.978        7.118      -13.631       32.050       17.804       13.844     1027.193      316.990      191.644        0.512        0.077       92.253        7.905        0.007      332.782        1.669      871.441
12/26/2013  19:31:00      -78.638       -5.107      -18.244       18.946       15.178        9.185      358.932      230.368       84.363        0.361        0.034       78.804        7.384        0.009      332.770        1.650      871.436
12/26/2013  19:32:00      -51.546       -7.846      -11.668       17.809       16.780       11.947      317.171      281.576      142.722        0.180        0.037       52.139        8.101        0.024      332.871        1.816      871.420
12/26/2013  19:33:00      -37.331      -21.762       -3.541       15.852       16.270       13.477      251.276      264.700      181.629        0.129        0.035       43.211       10.807        0.063      332.959        1.961      871.411
12/26/2013  19:34:00      -29.575       -2.291       -4.031       31.800       20.909       15.259     1011.242      437.198      232.827        0.129        0.084       29.664       12.134        0.167      333.193        2.348      871.424
12/26/2013  19:35:00      -43.438       -3.829       -7.866       10.724       10.628        7.396      115.011      112.954       54.695        0.112        0.014       43.606        6.802        0.024      333.051        2.112      871.414
12/26/2013  19:36:00      -50.450       -7.104       -7.946       16.932       13.241       11.373      286.709      175.315      129.341        0.162        0.030       50.948        6.135        0.015      333.034        2.085      871.409
12/26/2013  19:37:00      -26.956       -8.295       -7.730       17.939       12.800        7.849      321.814      163.849       61.614        0.070        0.027       28.204        7.997        0.080      333.102        2.197      871.399
12/26/2013  19:38:00      -24.472       15.236       -5.644       19.238       21.603       12.701      370.114      466.692      161.325        0.093        0.050       28.827       12.476        0.187      333.547        2.935      871.390
12/26/2013  19:39:00      -20.669        5.757       -6.980       29.652       23.234       16.812      879.255      539.841      282.645        0.111        0.085       21.456       10.524        0.241      333.428        2.737      871.388
12/26/2013  19:40:00      -16.534        8.504       -6.650       26.900       36.818       19.700      723.598     1355.556      388.084        0.143        0.123       18.593       10.868        0.342      333.566        2.966      871.381
12/26/2013  19:41:00      -29.085      -18.612       -0.372       15.600       15.611       12.170      243.371      243.702      148.113        0.091        0.032       34.530        9.261        0.072      333.250        2.443      871.370
12/26/2013  19:42:00      -47.455       -3.072      -12.131       25.761       11.691       10.882      663.623      136.688      118.413        0.166        0.046       47.555       10.810        0.052      333.277        2.486      871.365
12/26/2013  19:43:00      -29.087       -6.095       -2.743       25.102       12.764       10.848      630.090      162.927      117.681        0.090        0.046       29.719        9.078        0.093      333.404        2.696      871.375
12/26/2013  19:44:00      -47.364       -4.771       -5.405       10.874        9.534       10.408      118.248       90.890      108.324        0.131        0.016       47.603        6.970        0.021      333.204        2.366      871.381
12/26/2013  19:45:00      -48.619       -9.781       -7.240       13.646        9.417        8.203      186.217       88.685       67.294        0.143        0.017       49.593        7.873        0.025      333.113        2.217      871.375
12/26/2013  19:46:00      -58.265       -9.316      -11.143       11.337        6.912        6.888      128.522       47.781       47.448        0.191        0.011       59.005        6.192        0.011      333.037        2.088      871.367
12/26/2013  19:47:00      -61.080      -16.407       -7.370        9.231       10.408        8.895       85.204      108.319       79.117        0.216        0.014       63.245        6.356        0.010      332.880        1.832      871.363
12/26/2013  19:48:00      -60.271       -7.450      -11.309       14.049       13.335        9.470      197.376      177.817       89.679        0.214        0.023       60.730        5.969        0.010      332.854        1.791      871.368
12/26/2013  19:49:00      -67.257      -17.506      -11.931       11.890       14.727       10.601      141.367      216.888      112.379        0.272        0.024       69.498        6.567        0.009      332.942        1.933      871.372
12/26/2013  19:50:00      -63.939      -24.157      -18.113        9.944       17.110        9.194       98.878      292.741       84.522        0.274        0.024       68.351        4.989        0.005      332.987        2.009      871.385
12/26/2013  19:51:00      -68.370      -15.097      -16.443       14.408       18.697       11.406      207.600      349.578      130.105        0.293        0.034       70.017        7.655        0.012      332.931        1.915      871.396
12/26/2013  19:52:00      -91.850       -6.658      -19.970       20.453       16.552       15.689      418.330      273.982      246.150        0.491        0.047       92.091       10.838        0.014      332.893        1.851      871.408
12/26/2013  19:53:00      -99.910      -18.946       -8.068       26.088       24.393       16.068      680.595      595.040      258.186        0.597        0.077      101.690       15.276        0.023      332.814        1.724      871.404
12/26/2013  19:54:00      -65.479      -39.787       -6.231       24.919       20.146       17.172      620.969      405.844      294.882        0.362        0.066       76.620       13.904        0.033      332.791        1.685      871.416
12/26/2013  19:55:00      -78.017      -40.836      -13.543       21.527       21.359       13.765      463.419      456.223      189.487        0.452        0.055       88.059       13.963        0.025      332.747        1.611      871.435
12/26/2013  19:56:00     -108.470      -36.621      -14.220       31.032       22.031       16.040      962.967      485.349      257.267        0.751        0.085      114.485       16.055        0.020      332.654        1.457      871.462
12/26/2013  19:57:00     -105.790      -42.590      -19.296       19.758       23.369       13.541      390.373      546.087      183.361        0.725        0.056      114.042        8.308        0.005      332.697        1.529      871.479
12/26/2013  19:58:00     -121.201      -28.551      -12.109       25.853       29.759       21.198      668.375      885.625      449.368        0.883        0.100      124.518       12.481        0.010      332.659        1.466      871.481
12/26/2013  19:59:00     -125.066      -26.439      -12.447       33.481       31.756       24.743     1120.995     1008.416      612.227        0.962        0.137      127.830       22.709        0.032      332.645        1.443      871.489
12/26/2013  20:00:00     -113.296      -19.748       -6.773       40.397       24.856       18.721     1631.952      617.810      350.470        0.794        0.130      115.004       18.921        0.027      332.652        1.454      871.484
12/26/2013  20:01:00     -125.921      -23.300       -9.400       37.081       27.762       20.991     1375.034      770.713      440.640        0.954        0.129      128.059       19.937        0.024      332.634        1.423      871.485
12/26/2013  20:02:00     -124.146       -8.101       -9.803       35.442       26.134       22.897     1256.151      682.994      524.262        0.902        0.123      124.410       22.942        0.034      332.586        1.344      871.503
12/26/2013  20:03:00     -135.141        1.174       -9.855       38.452       35.522       25.643     1478.564     1261.824      657.585        1.088        0.170      135.146       24.985        0.034      332.704        1.541      871.503
12/26/2013  20:04:00     -121.014       -4.835      -10.913       56.182       36.259       27.752     3156.444     1314.688      770.173        1.001        0.262      121.111       29.696        0.060      332.696        1.526      871.505
12/26/2013  20:05:00     -129.652        1.360      -10.153       32.727       21.701       19.502     1071.077      470.938      380.341        0.942        0.096      129.659       14.537        0.013      332.670        1.484      871.505
12/26/2013  20:06:00     -105.812      -46.590      -12.206       30.939       29.265       13.856      957.194      856.459      192.003        0.776        0.100      115.615       15.242        0.017      332.647        1.445      871.502
12/26/2013  20:07:00      -75.296      -43.439       -2.783       32.698       31.363       21.351     1069.185      983.654      455.886        0.504        0.125       86.927       19.404        0.050      332.664        1.474      871.500
12/26/2013  20:08:00      -89.005      -45.551      -13.453       26.579       20.067       15.442      706.447      402.667      238.448        0.576        0.067       99.984       11.173        0.012      332.706        1.541      871.493
12/26/2013  20:09:00      -73.225      -56.345      -13.214       24.097       20.987       16.002      580.665      440.447      256.068        0.499        0.064       92.394       16.260        0.031      332.706        1.543      871.488
12/26/2013  20:10:00      -45.180      -34.247       -9.477       34.251       26.378       21.498     1173.145      695.812      462.184        0.282        0.117       56.693       14.875        0.069      332.740        1.599      871.488
12/26/2013  20:11:00      -58.873      -38.249      -10.284       24.689       20.790       16.079      609.549      432.243      258.543        0.317        0.065       70.207        6.222        0.008      332.708        1.545      871.498
12/26/2013  20:12:00      -75.999      -55.470      -11.739       20.267       15.896       14.076      410.762      252.683      198.134        0.493        0.043       94.089        8.161        0.008      332.730        1.583      871.500
12/26/2013  20:13:00     -106.773      -41.260      -14.251       21.974       13.995       10.586      482.839      195.871      112.065        0.705        0.040      114.468        5.431        0.002      332.701        1.535      871.493
12/26/2013  20:14:00     -122.313      -42.826      -10.837       15.875       11.884       11.105      252.014      141.229      123.321        0.871        0.026      129.594        9.456        0.005      332.663        1.470      871.489
12/26/2013  20:15:00     -122.376      -47.442       -7.394       14.751       16.615       13.776      217.589      276.052      189.783        0.898        0.034      131.250        9.100        0.005      332.741        1.602      871.505
12/26/2013  20:16:00     -110.021      -58.008       -8.905       17.354       14.306       12.273      301.151      204.672      150.634        0.810        0.033      124.377       10.890        0.008      332.641        1.435      871.517
12/26/2013  20:17:00     -115.180      -48.404      -11.617       13.656       14.533       13.468      186.487      211.202      181.387        0.816        0.029      124.938        9.519        0.006      332.691        1.518      871.517
12/26/2013  20:18:00     -106.629      -49.557       -8.561       12.388       11.977        9.445      153.460      143.456       89.200        0.714        0.019      117.582        6.211        0.003      332.792        1.687      871.512
12/26/2013  20:19:00      -91.704      -53.338      -11.216       16.477       13.607       10.603      271.491      185.161      112.414        0.597        0.028      106.087        6.006        0.003      332.780        1.666      871.510
12/26/2013  20:20:00     -114.968      -66.527      -13.801       14.799       15.117       10.502      219.011      228.520      110.282        0.920        0.028      132.829        6.776        0.003      332.728        1.580      871.513
12/26/2013  20:21:00      -86.766      -51.223        4.716       44.012       25.441       20.431     1937.064      647.233      417.413        0.659        0.150      100.758       22.658        0.051      332.596        1.361      871.511
12/26/2013  20:22:00      -92.149      -59.927        0.558       44.098       25.930       22.130     1944.615      672.363      489.732        0.759        0.155      109.922       21.256        0.037      332.500        1.202      871.500
12/26/2013  20:23:00     -111.489      -71.661       -4.440       32.003       30.292       23.196     1024.171      917.613      538.032        1.003        0.124      132.533       19.042        0.021      332.473        1.158      871.498
12/26/2013  20:24:00     -109.627      -75.988       -3.620       31.110       24.849       20.864      967.827      617.475      435.299        0.991        0.101      133.387       18.010        0.018      332.432        1.090      871.507
12/26/2013  20:25:00     -132.331      -84.458       -8.403       22.473       17.830       17.212      505.053      317.904      296.267        1.292        0.056      156.986       13.187        0.007      332.439        1.103      871.519
12/26/2013  20:26:00     -103.486      -74.089       -3.591       39.705       27.274       22.644     1576.526      743.879      512.732        0.952        0.142      127.274       19.599        0.024      332.425        1.079      871.521
12/26/2013  20:27:00     -122.821      -74.556       -9.595       21.862       18.968       13.698      477.967      359.784      187.644        1.088        0.051      143.679        9.349        0.004      332.437        1.100      871.527
12/26/2013  20:28:00     -128.842      -84.024       -8.331       30.320       25.292       19.600      919.327      639.691      384.159        1.284        0.097      153.819       15.715        0.010      332.443        1.108      871.530
12/26/2013  20:29:00     -113.908      -66.411       -7.780       28.547       29.069       18.311      814.910      845.000      335.289        0.972        0.100      131.854       12.203        0.009      332.494        1.192      871.538
12/26/2013  20:30:00     -138.504      -56.185      -12.466       20.589       25.865       14.886      423.910      668.976      221.600        1.190        0.066      149.466       10.598        0.005      332.448        1.117      871.550
12/26/2013  20:31:00     -122.520      -77.112       -6.128       42.288       23.802       17.426     1788.236      566.515      303.657        1.183        0.133      144.767       14.738        0.010      332.466        1.146      871.561
12/26/2013  20:32:00     -107.979      -60.924       -2.028       41.843       27.065       20.150     1750.856      732.541      406.017        0.913        0.144      123.980       17.224        0.019      332.469        1.151      871.572
12/26/2013  20:33:00     -131.726      -66.215       -1.858       39.676       29.751       21.858     1574.157      885.150      477.771        1.234        0.147      147.432       22.077        0.022      332.459        1.134      871.573
12/26/2013  20:34:00     -150.749      -60.992       -9.813       18.677       23.540       15.436      348.829      554.115      238.266        1.384        0.057      162.620       11.038        0.005      332.446        1.115      871.578
12/26/2013  20:35:00     -129.859      -79.143       -6.585       31.143       25.364       19.540      969.909      643.312      381.824        1.258        0.100      152.075       18.657        0.015      332.452        1.124      871.582
12/26/2013  20:36:00     -117.932      -68.288       -2.393       32.680       33.272       20.023     1067.978     1107.017      400.906        1.058        0.129      136.276       17.697        0.017      332.467        1.147      871.595
12/26/2013  20:37:00      -92.722      -59.369        0.426       36.742       23.104       23.249     1349.966      533.794      540.523        0.727        0.121      110.100       22.120        0.040      332.451        1.122      871.582
12/26/2013  20:38:00      -99.185      -57.712       -6.640       29.673       24.294       19.733      880.502      590.185      389.397        0.754        0.093      114.753       13.524        0.014      332.481        1.171      871.569
12/26/2013  20:39:00      -88.929      -61.511        1.109       41.101       22.688       17.622     1689.310      514.739      310.525        0.710        0.126      108.130       12.363        0.013      332.424        1.077      871.560
12/26/2013  20:40:00      -26.374      -17.808        0.329       37.471       18.613       14.593     1404.093      346.436      212.954        0.149        0.098       31.823       13.805        0.188      332.402        1.039      871.563
12/26/2013  20:41:00      -65.518      -10.649       -5.960       23.650       16.041       10.852      559.346      257.327      117.769        0.269        0.047       66.378       12.003        0.033      332.387        1.017      871.561
12/26/2013  20:42:00      -89.176       -9.142      -11.983       18.998       17.392       11.953      360.927      302.473      142.865        0.449        0.040       89.644        6.845        0.006      332.399        1.036      871.554
12/26/2013  20:43:00      -96.181      -19.505      -13.020       20.588       22.458       12.010      423.885      504.370      144.234        0.544        0.054       98.139        7.260        0.005      332.372        0.990      871.546
12/26/2013  20:44:00      -85.501      -35.102       -9.075       36.574       27.845       17.211     1337.686      775.346      296.228        0.552        0.120       92.426       17.353        0.035      332.361        0.973      871.538
12/26/2013  20:45:00      -62.988      -55.216       -3.826       39.165       32.094       20.769     1533.879     1030.044      431.345        0.501        0.150       83.764       17.901        0.046      332.317        0.900      871.524
12/26/2013  20:46:00      -81.666      -67.283       -9.702       30.860       17.944       19.618      952.333      321.972      384.861        0.647        0.083      105.813       11.769        0.012      332.326        0.916      871.509
12/26/2013  20:47:00      -43.926      -25.203       -3.788       27.194       22.358       19.623      739.521      499.867      385.053        0.210        0.081       50.643       10.321        0.042      332.289        0.854      871.501
12/26/2013  20:48:00      -83.505      -45.420      -11.561       21.692       16.907       17.128      470.527      285.861      293.382        0.511        0.052       95.058       11.956        0.016      332.233        0.761      871.492
12/26/2013  20:49:00      -78.704      -52.122       -3.356       19.982       20.634       19.213      399.281      425.779      369.143        0.506        0.060       94.398       13.352        0.020      332.262        0.811      871.492
12/26/2013  20:50:00      -49.977      -27.137       -6.937       29.422       17.248       18.288      865.673      297.506      334.443        0.239        0.075       56.869       15.143        0.071      332.205        0.718      871.501
12/26/2013  20:51:00      -75.269      -49.013       -6.220       26.387       15.388       13.919      696.253      236.804      193.729        0.462        0.056       89.821       13.992        0.024      332.197        0.704      871.508
12/26/2013  20:52:00     -124.787      -53.142      -18.338       16.923       12.594       11.006      286.397      158.600      121.129        0.965        0.028      135.632        4.196        0.001      332.213        0.730      871.515
12/26/2013  20:53:00     -131.028      -69.227      -12.436       20.031       19.950       15.814      401.224      397.992      250.098        1.158        0.052      148.191       11.767        0.006      332.235        0.766      871.530
12/26/2013  20:54:00     -114.493      -63.107       -2.056       31.620       20.125       18.699      999.813      405.028      349.663        0.942        0.088      130.733       16.622        0.016      332.243        0.779      871.560
12/26/2013  20:55:00      -98.251      -57.346        0.336       29.075       23.045       18.267      845.343      531.070      333.673        0.733        0.086      113.762       16.523        0.021      332.208        0.722      871.574
12/26/2013  20:56:00     -114.512      -61.091       -5.544       26.448       17.665       14.463      699.491      312.057      209.185        0.905        0.061      129.789       14.252        0.012      332.210        0.725      871.586
12/26/2013  20:57:00     -132.108      -64.760      -13.478       18.592       17.897       13.163      345.647      320.290      173.273        1.133        0.042      147.127        9.201        0.004      332.227        0.753      871.597
12/26/2013  20:58:00     -129.986      -53.362      -13.365       18.788       29.200       14.621      352.980      852.637      213.762        1.067        0.071      140.513        7.905        0.003      332.219        0.741      871.614
12/26/2013  20:59:00     -126.084      -67.533       -1.719       37.062       23.993       22.632     1373.588      575.657      512.193        1.146        0.123      143.031       22.745        0.025      332.137        0.604      871.625
12/26/2013  21:00:00     -123.973      -60.354       -3.546       44.637       22.419       20.402     1992.446      502.620      416.261        1.097        0.146      137.884       12.222        0.008      332.109        0.558      871.617
12/26/2013  21:01:00     -143.975      -71.761      -10.916       46.038       28.002       19.566     2119.510      784.117      382.844        1.464        0.164      160.868       20.233        0.016      332.057        0.474      871.608
12/26/2013  21:02:00     -137.828      -76.873       -3.465       38.101       31.267       23.799     1451.706      977.613      566.385        1.396        0.150      157.817       22.785        0.021      332.012        0.397      871.613
12/26/2013  21:03:00     -142.918      -75.965       -6.880       29.926       24.556       20.222      895.575      603.009      408.938        1.408        0.095      161.852       17.086        0.011      332.011        0.397      871.615
12/26/2013  21:04:00     -152.756      -57.762       -7.501       25.596       22.831       19.183      655.148      521.243      367.990        1.414        0.077      163.312       13.653        0.007      331.999        0.378      871.610
12/26/2013  21:05:00     -141.772      -45.498      -10.349       26.827       33.429       14.979      719.668     1117.490      224.368        1.217        0.103      148.894       14.338        0.009      331.906        0.223      871.604
12/26/2013  21:06:00     -131.735      -27.142       -5.938       38.421       26.074       19.773     1476.148      679.852      390.953        1.034        0.127      134.502       18.433        0.019      331.975        0.337      871.599
12/26/2013  21:07:00     -119.230      -40.142       -8.448       43.923       31.430       19.673     1929.195      987.827      387.036        0.960        0.165      125.806       22.228        0.031      331.960        0.311      871.598
12/26/2013  21:08:00     -155.755      -29.056      -15.612       33.100       33.077       21.515     1095.632     1094.100      462.885        1.400        0.133      158.442       20.694        0.017      331.944        0.285      871.613
12/26/2013  21:09:00     -150.954      -27.790      -11.487       50.494       38.533       21.126     2549.648     1484.828      446.323        1.409        0.224      153.491       20.478        0.018      331.883        0.185      871.629
12/26/2013  21:10:00     -136.096      -36.383       -5.667       54.569       47.849       29.759     2977.754     2289.570      885.581        1.301        0.308      140.876       26.465        0.035      331.896        0.205      871.640
12/26/2013  21:11:00     -146.672      -26.166      -15.585       56.998       38.573       29.278     3248.750     1487.847      857.229        1.402        0.280      148.987       33.362        0.050      331.906        0.222      871.656
12/26/2013  21:12:00     -115.559      -38.559       -3.528       57.775       37.573       22.565     3337.964     1411.756      509.159        1.006        0.263      121.823       21.840        0.032      331.876        0.174      871.661
12/26/2013  21:13:00     -154.581      -24.402       -5.910       60.404       35.967       28.293     3648.626     1293.643      800.520        1.513        0.287      156.495       29.988        0.037      331.919        0.243      871.680
12/26/2013  21:14:00     -108.863      -21.360       -6.793       43.758       30.622       21.056     1914.735      937.678      443.343        0.782        0.165      110.939       19.977        0.032      331.947        0.290      871.695
12/26/2013  21:15:00     -143.974      -22.965       -9.345       51.038       26.062       21.150     2604.904      679.207      447.307        1.254        0.187      145.794       24.137        0.027      331.963        0.316      871.707
12/26/2013  21:16:00     -126.307      -10.255       -9.565       35.498       40.297       22.619     1260.077     1623.867      511.633        0.977        0.170      126.723       15.197        0.014      331.937        0.274      871.713
12/26/2013  21:17:00     -131.759       -7.717      -16.575       33.624       30.764       19.671     1130.548      946.424      386.938        1.008        0.123      131.985       10.948        0.007      331.933        0.268      871.709
12/26/2013  21:18:00     -139.039       -1.489       -6.629       37.036       41.721       26.298     1371.679     1740.627      691.584        1.159        0.190      139.047       22.512        0.026      331.895        0.205      871.713
12/26/2013  21:19:00     -139.126        0.207        0.571       62.952       33.636       28.834     3962.899     1131.391      831.396        1.264        0.296      139.126       30.388        0.048      331.891        0.198      871.710
12/26/2013  21:20:00     -147.302       -6.618       -4.942       57.852       33.385       28.280     3346.835     1114.576      799.780        1.351        0.263      147.451       31.045        0.044      331.919        0.245      871.723
12/26/2013  21:21:00      -95.458      -49.830        2.223       53.081       31.492       22.309     2817.633      991.742      497.707        0.795        0.215      107.681       25.350        0.055      331.978        0.341      871.737
12/26/2013  21:22:00      -66.947      -33.439       -0.578       37.804       35.453       21.212     1429.178     1256.916      449.951        0.437        0.157       74.834       19.569        0.068      331.994        0.368      871.739
12/26/2013  21:23:00      -78.004      -41.786       -2.122       34.679       30.431       19.422     1202.604      926.074      377.225        0.517        0.125       88.491       21.520        0.059      331.947        0.290      871.738
12/26/2013  21:24:00      -81.787      -48.241       -3.087       32.627       33.221       18.448     1064.522     1103.615      340.336        0.577        0.125       94.954       13.995        0.022      332.002        0.382      871.741
12/26/2013  21:25:00      -86.324      -24.037        1.693       33.541       25.014       17.361     1124.992      625.702      301.420        0.504        0.103       89.609       17.077        0.036      332.000        0.378      871.749
12/26/2013  21:26:00      -75.168      -41.140       -3.244       24.532       26.567       16.770      601.814      705.832      281.235        0.447        0.079       85.689        8.874        0.011      331.977        0.340      871.743
12/26/2013  21:27:00     -139.021      -21.975      -17.931       38.474       36.504       16.911     1480.226     1332.532      285.999        1.161        0.155      140.748       16.758        0.014      331.932        0.267      871.730
12/26/2013  21:28:00      -82.291      -50.045       -7.256       41.591       21.934       18.660     1729.794      481.081      348.191        0.594        0.128       96.314       16.406        0.029      331.919        0.245      871.728
12/26/2013  21:29:00      -99.596      -38.641      -15.691       24.864       20.896       19.137      618.224      436.627      366.221        0.654        0.071      106.829        7.039        0.004      331.949        0.293      871.735
12/26/2013  21:30:00      -34.291      -40.513       -1.459       34.662       33.241       21.616     1201.435     1104.961      467.271        0.280        0.139       53.077       24.170        0.207      331.973        0.334      871.724
12/26/2013  21:31:00      -67.464      -52.848       -6.385       28.717       23.973       19.942      824.683      574.725      397.670        0.459        0.090       85.699       12.711        0.022      331.989        0.361      871.711
12/26/2013  21:32:00     -102.669      -47.980      -13.232       19.206       23.368       13.212      368.889      546.053      174.556        0.705        0.054      113.327        8.390        0.005      331.925        0.254      871.700
12/26/2013  21:33:00     -115.709      -32.242      -10.630       16.765       15.203        9.393      281.074      231.127       88.224        0.757        0.030      120.117        4.406        0.001      331.916        0.240      871.691
12/26/2013  21:34:00     -102.230      -36.570      -11.356       15.290       13.559       10.814      233.794      183.842      116.949        0.623        0.027      108.575        8.033        0.005      331.962        0.315      871.692
12/26/2013  21:35:00      -86.519      -22.045      -16.673       13.038       11.838        9.323      169.980      140.136       86.915        0.432        0.020       89.283        6.556        0.005      332.003        0.384      871.690
12/26/2013  21:36:00      -82.324      -17.385       -9.962       17.103       10.120       10.116      292.506      102.422      102.328        0.384        0.025       84.140        6.311        0.006      331.995        0.371      871.681
12/26/2013  21:37:00     -103.472      -31.336      -17.319       11.266        8.635        9.658      126.922       74.564       93.269        0.614        0.015      108.112        3.051        0.001      332.017        0.407      871.678
12/26/2013  21:38:00     -131.025      -52.793      -17.447       17.114       10.551       11.478      292.895      111.327      131.741        1.040        0.027      141.261        6.271        0.002      332.005        0.385      871.677
12/26/2013  21:39:00     -147.120      -59.490      -18.513       12.743       15.660        9.942      162.378      245.238       98.841        1.302        0.025      158.692        6.253        0.002      331.956        0.304      871.676
12/26/2013  21:40:00     -145.004      -25.790      -12.363       38.510       20.047       19.356     1482.996      401.880      374.660        1.205        0.113      147.279       21.995        0.022      331.934        0.268      871.670
12/26/2013  21:41:00     -141.547      -39.043      -10.336       20.459       18.010       14.849      418.588      324.351      220.480        1.131        0.048      146.833       12.652        0.007      331.949        0.294      871.667
12/26/2013  21:42:00     -151.828      -36.705      -14.997       18.869       15.757        9.517      356.042      248.290       90.579        1.266        0.035      156.202        8.179        0.003      331.903        0.218      871.668
12/26/2013  21:43:00      -92.830      -39.838      -14.127       22.196       14.067       12.558      492.676      197.887      157.709        0.563        0.042      101.017        7.513        0.006      331.831        0.100      871.667
12/26/2013  21:44:00     -112.258      -62.235       -5.029       36.241       20.446       18.669     1313.395      418.026      348.533        0.929        0.104      128.355       18.793        0.021      331.835        0.106      871.683
12/26/2013  21:45:00     -116.126      -42.052       -8.513       33.130       25.012       17.924     1097.572      625.576      321.271        0.868        0.102      123.506       14.640        0.014      331.835        0.105      871.695
12/26/2013  21:46:00     -137.908      -64.762      -13.823       25.281       15.462       15.360      639.125      239.086      235.927        1.226        0.056      152.358       11.911        0.006      331.824        0.089      871.690
12/26/2013  21:47:00     -109.241      -81.002      -11.062       39.627       38.008       26.546     1570.310     1444.582      704.712        1.117        0.186      135.996       16.534        0.015      331.823        0.087      871.681
12/26/2013  21:48:00      -89.538      -77.273       -2.442       42.876       38.223       26.975     1838.337     1461.019      727.661        0.901        0.201      118.271       25.055        0.045      331.800        0.050      871.675
12/26/2013  21:49:00      -92.958      -72.333        2.223       48.182       39.290       25.593     2321.496     1543.677      654.980        0.920        0.226      117.785       23.976        0.041      331.762       -0.014      871.668
12/26/2013  21:50:00      -76.000      -64.424        2.227       32.870       38.752       19.977     1080.424     1501.700      399.097        0.646        0.149       99.631       16.723        0.028      331.747       -0.039      871.668
12/26/2013  21:51:00      -77.272      -58.974        0.316       37.633       24.031       24.230     1416.222      577.473      587.113        0.601        0.129       97.205       10.602        0.012      331.750       -0.035      871.671
12/26/2013  21:52:00      -71.253      -55.512        2.249       44.025       27.223       23.394     1938.243      741.116      547.288        0.569        0.161       90.325       22.050        0.060      331.704       -0.109      871.672
12/26/2013  21:53:00      -42.945      -51.153        8.654       43.726       36.687       20.573     1911.990     1345.931      423.252        0.411        0.184       66.790       16.300        0.060      331.735       -0.058      871.674
12/26/2013  21:54:00      -87.715      -50.859        3.111       41.419       26.361       23.405     1715.553      694.904      547.793        0.662        0.148      101.393       21.394        0.045      331.732       -0.065      871.673
12/26/2013  21:55:00      -88.840      -41.532        0.821       31.848       25.068       23.649     1014.272      628.395      559.274        0.591        0.110       98.068       20.124        0.042      331.739       -0.052      871.678
12/26/2013  21:56:00      -46.146      -59.920        2.990       34.975       31.138       23.110     1223.228      969.576      534.064        0.423        0.136       75.630       20.793        0.076      331.757       -0.021      871.673
12/26/2013  21:57:00      -57.700      -56.750        7.538       42.411       26.677       21.538     1798.657      711.668      463.897        0.479        0.149       80.931       19.094        0.056      331.773        0.004      871.679
12/26/2013  21:58:00      -22.430      -24.822        8.446       32.018       21.590       19.646     1025.179      466.144      385.956        0.153        0.094       33.455       19.473        0.339      331.819        0.081      871.685
12/26/2013  21:59:00      -46.659      -36.421       -0.476       31.257       23.036       13.921      977.000      530.650      193.786        0.260        0.085       59.191       13.191        0.050      331.812        0.066      871.685
12/26/2013  22:00:00      -73.604      -52.961       -0.347       33.181       19.966       18.327     1100.961      398.644      335.866        0.503        0.092       90.678       13.971        0.024      331.791        0.033      871.697
12/26/2013  22:01:00      -87.182      -63.432       -2.942       31.801       22.274       17.437     1011.318      496.114      304.051        0.672        0.091      107.817       11.902        0.012      331.804        0.056      871.700
12/26/2013  22:02:00      -88.802      -68.601        0.027       36.295       24.528       22.341     1317.298      601.603      499.113        0.750        0.121      112.214       19.536        0.030      331.813        0.071      871.707
12/26/2013  22:03:00     -114.595      -61.619       -5.879       27.321       22.471       19.648      746.442      504.925      386.028        0.930        0.082      130.111       16.476        0.016      331.784        0.022      871.709
12/26/2013  22:04:00     -110.970      -56.839      -14.946       19.504       22.842       11.730      380.420      521.758      137.590        0.840        0.052      124.680        7.250        0.003      331.749       -0.035      871.711
12/26/2013  22:05:00     -106.046      -39.587       -3.470       21.594       18.985       13.085      466.294      360.437      171.211        0.691        0.050      113.194        9.981        0.008      331.743       -0.045      871.717
12/26/2013  22:06:00     -119.530      -33.879       -2.898       25.849       18.494       14.190      668.191      342.017      201.366        0.833        0.061      124.238       12.107        0.009      331.758       -0.021      871.728
12/26/2013  22:07:00     -113.872      -52.641       -6.444       20.446       19.803       13.851      418.024      392.163      191.853        0.839        0.050      125.451       11.340        0.008      331.726       -0.071      871.727
12/26/2013  22:08:00     -118.613      -51.592       -8.543       21.147       22.574       14.023      447.207      509.584      196.650        0.898        0.058      129.348        8.306        0.004      331.737       -0.054      871.717
12/26/2013  22:09:00     -120.503      -49.889       -7.993       24.004       19.989       18.445      576.189      399.548      340.227        0.919        0.066      130.421       15.195        0.014      331.760       -0.017      871.711
12/26/2013  22:10:00     -138.869      -62.928      -10.995       17.543       18.394       15.259      307.764      338.334      232.848        1.212        0.044      152.462        9.630        0.004      331.738       -0.053      871.705
12/26/2013  22:11:00     -113.835      -44.078      -12.588       26.269       24.514       18.482      690.082      600.917      341.602        0.835        0.082      122.071       12.345        0.010      331.761       -0.017      871.713
12/26/2013  22:12:00     -111.316      -55.980       -7.036       30.792       17.406       16.599      948.129      302.953      275.527        0.855        0.076      124.599       12.701        0.010      331.667       -0.169      871.717
12/26/2013  22:13:00      -86.817      -47.893      -10.661       13.847       17.123       12.544      191.737      293.187      157.349        0.529        0.032       99.151        9.286        0.009      331.660       -0.180      871.714
12/26/2013  22:14:00      -77.238      -42.621      -11.297       16.241       12.023        9.372      263.760      144.558       87.837        0.420        0.025       88.217        5.645        0.004      331.681       -0.145      871.716
12/26/2013  22:15:00      -73.408      -41.104       -9.665        9.503        8.966        7.585       90.306       80.385       57.538        0.370        0.011       84.132        5.015        0.004      331.687       -0.137      871.712
12/26/2013  22:16:00      -74.789      -38.328      -19.119       14.306       12.852        9.372      204.662      165.182       87.840        0.394        0.023       84.038        4.014        0.002      331.717       -0.087      871.709
12/26/2013  22:17:00      -38.775      -30.260       -5.285       23.121       22.210       17.663      534.597      493.287      311.977        0.189        0.067       49.185       15.837        0.104      331.714       -0.092      871.717
12/26/2013  22:18:00      -44.636      -45.518       -3.821       22.376       16.039       16.603      500.682      257.258      275.649        0.256        0.052       63.752       10.402        0.027      331.747       -0.038      871.741
12/26/2013  22:19:00      -47.076      -38.647       -7.947       18.853       17.911       13.039      355.424      320.787      170.007        0.231        0.042       60.908        8.865        0.021      331.690       -0.132      871.759
12/26/2013  22:20:00      -34.460      -42.392       -8.353       23.156       19.196       16.061      536.189      368.500      257.957        0.211        0.058       54.631       15.168        0.077      331.729       -0.066      871.765
12/26/2013  22:21:00      -53.849      -45.193       -7.072       17.411       14.591       15.426      303.138      212.884      237.959        0.287        0.038       70.301        7.079        0.010      331.722       -0.078      871.779
12/26/2013  22:22:00      -17.354      -16.081        1.564       21.909       18.147       15.320      480.009      329.327      234.702        0.080        0.052       23.659        9.372        0.157      331.685       -0.139      871.777
12/26/2013  22:23:00      -85.588      -35.576      -11.098       27.377       18.116        9.486      749.500      328.174       89.978        0.494        0.058       92.687       11.684        0.016      331.643       -0.208      871.769
12/26/2013  22:24:00      -88.996      -20.042       -6.230       15.910       13.148        8.884      253.120      172.883       78.929        0.443        0.025       91.225        7.768        0.007      331.685       -0.140      871.754
12/26/2013  22:25:00      -84.338      -30.724      -14.657       10.242       10.227        9.394      104.907      104.591       88.253        0.428        0.015       89.760        2.028        0.001      331.679       -0.148      871.749
12/26/2013  22:26:00      -92.048      -43.835      -11.188       16.095       11.686        6.642      259.061      136.553       44.110        0.548        0.022      101.953        4.643        0.002      331.659       -0.184      871.727
12/26/2013  22:27:00      -94.110      -50.353      -15.293        8.493        8.145        6.815       72.139       66.333       46.449        0.591        0.009      106.734        2.742        0.001      331.619       -0.250      871.712
12/26/2013  22:28:00      -94.877      -47.777      -13.377       13.315       12.490        9.032      177.277      156.003       81.570        0.594        0.021      106.228        3.790        0.001      331.634       -0.224      871.698
12/26/2013  22:29:00     -108.889      -55.268      -13.753       12.859       13.873        9.679      165.361      192.460       93.686        0.778        0.023      122.112        7.298        0.004      331.666       -0.170      871.681
12/26/2013  22:30:00     -117.719      -46.976      -14.592       13.804       15.386        9.560      190.553      236.718       91.399        0.840        0.026      126.746        3.396        0.001      331.688       -0.135      871.673
12/26/2013  22:31:00     -126.447      -43.963      -22.947       12.655       13.938        9.781      160.142      194.274       95.677        0.945        0.023      133.871        5.644        0.002      331.703       -0.110      871.663
12/26/2013  22:32:00     -143.261      -50.519      -24.060       10.254       12.042       10.392      105.143      145.020      107.996        1.201        0.018      151.907        4.382        0.001      331.711       -0.098      871.666
12/26/2013  22:33:00     -144.954      -74.143      -11.968       24.179       18.854       19.999      584.633      355.492      399.947        1.400        0.067      162.816       16.557        0.010      331.623       -0.242      871.672
12/26/2013  22:34:00     -127.198      -61.389       -4.520       36.927       31.004       20.363     1363.637      961.220      414.656        1.135        0.137      141.237       18.331        0.017      331.541       -0.378      871.680
12/26/2013  22:35:00     -127.718      -53.888       -6.166       18.150       21.705       15.918      329.428      471.099      253.369        1.015        0.053      138.621       11.657        0.007      331.521       -0.410      871.695
12/26/2013  22:36:00     -110.741      -44.213      -11.411       25.821       23.113       14.999      666.710      534.197      224.972        0.789        0.071      119.241       11.500        0.009      331.528       -0.399      871.707
12/26/2013  22:37:00     -113.081      -43.750       -0.198       32.874       22.320       15.114     1080.726      498.185      228.439        0.825        0.090      121.249       16.778        0.019      331.509       -0.430      871.714
12/26/2013  22:38:00     -137.241      -44.559       -9.765       21.659       19.884       18.796      469.120      395.374      353.294        1.107        0.061      144.294       13.998        0.009      331.537       -0.387      871.715
12/26/2013  22:39:00     -104.789      -29.773       -3.071       31.804       25.562       18.564     1011.515      653.401      344.616        0.694        0.100      108.936       17.199        0.025      331.519       -0.415      871.713
12/26/2013  22:40:00     -116.503      -47.299       -4.592       28.870       24.087       14.110      833.471      580.161      199.082        0.872        0.081      125.738       11.757        0.009      331.547       -0.368      871.703
12/26/2013  22:41:00     -123.654      -46.968       -3.557       22.477       20.198       17.507      505.237      407.974      306.493        0.936        0.061      132.273       13.156        0.010      331.529       -0.397      871.682
12/26/2013  22:42:00     -126.565      -59.666       -4.977       24.606       23.259       15.165      605.440      540.971      229.979        1.049        0.069      139.923       13.593        0.009      331.529       -0.397      871.662
12/26/2013  22:43:00     -129.641      -46.605       -7.951       16.939       12.691        9.571      286.927      161.074       91.606        0.979        0.027      137.764        7.757        0.003      331.478       -0.481      871.646
12/26/2013  22:44:00     -101.999      -35.504       -5.114       20.749       17.210       10.904      430.509      296.175      118.905        0.627        0.042      108.002        8.752        0.007      331.420       -0.578      871.634
12/26/2013  22:45:00      -81.024      -35.595      -13.131       11.373       12.557        8.859      129.339      157.672       78.490        0.418        0.018       88.498        4.924        0.003      331.447       -0.532      871.629
12/26/2013  22:46:00      -93.573      -50.523      -13.547       11.924       14.659       10.409      142.173      214.896      108.346        0.598        0.023      106.342        6.879        0.004      331.481       -0.478      871.632
12/26/2013  22:47:00      -96.218      -53.495       -9.076       23.457       18.802       10.915      550.231      353.498      119.138        0.661        0.051      110.089        4.500        0.002      331.416       -0.582      871.631
12/26/2013  22:48:00     -111.033      -51.393       -4.459       23.059       19.148       17.101      531.714      366.662      292.445        0.809        0.060      122.350       16.714        0.019      331.389       -0.627      871.629
12/26/2013  22:49:00     -119.673      -38.100      -12.041       10.599       12.421        8.983      112.333      154.283       80.689        0.813        0.017      125.591        4.090        0.001      331.434       -0.554      871.620
12/26/2013  22:50:00      -98.226      -18.858       -8.905       11.556       12.476        7.462      133.533      155.642       55.688        0.521        0.017      100.020        4.965        0.002      331.457       -0.517      871.602
12/26/2013  22:51:00      -85.840       -6.457      -13.296        8.930        9.439        9.757       79.749       89.095       95.198        0.393        0.013       86.082        5.987        0.005      331.480       -0.478      871.589
12/26/2013  22:52:00      -72.092      -20.410       -9.615       14.474       11.806       11.014      209.506      139.390      121.302        0.309        0.024       74.925        9.490        0.016      331.465       -0.503      871.570
12/26/2013  22:53:00      -88.134      -10.109      -16.473       18.910       11.868        9.359      357.603      140.845       87.585        0.436        0.029       88.712        8.525        0.009      331.478       -0.481      871.553
12/26/2013  22:54:00      -76.264      -21.149      -17.858       11.966       18.124        9.785      143.178      328.490       95.755        0.357        0.028       79.142        9.226        0.014      331.447       -0.534      871.538
12/26/2013  22:55:00      -82.311      -11.380      -12.501        9.799       16.920       12.110       96.018      286.302      146.658        0.379        0.026       83.094        8.574        0.011      331.419       -0.578      871.522
12/26/2013  22:56:00      -66.050       -4.437       -7.816       15.807       13.972       10.184      249.860      195.210      103.714        0.250        0.027       66.198        6.088        0.008      331.388       -0.628      871.507
12/26/2013  22:57:00      -51.296        4.086       -6.640       11.894        5.326        6.011      141.455       28.365       36.134        0.145        0.010       51.459        5.374        0.011      331.551       -0.361      871.482
12/26/2013  22:58:00       -4.774        8.631        4.288        9.773        8.933        6.353       95.507       79.797       40.358        0.017        0.011        9.863        4.084        0.171      331.885        0.190      871.467
12/26/2013  22:59:00        6.479        9.640        2.015       11.462       12.046        6.386      131.375      145.111       40.785        0.023        0.016       11.615        4.015        0.120      331.902        0.216      871.444
12/26/2013  23:00:00      -19.097        1.027       -0.932       17.706       12.581        8.380      313.519      158.282       70.232        0.045        0.027       19.124        2.973        0.024      331.740       -0.050      871.435
12/26/2013  23:01:00      -28.955      -20.077       -4.149       26.288       19.667        9.037      691.066      386.784       81.671        0.121        0.058       35.234        5.778        0.027      331.751       -0.031      871.427
12/26/2013  23:02:00      -84.891       -8.806      -11.234       15.066       10.298        9.435      226.995      106.052       89.020        0.392        0.021       85.346        6.858        0.006      331.303       -0.767      871.425
12/26/2013  23:03:00      -80.946      -32.899      -16.733       17.178       12.381       10.420      295.083      153.289      108.581        0.424        0.028       87.376        8.538        0.010      331.320       -0.740      871.427
12/26/2013  23:04:00      -87.555      -37.835      -14.793       13.631       14.630       12.434      185.809      214.036      154.597        0.494        0.028       95.380        6.082        0.004      331.212       -0.917      871.427
12/26/2013  23:05:00     -140.467      -31.256      -18.697       24.147       14.368        8.805      583.097      206.453       77.533        1.096        0.043      143.903        3.339        0.001      331.189       -0.957      871.437
12/26/2013  23:06:00     -138.619      -30.771      -16.874       16.236       17.585       12.811      263.602      309.223      164.114        1.059        0.037      141.993       11.845        0.007      331.211       -0.920      871.434
12/26/2013  23:07:00     -118.506      -20.997      -11.705       27.895       15.015       12.463      778.127      225.455      155.329        0.789        0.058      120.352       10.386        0.007      331.196       -0.944      871.438
12/26/2013  23:08:00     -117.382      -27.523      -13.282       13.447       12.935        8.439      180.820      167.327       71.218        0.757        0.021      120.565        4.641        0.001      331.216       -0.912      871.441
12/26/2013  23:09:00      -86.176      -29.656       -9.182       27.905       14.055       13.763      778.675      197.539      189.428        0.478        0.058       91.136       11.810        0.017      331.227       -0.894      871.440
12/26/2013  23:10:00     -101.944      -34.411       -9.892       13.618        9.515        7.865      185.447       90.540       61.858        0.601        0.017      107.595        5.031        0.002      331.319       -0.742      871.441
12/26/2013  23:11:00      -94.204      -29.598      -17.777       15.502       17.745        9.182      240.306      314.899       84.307        0.535        0.032       98.745        4.903        0.002      331.325       -0.732      871.444
12/26/2013  23:12:00     -104.212      -39.226      -10.612       13.500       11.927       10.748      182.253      142.256      115.513        0.648        0.022      111.349        6.572        0.003      331.313       -0.751      871.443
12/26/2013  23:13:00     -105.101      -42.372       -9.089       12.137       11.794        9.791      147.316      139.103       95.856        0.665        0.019      113.321        6.797        0.004      331.323       -0.736      871.442
12/26/2013  23:14:00     -107.850      -50.899      -10.504       17.035       15.791       11.275      290.195      249.362      127.121        0.750        0.033      119.257        2.383        0.000      331.275       -0.814      871.447
12/26/2013  23:15:00     -114.208      -43.784      -15.740       14.190       20.256        9.492      201.363      410.301       90.090        0.795        0.035      122.313        7.763        0.004      331.301       -0.772      871.442
12/26/2013  23:16:00     -114.885      -52.944      -16.411       11.229       12.681        7.678      126.095      160.798       58.947        0.831        0.017      126.498        6.219        0.002      331.277       -0.809      871.439
12/26/2013  23:17:00     -116.726      -56.727      -14.481       17.595       15.503       10.015      309.581      240.350      100.299        0.885        0.033      129.781        7.086        0.003      331.282       -0.802      871.441
12/26/2013  23:18:00     -136.124      -61.623       -4.565       35.334       21.852       23.147     1248.520      477.530      535.770        1.230        0.113      149.422       20.952        0.020      331.254       -0.848      871.440
12/26/2013  23:19:00     -120.008      -77.925       -5.444       33.015       24.324       22.135     1090.011      591.668      489.953        1.134        0.109      143.088       14.061        0.010      331.261       -0.837      871.459
12/26/2013  23:20:00     -106.576      -76.830      -11.354       28.528       25.135       18.718      813.862      631.789      350.373        0.959        0.090      131.382       10.277        0.006      331.198       -0.941      871.464
12/26/2013  23:21:00     -100.364      -60.966       -8.825       36.410       17.521       16.106     1325.662      306.978      259.418        0.788        0.095      117.430       12.135        0.011      331.184       -0.964      871.471
12/26/2013  23:22:00      -87.009      -54.830       -8.433       27.181       20.767       17.134      738.781      431.274      293.567        0.606        0.073      102.844       13.978        0.018      331.186       -0.960      871.473
12/26/2013  23:23:00     -131.396      -48.223       -6.070       14.275       12.886        8.648      203.777      166.052       74.787        1.004        0.022      139.966        5.205        0.001      331.136       -1.042      871.474
12/26/2013  23:24:00      -90.804      -45.385       -4.561       16.854       14.360        9.712      284.043      206.204       94.319        0.546        0.029      101.515        4.923        0.002      331.140       -1.036      871.474
12/26/2013  23:25:00      -74.774      -26.676       -3.461       16.566       13.718        9.456      274.421      188.175       89.407        0.343        0.028       79.390        9.493        0.014      331.209       -0.923      871.469
12/26/2013  23:26:00      -92.262      -29.300       -1.842       24.871       20.573       13.507      618.588      423.265      182.444        0.530        0.061       96.803       14.815        0.023      331.191       -0.953      871.468
12/26/2013  23:27:00      -86.373      -41.740       -4.914       20.648       12.963       13.732      426.334      168.028      188.573        0.500        0.039       95.930       11.983        0.016      331.188       -0.958      871.467
12/26/2013  23:28:00      -65.237      -39.817      -12.735       10.790       10.027        5.333      116.415      100.537       28.446        0.312        0.012       76.428        2.505        0.001      331.149       -1.023      871.474
12/26/2013  23:29:00      -54.512      -43.445      -11.327       14.054        9.333        9.811      197.505       87.107       96.250        0.268        0.019       69.707        7.089        0.010      331.199       -0.942      871.474
12/26/2013  23:30:00      -82.883      -51.457       -4.860       10.416       12.237        7.291      108.499      149.737       53.157        0.493        0.016       97.558        4.826        0.002      331.237       -0.875      871.457
12/26/2013  23:31:00      -61.888      -45.762       -7.021       24.659       12.964       11.451      608.059      168.053      131.115        0.344        0.045       76.970        5.498        0.005      331.270       -0.822      871.432
12/26/2013  23:32:00      -69.278      -50.622       -7.379       20.817       12.271       10.304      433.359      150.577      106.182        0.405        0.035       85.802        9.677        0.013      331.188       -0.956      871.417
12/26/2013  23:33:00      -96.488      -64.308       -8.356       14.856       11.933       11.128      220.697      142.404      123.839        0.700        0.024      115.954        7.969        0.005      331.145       -1.028      871.399
12/26/2013  23:34:00      -87.030      -55.514      -12.809       15.435       13.060       11.550      238.226      170.566      133.404        0.568        0.027      103.228        6.228        0.004      331.168       -0.992      871.403
12/26/2013  23:35:00     -103.927      -64.496      -10.251       28.464       17.604       13.622      810.197      309.903      185.550        0.819        0.065      122.314       10.744        0.008      331.168       -0.991      871.403
12/26/2013  23:36:00     -132.043      -52.902      -10.323       17.238       20.735       12.129      297.159      429.935      147.116        1.061        0.044      142.246        4.914        0.001      331.102       -1.098      871.405
12/26/2013  23:37:00     -148.470      -57.287      -13.959       14.215       17.071       13.934      202.080      291.417      194.169        1.310        0.034      159.139        9.088        0.003      331.059       -1.171      871.399
12/26/2013  23:38:00     -119.930      -41.417       -2.690       26.580       19.802       13.440      706.485      392.131      180.624        0.869        0.064      126.880       12.833        0.010      331.040       -1.203      871.391
12/26/2013  23:39:00     -126.706      -34.414       -2.654       21.445       17.317       15.560      459.891      299.876      242.114        0.912        0.050      131.297       13.270        0.010      331.011       -1.250      871.376
12/26/2013  23:40:00     -118.959      -38.740       -8.239       14.047       12.695        8.705      197.311      161.156       75.783        0.808        0.022      125.108        7.692        0.004      331.025       -1.228      871.351
12/26/2013  23:41:00      -96.830      -39.013      -18.354       13.161       15.294       10.332      173.224      233.909      106.749        0.587        0.026      104.394        8.207        0.006      331.034       -1.214      871.333
12/26/2013  23:42:00      -60.747      -46.363      -13.400       21.213       19.815       14.014      450.000      392.621      196.401        0.353        0.052       76.418        9.711        0.016      331.046       -1.190      871.326
12/26/2013  23:43:00      -57.630      -38.064       -5.854       17.923       21.257       16.051      321.240      451.845      257.642        0.292        0.052       69.066       12.588        0.033      331.061       -1.167      871.322
12/26/2013  23:44:00      -51.023      -33.404      -10.190       23.513       12.564       10.896      552.866      157.864      118.723        0.233        0.041       60.985        8.849        0.021      331.044       -1.194      871.309
12/26/2013  23:45:00      -63.832      -20.122       -6.091       17.743       16.591       10.474      314.797      275.269      109.704        0.261        0.035       66.928        8.002        0.014      331.044       -1.197      871.310
12/26/2013  23:46:00      -61.150      -14.754       -9.908       15.510       10.660       13.190      240.570      113.628      173.976        0.229        0.026       62.905       10.246        0.027      331.066       -1.160      871.312
12/26/2013  23:47:00      -40.398      -16.428       -6.282        8.687       11.639        8.365       75.472      135.474       69.979        0.111        0.014       43.610        4.861        0.012      331.091       -1.116      871.314
12/26/2013  23:48:00      -23.198      -14.450       -7.314       10.839        9.834        6.597      117.490       96.708       43.524        0.053        0.013       27.330        6.357        0.054      331.172       -0.986      871.310
12/26/2013  23:49:00       -8.614      -10.651        5.926       10.515        8.117        5.757      110.562       65.884       33.139        0.022        0.010       13.699        2.280        0.028      331.163       -0.999      871.319
12/26/2013  23:50:00      -10.126       -1.116        2.338        6.742        5.072        3.857       45.454       25.722       14.876        0.010        0.004       10.187        3.296        0.105      331.151       -1.020      871.318
12/26/2013  23:51:00      -23.910       -7.029        1.147       13.471       11.232        6.183      181.463      126.162       38.232        0.048        0.017       24.922        5.651        0.051      331.183       -0.967      871.311
12/26/2013  23:52:00      -62.343      -29.105       -6.342       16.090        8.444        6.408      258.892       71.309       41.069        0.257        0.019       68.802        5.922        0.007      331.092       -1.115      871.295
12/26/2013  23:53:00      -84.826      -41.575       -6.632       24.705       11.913       10.148      610.344      141.927      102.982        0.491        0.043       94.466        9.956        0.011      331.040       -1.203      871.277
12/26/2013  23:54:00     -131.221      -53.704       -5.385       19.537       18.474       11.866      381.679      341.291      140.808        1.050        0.043      141.786        6.402        0.002      331.093       -1.114      871.263
12/26/2013  23:55:00      -83.539      -30.981        0.051       40.802       23.183       14.640     1664.817      537.460      214.342        0.518        0.121       89.099       13.362        0.022      331.012       -1.248      871.252
12/26/2013  23:56:00      -90.233      -24.063        2.063       39.187       21.831       13.877     1535.649      476.608      192.573        0.546        0.110       93.386       11.885        0.016      331.003       -1.264      871.250
12/26/2013  23:57:00      -90.308      -23.071        1.517       27.471       23.910       16.165      754.652      571.712      261.312        0.514        0.079       93.208       13.929        0.022      330.944       -1.359      871.247
12/26/2013  23:58:00      -95.589      -23.403       -3.572       27.029       18.983       10.118      730.544      360.353      102.369        0.545        0.060       98.412        6.376        0.004      330.908       -1.417      871.249
12/26/2013  23:59:00      -51.786      -22.736       -1.006       15.635       16.846       10.709      244.441      283.790      114.690        0.192        0.032       56.557        7.724        0.019      330.939       -1.366      871.239
